Date StartTime U_cm/s V_cm/s W_cm/s Ustd_cm/s Vstd_cm/s Wstd_cm/s Uvar_(cm/s)^2 Vvar_(cm/s)^2 Wvar_(cm/s)^2 KE_(m/s)^2 TurbulentKE_(m/s)^2 HorizWindSpeed_cm/s FrictionSpeec_cm/s DragCoef SpeedOfSound_m/s SonicTemperature_C Pressure_mb 
08/19/2013  00:00:00      -31.666      -88.604        4.765       33.518       51.585       27.752     1123.448     2661.046      770.164        0.671        0.228       94.093       25.866        0.076      346.983       25.624      862.911
08/19/2013  00:01:00      -70.914      -93.903        3.921       35.771       57.268       19.462     1279.582     3279.624      378.787        0.940        0.247      117.672       18.022        0.023      347.053       25.743      862.929
08/19/2013  00:02:00      -55.044       -8.852        7.038       28.566       35.603       23.017      815.994     1267.592      529.780        0.289        0.131       55.751       20.320        0.133      347.000       25.652      862.936
08/19/2013  00:03:00      -95.965      -74.068        1.502       57.205       49.743       21.420     3272.388     2474.370      458.835        1.045        0.310      121.224       19.220        0.025      347.007       25.664      862.943
08/19/2013  00:04:00      -57.916      -40.697        6.856       46.443       30.446       18.029     2156.926      926.949      325.058        0.423        0.170       70.785       16.788        0.056      346.893       25.468      862.952
08/19/2013  00:05:00      -70.945      -43.602        7.309       43.350       25.299       20.798     1879.264      640.057      432.540        0.497        0.148       83.273       14.577        0.031      347.020       25.686      862.965
08/19/2013  00:06:00      -11.997      -18.975        6.114       26.167       25.110       14.355      684.700      630.519      206.060        0.103        0.076       22.449       10.917        0.236      346.860       25.412      862.969
08/19/2013  00:07:00      -31.452      -19.174        4.132       18.699       13.393       10.726      349.641      179.381      115.052        0.101        0.032       36.836        5.379        0.021      347.004       25.658      862.967
08/19/2013  00:08:00      -68.883      -17.101       -1.516       23.423       18.277        8.103      548.626      334.050       65.651        0.299        0.047       70.974        5.501        0.006      347.050       25.738      862.967
08/19/2013  00:09:00      -73.019      -42.192       -3.080       19.273       14.920       11.032      371.441      222.616      121.699        0.392        0.036       84.333       10.960        0.017      346.999       25.651      862.979
08/19/2013  00:10:00      -63.211      -22.689       -3.182       13.081       14.861       10.242      171.117      220.858      104.902        0.251        0.025       67.160        4.723        0.005      347.018       25.684      862.975
08/19/2013  00:11:00      -50.826       26.025       -4.057       15.343       26.221        9.745      235.412      687.536       94.955        0.215        0.051       57.101        8.261        0.021      346.874       25.435      862.951
08/19/2013  00:12:00      -54.127       61.631       -0.246       19.784       27.755       20.173      391.418      770.361      406.966        0.415        0.078       82.025       14.677        0.032      346.859       25.410      862.929
08/19/2013  00:13:00      -22.561       55.726        6.598       32.440       35.556       21.052     1052.352     1264.230      443.207        0.321        0.138       60.120       22.589        0.141      346.684       25.109      862.917
08/19/2013  00:14:00       43.493      -27.621        6.992       33.823       40.378       22.817     1144.023     1630.388      520.624        0.300        0.165       51.523       27.830        0.292      346.321       24.485      862.950
08/19/2013  00:15:00      -16.682      -12.213        2.310       32.836       26.856       12.887     1078.193      721.231      166.068        0.120        0.098       20.675        8.705        0.177      346.469       24.740      862.975
08/19/2013  00:16:00      -35.422       47.298       -0.491       18.239       28.275        7.991      332.665      799.465       63.855        0.234        0.060       59.092        7.502        0.016      346.568       24.910      862.957
08/19/2013  00:17:00      -16.279       73.768      -14.632       19.617       13.645        8.642      384.836      186.188       74.683        0.328        0.032       75.543        7.170        0.009      346.481       24.760      862.958
08/19/2013  00:18:00      -78.449       43.591       -7.358       48.093       32.131       17.825     2312.950     1032.392      317.739        0.589        0.183       89.747       21.557        0.058      346.612       24.985      862.948
08/19/2013  00:19:00     -125.844       -6.294      -22.619       29.606       31.874       20.797      876.487     1015.955      432.514        0.936        0.116      126.001       14.077        0.012      346.590       24.948      862.936
08/19/2013  00:20:00     -148.320       18.153       -7.783       52.744       35.407       24.959     2781.981     1253.624      622.946        1.352        0.233      149.426       26.595        0.032      346.449       24.705      862.912
08/19/2013  00:21:00      -87.755      -29.860       -3.802       60.082       41.993       22.837     3609.843     1763.445      521.545        0.725        0.295       92.696       20.419        0.049      346.389       24.600      862.930
08/19/2013  00:22:00      -92.777      -42.122       -3.151       69.635       27.929       18.673     4849.047      780.028      348.693        0.818        0.299      101.892       20.627        0.041      346.257       24.375      862.976
08/19/2013  00:23:00     -136.920      -39.778       -0.205       33.930       28.372       19.001     1151.218      804.978      361.034        1.132        0.116      142.581       13.251        0.009      346.292       24.436      862.986
08/19/2013  00:24:00     -176.968        9.374      -13.500       46.904       35.865       25.565     2199.957     1286.302      653.589        1.786        0.207      177.216       26.283        0.022      346.288       24.427      862.984
08/19/2013  00:25:00     -188.719       35.068      -26.472       30.559       34.280       25.379      933.827     1175.129      644.070        2.015        0.138      191.950       12.108        0.004      346.353       24.538      862.976
08/19/2013  00:26:00     -152.709      -13.950      -15.922       36.850       30.048       19.748     1357.936      902.854      389.989        1.321        0.133      153.345       16.937        0.012      346.403       24.626      862.984
08/19/2013  00:27:00      -95.008      -21.098      -10.596       50.438       34.287       20.828     2543.965     1175.598      433.816        0.687        0.208       97.323       24.457        0.063      346.422       24.657      862.992
08/19/2013  00:28:00     -107.892      -38.814       -9.453       35.604       33.323       16.410     1267.675     1110.423      269.300        0.794        0.132      114.661        5.310        0.002      346.349       24.533      862.991
08/19/2013  00:29:00     -107.020       12.555      -10.104       18.272       20.696       11.792      333.862      428.328      139.051        0.631        0.045      107.754        7.328        0.005      346.401       24.622      862.957
08/19/2013  00:30:00      -44.572       -4.680        3.374       27.676       16.520       14.648      765.974      272.905      214.552        0.164        0.063       44.817       17.421        0.151      346.254       24.367      862.948
08/19/2013  00:31:00        2.287        5.788       23.144       25.229       18.272       17.840      636.492      333.877      318.261        0.093        0.064        6.224       11.425        3.370      345.403       22.909      862.968
08/19/2013  00:32:00       -3.525        9.195        9.106       11.298       15.178       11.609      127.653      230.367      134.772        0.034        0.025        9.848        9.939        1.018      345.639       23.312      862.981
08/19/2013  00:33:00       25.301       28.778       16.977       35.781       21.062       23.412     1280.265      443.597      548.128        0.201        0.114       38.318       22.951        0.359      345.907       23.774      862.967
08/19/2013  00:34:00       43.164       33.306       11.932       33.710       22.220       23.223     1136.397      493.707      539.303        0.264        0.108       54.520       19.539        0.128      345.638       23.313      862.959
08/19/2013  00:35:00       37.775       42.884        5.855       26.002       24.424       18.343      676.099      596.526      336.463        0.245        0.080       57.149       14.040        0.060      345.910       23.780      862.980
08/19/2013  00:36:00       33.772       34.521       10.337       13.584       13.226       10.699      184.525      174.918      114.458        0.146        0.024       48.294        5.316        0.012      345.552       23.164      862.984
08/19/2013  00:37:00       13.297       40.668       14.789       11.884       13.224       16.743      141.218      174.868      280.332        0.132        0.030       42.786       10.268        0.058      345.856       23.687      862.988
08/19/2013  00:38:00       -0.369       51.468        5.124       27.872       40.839       19.073      776.843     1667.789      363.764        0.274        0.140       51.469       12.935        0.063      346.250       24.363      862.987
08/19/2013  00:39:00       35.023        1.458        2.727       23.734       21.493       17.399      563.285      461.946      302.712        0.128        0.066       35.054        5.523        0.025      346.403       24.626      863.007
08/19/2013  00:40:00       40.456       37.842       23.405       44.152       19.562       28.677     1949.433      382.672      822.398        0.338        0.158       55.396       25.320        0.209      346.033       23.989      862.998
08/19/2013  00:41:00       59.931       61.833       -3.143       42.869       28.349       20.367     1837.749      803.646      414.812        0.524        0.153       86.111       13.441        0.024      345.988       23.912      862.974
08/19/2013  00:42:00       53.928       44.781       19.510       32.089       28.434       37.586     1029.724      808.496     1412.733        0.427        0.163       70.097       23.632        0.114      346.073       24.058      862.960
08/19/2013  00:43:00       65.875      -11.264        6.417       48.393       52.817       25.573     2341.885     2789.620      653.998        0.515        0.289       66.831       20.019        0.090      345.855       23.684      862.990
08/19/2013  00:44:00      -15.517     -115.447        1.133       39.589       58.398       19.798     1567.283     3410.348      391.946        0.947        0.268      116.485       21.538        0.034      346.110       24.123      863.025
08/19/2013  00:45:00      -14.612      -55.878        6.421       35.458       51.775       28.262     1257.238     2680.620      798.736        0.406        0.237       57.757       37.231        0.416      346.588       24.944      863.041
08/19/2013  00:46:00       43.819       -3.483       19.287       22.403       40.857       33.205      501.898     1669.297     1102.561        0.279        0.164       43.958       31.572        0.516      345.558       23.172      863.036
08/19/2013  00:47:00       66.678       -1.117        3.870       30.668       50.324       27.735      940.550     2532.525      769.234        0.435        0.212       66.687       27.427        0.169      345.672       23.370      863.021
08/19/2013  00:48:00       65.819       30.180       -2.624       46.834       41.722       27.644     2193.467     1740.743      764.205        0.497        0.235       72.408       10.913        0.023      346.027       23.980      863.006
08/19/2013  00:49:00        5.065       -4.625       13.487       21.220       12.846       12.298      450.284      165.021      151.237        0.050        0.038        6.859        4.203        0.375      346.015       23.958      863.012
08/19/2013  00:50:00       -0.658      -13.934        5.156       27.200       34.878       23.419      739.822     1216.444      548.452        0.136        0.125       13.950       22.346        2.566      346.072       24.055      863.016
08/19/2013  00:51:00       28.813       14.281       15.628       25.348       22.677       25.795      642.535      514.248      665.400        0.155        0.091       32.158       12.541        0.152      345.730       23.468      863.033
08/19/2013  00:52:00       62.041       51.786       59.880       45.647       35.598       30.404     2083.643     1267.234      924.400        0.720        0.214       80.814       19.288        0.057      346.567       24.907      863.032
08/19/2013  00:53:00       34.032       66.172       58.620       42.899       18.854       25.037     1840.284      355.469      626.848        0.590        0.141       74.410       28.953        0.151      346.639       25.031      863.040
08/19/2013  00:54:00      110.060       63.517       27.887       35.407       33.277       38.590     1253.643     1107.368     1489.182        1.039        0.193      127.074       22.745        0.032      346.818       25.339      863.025
08/19/2013  00:55:00      108.826       48.051       23.388       49.498       40.511       38.165     2450.060     1641.102     1456.584        1.012        0.277      118.962       24.037        0.041      346.690       25.119      863.018
08/19/2013  00:56:00      139.280       72.953       18.025       50.043       38.640       35.166     2504.285     1493.052     1236.641        1.514        0.262      157.229       24.278        0.024      346.715       25.161      863.007
08/19/2013  00:57:00       74.753       38.883       13.288       45.004       40.471       27.151     2025.363     1637.872      737.154        0.584        0.220       84.261       21.905        0.068      346.538       24.857      863.027
08/19/2013  00:58:00      114.711       59.772       31.148       30.021       32.072       26.972      901.232     1028.594      727.513        1.018        0.133      129.350       16.295        0.016      346.679       25.100      863.038
08/19/2013  00:59:00       90.122       45.366       11.480       51.059       32.934       24.995     2607.056     1084.658      624.726        0.731        0.216      100.896       20.750        0.042      346.569       24.911      863.039
08/19/2013  01:00:00      125.746       61.292       13.935       49.977       41.839       26.255     2497.700     1750.510      689.343        1.235        0.247      139.889       20.813        0.022      346.474       24.747      863.053
08/19/2013  01:01:00      139.694       81.745       13.555       49.361       38.241       29.350     2436.475     1462.402      861.436        1.557        0.238      161.854       15.608        0.009      346.446       24.700      863.069
08/19/2013  01:02:00      165.050       92.138       37.673       51.495       34.197       33.123     2651.686     1169.438     1097.145        2.103        0.246      189.026       25.497        0.018      346.467       24.734      863.086
08/19/2013  01:03:00      180.781       99.374       18.266       47.333       46.504       33.667     2240.389     2162.624     1133.465        2.421        0.277      206.293       19.017        0.008      346.391       24.601      863.100
08/19/2013  01:04:00      168.782      104.092       53.186       40.834       30.219       34.343     1667.382      913.199     1179.435        2.296        0.188      198.299       21.547        0.012      346.324       24.488      863.118
08/19/2013  01:05:00      192.438      114.569       47.296       40.021       37.627       35.267     1601.679     1415.778     1243.765        2.833        0.213      223.961       11.696        0.003      346.376       24.576      863.126
08/19/2013  01:06:00      165.674       94.495       33.157       52.113       36.671       32.709     2715.731     1344.755     1069.898        2.130        0.257      190.728       22.482        0.014      346.371       24.568      863.128
08/19/2013  01:07:00      158.397      102.555       27.404       37.830       31.663       31.238     1431.091     1002.540      975.837        1.988        0.170      188.698       19.519        0.011      346.255       24.370      863.133
08/19/2013  01:08:00      173.921       82.795       30.493       51.245       29.912       33.215     2626.090      894.705     1103.254        2.133        0.231      192.623       22.872        0.014      346.237       24.339      863.127
08/19/2013  01:09:00      168.592      104.321       37.508       49.399       37.691       31.027     2440.290     1420.616      962.700        2.277        0.241      198.258       23.245        0.014      346.400       24.618      863.106
08/19/2013  01:10:00      139.593       85.914       39.945       46.903       31.344       25.795     2199.857      982.451      665.390        1.615        0.192      163.913       14.913        0.008      346.364       24.558      863.104
08/19/2013  01:11:00      125.775       90.775       23.642       29.673       31.462       22.452      880.470      989.881      504.078        1.350        0.119      155.111        6.794        0.002      346.386       24.598      863.102
08/19/2013  01:12:00      149.345       89.215       39.003       28.100       24.114       21.920      789.626      581.508      480.499        1.682        0.093      173.963        7.976        0.002      346.402       24.624      863.075
08/19/2013  01:13:00      118.152       85.655       38.786       40.544       26.040       31.106     1643.779      678.088      967.567        1.304        0.164      145.934       13.915        0.009      346.524       24.834      863.053
08/19/2013  01:14:00      114.751       64.373       21.492       29.522       21.394       25.370      871.550      457.696      643.614        0.987        0.099      131.574        7.000        0.003      346.525       24.835      863.045
08/19/2013  01:15:00       99.602       51.558       25.353       37.477       40.307       29.996     1404.544     1624.691      899.752        0.857        0.196      112.156       20.390        0.033      346.336       24.510      863.034
08/19/2013  01:16:00       67.359       36.145       17.886       44.227       24.841       23.710     1956.042      617.055      562.141        0.465        0.157       76.444       12.864        0.028      346.314       24.472      863.019
08/19/2013  01:17:00       52.093       33.945       24.443       39.448       31.124       19.861     1556.153      968.681      394.465        0.369        0.146       62.177       13.178        0.045      346.271       24.398      862.999
08/19/2013  01:18:00       63.856       45.613       15.383       48.294       26.271       26.583     2332.331      690.147      706.636        0.506        0.186       78.474       14.558        0.034      346.420       24.654      862.984
08/19/2013  01:19:00       44.121       28.307       10.086       33.544       23.833       22.182     1125.205      567.999      492.047        0.252        0.109       52.421       10.760        0.042      346.535       24.853      862.967
08/19/2013  01:20:00       -5.725       14.433       -5.481       30.955       21.931       11.210      958.194      480.969      125.657        0.092        0.078       15.526        8.744        0.317      346.479       24.755      862.968
08/19/2013  01:21:00        6.003       14.289        1.928       47.775       35.361       12.544     2282.441     1250.379      157.341        0.197        0.185       15.499       16.656        1.155      346.475       24.750      862.951
08/19/2013  01:22:00       77.060       54.017       14.187       30.913       22.706       24.593      955.602      515.580      604.795        0.557        0.104       94.107       18.583        0.039      346.730       25.188      862.917
08/19/2013  01:23:00       76.746       66.028       12.080       31.856       29.688       27.020     1014.835      881.398      730.059        0.651        0.131      101.240       21.854        0.047      346.723       25.175      862.894
08/19/2013  01:24:00       29.972       16.130       16.908       50.176       27.431       33.529     2517.598      752.481     1124.177        0.292        0.220       34.037       23.650        0.483      346.871       25.430      862.884
08/19/2013  01:25:00      -56.841      -30.087      -14.100       19.865       21.279       12.648      394.631      452.787      159.972        0.267        0.050       64.313        7.947        0.015      346.456       24.716      862.886
08/19/2013  01:26:00      -25.580      -28.334       14.976       40.283       27.992       22.115     1622.731      783.557      489.065        0.229        0.145       38.173       24.104        0.399      346.246       24.355      862.896
08/19/2013  01:27:00        0.588      -30.532       19.938       38.875       32.867       28.274     1511.229     1080.210      799.446        0.236        0.170       30.538       28.668        0.881      346.421       24.657      862.886
08/19/2013  01:28:00      -64.140      -67.300       -2.145       33.910       27.866       16.313     1149.868      776.528      266.127        0.542        0.110       92.969       14.629        0.025      346.644       25.040      862.872
08/19/2013  01:29:00      -15.940      -77.561        4.927       22.874       33.970       16.196      523.208     1153.976      262.315        0.412        0.097       79.182       18.420        0.054      346.814       25.331      862.860
08/19/2013  01:30:00      -32.761      -48.710       -1.601       21.042       33.366        9.248      442.756     1113.295       85.522        0.254        0.082       58.702        9.896        0.028      346.870       25.427      862.835
08/19/2013  01:31:00      -41.700      -26.331       -1.784       38.291       26.580       17.511     1466.217      706.489      306.651        0.246        0.124       49.317       20.866        0.179      346.740       25.205      862.805
08/19/2013  01:32:00       46.240        3.928       19.078       33.778       34.162       26.778     1140.939     1167.074      717.036        0.277        0.151       46.407       23.192        0.250      346.174       24.233      862.794
08/19/2013  01:33:00       57.457      -36.086       13.921       40.714       46.184       31.958     1657.621     2132.980     1021.324        0.480        0.241       67.849       27.985        0.170      346.375       24.577      862.785
08/19/2013  01:34:00       22.717      -84.331        6.681       37.049       65.523       22.979     1372.632     4293.236      528.045        0.693        0.310       87.337       24.379        0.078      346.627       25.011      862.770
08/19/2013  01:35:00      -40.259      -46.894        0.385       38.442       22.340       18.327     1477.757      499.064      335.864        0.307        0.116       61.805       12.468        0.041      346.650       25.051      862.763
08/19/2013  01:36:00      -93.423     -128.340       -2.943       38.392       47.508       27.375     1473.916     2256.983      749.374        1.484        0.224      158.742       17.789        0.013      346.554       24.885      862.756
08/19/2013  01:37:00     -123.533      -87.089       -7.633       48.070       48.726       26.032     2310.701     2374.199      677.656        1.413        0.268      151.146       23.860        0.025      346.400       24.621      862.752
08/19/2013  01:38:00     -185.252     -130.539      -10.832       40.838       40.486       28.334     1667.719     1639.089      802.825        2.779        0.205      226.625       23.067        0.010      346.443       24.691      862.734
08/19/2013  01:39:00     -167.579     -148.065      -10.789       64.249       62.433       37.188     4127.969     3897.904     1382.922        2.976        0.470      223.620       29.298        0.017      346.407       24.630      862.747
08/19/2013  01:40:00     -146.313     -116.399      -13.433       71.165       66.285       41.235     5064.526     4393.661     1700.330        2.315        0.558      186.966       37.074        0.039      346.264       24.384      862.757
08/19/2013  01:41:00     -170.664     -115.521       -0.556       88.505       62.439       34.634     7833.145     3898.597     1199.542        2.770        0.647      206.086       36.233        0.031      346.203       24.277      862.760
08/19/2013  01:42:00      -91.162     -155.666       -0.739       58.771       48.610       27.487     3454.030     2362.961      755.543        1.956        0.329      180.395       23.307        0.017      346.135       24.163      862.770
08/19/2013  01:43:00      -91.278      -61.867       -3.955       63.994       41.532       30.864     4095.234     1724.895      952.577        0.947        0.339      110.268       26.851        0.059      346.076       24.063      862.775
08/19/2013  01:44:00      -42.542      -42.399        5.962       42.181       46.800       27.391     1779.204     2190.271      750.258        0.418        0.236       60.062       28.980        0.233      345.997       23.926      862.782
08/19/2013  01:45:00      -51.012      -74.971        4.676       51.589       29.951       24.238     2661.405      897.056      587.462        0.619        0.207       90.680       28.178        0.097      345.931       23.815      862.779
08/19/2013  01:46:00      -34.018      -65.291       12.116       54.972       54.523       32.233     3021.894     2972.712     1038.948        0.630        0.352       73.622       34.816        0.224      345.797       23.585      862.792
08/19/2013  01:47:00      -84.049      -79.116        7.341       60.746       48.787       34.374     3690.021     2380.163     1181.574        1.031        0.363      115.428       31.950        0.077      345.685       23.392      862.810
08/19/2013  01:48:00     -102.775      -87.014        7.120       74.342       40.924       32.944     5526.667     1674.787     1085.311        1.323        0.414      134.663       37.511        0.078      345.618       23.276      862.812
08/19/2013  01:49:00      -96.615      -75.529       -3.471       59.701       43.832       28.043     3564.241     1921.216      786.423        1.066        0.314      122.634       25.026        0.042      345.585       23.219      862.828
08/19/2013  01:50:00      -59.606      -77.665       -0.554       36.556       43.167       26.768     1336.361     1863.375      716.502        0.675        0.196       97.902       21.142        0.047      345.573       23.201      862.836
08/19/2013  01:51:00      -53.219      -94.931       -4.691       31.265       38.090       16.496      977.488     1450.857      272.134        0.728        0.135      108.831       11.938        0.012      345.605       23.254      862.854
08/19/2013  01:52:00      -46.243      -82.461        2.537       36.176       37.825       17.876     1308.739     1430.736      319.537        0.600        0.153       94.543       16.792        0.032      345.528       23.123      862.862
08/19/2013  01:53:00      -63.583      -57.813        1.221       51.156       45.311       26.869     2616.983     2053.117      721.919        0.639        0.270       85.937       26.014        0.092      345.518       23.104      862.872
08/19/2013  01:54:00     -135.383     -117.224      -12.299       43.598       36.385       26.443     1900.745     1323.860      699.239        1.807        0.196      179.081       25.461        0.020      345.448       22.985      862.858
08/19/2013  01:55:00      -97.595      -93.278       -2.568       62.312       52.341       31.678     3882.824     2739.550     1003.510        1.293        0.381      135.002       33.711        0.062      345.426       22.946      862.836
08/19/2013  01:56:00      -77.834      -71.363       -0.023       43.952       31.293       24.029     1931.796      979.259      577.379        0.732        0.174      105.598       24.108        0.052      345.422       22.940      862.817
08/19/2013  01:57:00      -79.206      -78.109        1.137       47.028       36.354       26.675     2211.600     1321.643      711.532        0.831        0.212      111.242       24.452        0.048      345.402       22.908      862.791
08/19/2013  01:58:00      -82.778      -57.280       -0.263       37.625       26.900       15.660     1415.628      723.596      245.240        0.626        0.119      100.664       12.716        0.016      345.453       22.992      862.769
08/19/2013  01:59:00      -11.304      -23.968       18.030       27.806       27.597       15.675      773.185      761.601      245.693        0.140        0.089       26.499       14.936        0.318      345.373       22.856      862.746
08/19/2013  02:00:00      -73.194      -42.880        0.854       46.841       34.056       22.358     2194.080     1159.821      499.902        0.552        0.193       84.830       20.354        0.058      345.302       22.734      862.718
08/19/2013  02:01:00      -45.032      -49.216        4.223       41.199       30.724       21.404     1697.324      943.941      458.136        0.378        0.155       66.709       22.382        0.113      345.348       22.814      862.708
08/19/2013  02:02:00      -31.925      -70.927       11.695       50.651       43.496       20.387     2565.549     1891.916      415.640        0.553        0.244       77.781       30.711        0.156      345.241       22.630      862.701
08/19/2013  02:03:00      -99.922      -54.320       -2.031       28.852       21.342       12.971      832.422      455.489      168.239        0.720        0.073      113.733       14.827        0.017      345.383       22.871      862.677
08/19/2013  02:04:00      -73.875      -25.470       -1.280       29.103       29.259       13.479      846.956      856.096      181.694        0.400        0.094       78.142       14.612        0.035      345.343       22.806      862.649
08/19/2013  02:05:00       -1.029       19.161       26.836       14.638       16.982       15.057      214.283      288.393      226.723        0.091        0.036       19.188        8.829        0.212      344.636       21.596      862.631
08/19/2013  02:06:00      -41.833      -47.409        0.428       35.511       26.710       14.161     1261.055      713.430      200.528        0.309        0.109       63.227       15.512        0.060      345.291       22.716      862.603
08/19/2013  02:07:00      -46.339      -41.734        4.136       39.091       44.487       23.240     1528.087     1979.062      540.115        0.398        0.202       62.362       26.195        0.176      345.317       22.761      862.576
08/19/2013  02:08:00      -97.825      -78.670        3.714       30.378       40.743       21.883      922.817     1659.956      478.879        0.942        0.153      125.534       22.433        0.032      345.326       22.776      862.569
08/19/2013  02:09:00     -100.527      -61.794       -0.899       36.671       40.534       21.740     1344.752     1642.987      472.616        0.869        0.173      118.001       21.220        0.032      345.297       22.725      862.573
08/19/2013  02:10:00      -33.311      -23.015        6.950       43.895       34.973       29.342     1926.777     1223.129      860.947        0.285        0.201       40.489       22.226        0.301      345.201       22.562      862.578
08/19/2013  02:11:00      -42.780      -71.891        4.827       45.968       51.492       26.199     2113.065     2651.387      686.405        0.624        0.273       83.657       27.370        0.107      345.205       22.569      862.572
08/19/2013  02:12:00      -58.514      -72.957        0.722       54.893       44.687       30.058     3013.240     1996.932      903.498        0.733        0.296       93.523       27.470        0.086      345.218       22.590      862.568
08/19/2013  02:13:00      -79.957      -67.253       -6.273       53.620       56.761       25.660     2875.113     3221.850      658.428        0.885        0.338      104.480       26.922        0.066      345.188       22.539      862.577
08/19/2013  02:14:00      -86.256      -56.405        8.203       63.231       39.129       34.364     3998.117     1531.090     1180.891        0.870        0.336      103.061       31.055        0.091      345.137       22.453      862.574
08/19/2013  02:15:00     -112.094      -78.486        1.389       47.268       32.881       24.815     2234.305     1081.174      615.783        1.133        0.197      136.839       25.752        0.035      345.103       22.395      862.562
08/19/2013  02:16:00      -83.533      -79.432       -0.817       56.587       34.056       25.205     3202.114     1159.781      635.278        0.914        0.250      115.270       27.107        0.055      345.107       22.400      862.575
08/19/2013  02:17:00      -53.060      -79.594        4.112       38.905       34.313       21.568     1513.637     1177.371      465.159        0.616        0.158       95.659       21.304        0.050      345.116       22.415      862.604
08/19/2013  02:18:00       -2.347      -37.001       18.809       36.155       36.560       20.532     1307.207     1336.641      421.560        0.240        0.153       37.075       22.269        0.361      345.034       22.275      862.617
08/19/2013  02:19:00      -31.986      -75.535        5.877       38.715       27.270       19.342     1498.846      743.645      374.101        0.469        0.131       82.029       14.632        0.032      345.134       22.447      862.630
08/19/2013  02:20:00      -51.561      -46.650       -3.588       45.580       27.929       23.432     2077.540      780.041      549.062        0.413        0.170       69.532       24.403        0.123      345.082       22.359      862.630
08/19/2013  02:21:00      -55.726      -40.974        4.522       53.760       26.061       24.308     2890.190      679.180      590.877        0.448        0.208       69.168       24.147        0.122      345.028       22.266      862.622
08/19/2013  02:22:00       -8.871      -15.075       23.031       41.910       28.981       23.067     1756.467      839.907      532.079        0.198        0.156       17.491       27.716        2.511      344.655       21.628      862.621
08/19/2013  02:23:00      -16.013      -13.741       11.622       15.712       23.328       12.854      246.869      544.177      165.227        0.077        0.048       21.101        8.842        0.176      344.798       21.874      862.626
08/19/2013  02:24:00      -18.303       -7.527        6.093       23.420       15.392       14.828      548.484      236.907      219.861        0.072        0.050       19.791       12.359        0.390      344.908       22.063      862.646
08/19/2013  02:25:00      -39.003      -48.068        3.063       23.666       17.104       13.247      560.100      292.557      175.494        0.243        0.051       61.901       10.948        0.031      345.067       22.332      862.654
08/19/2013  02:26:00      -34.350      -58.426       -2.915       19.799       16.317       10.626      392.020      266.233      112.911        0.269        0.039       67.775        6.680        0.010      345.177       22.522      862.662
08/19/2013  02:27:00      -66.120      -42.290        1.468       47.873       31.388       25.401     2291.814      985.198      645.209        0.504        0.196       78.487       28.214        0.129      345.125       22.433      862.659
08/19/2013  02:28:00     -148.176      -65.041      -13.478       22.131       26.046       17.484      489.783      678.397      305.682        1.392        0.074      161.822       13.896        0.007      345.136       22.452      862.626
08/19/2013  02:29:00     -118.226      -69.476       -5.420       34.225       25.198       16.691     1171.326      634.953      278.605        1.046        0.104      137.129       15.075        0.012      345.096       22.384      862.619
08/19/2013  02:30:00      -58.250      -39.019        6.069       37.271       27.288       17.615     1389.154      744.631      310.296        0.370        0.122       70.112       20.364        0.084      345.045       22.296      862.631
08/19/2013  02:31:00      -55.950      -31.435        4.118       32.890       23.178       11.982     1081.721      537.240      143.566        0.295        0.088       64.176       10.182        0.025      345.047       22.299      862.648
08/19/2013  02:32:00      -24.623        9.272        5.259       21.941       20.391       10.399      481.405      415.777      108.148        0.086        0.050       26.311        9.213        0.123      344.938       22.112      862.666
08/19/2013  02:33:00      -22.767       23.077       -4.242       19.405       22.886        8.198      376.544      523.757       67.211        0.102        0.048       32.418        8.392        0.067      344.825       21.918      862.694
08/19/2013  02:34:00      -47.943       22.315       -1.973       18.562       11.209        8.413      344.565      125.652       70.779        0.167        0.027       52.882        4.196        0.006      344.946       22.125      862.703
08/19/2013  02:35:00      -49.560       -8.977       -4.427       23.824       15.956       11.855      567.580      254.593      140.533        0.176        0.048       50.366       10.097        0.040      345.022       22.257      862.706
08/19/2013  02:36:00      -65.755        5.151       -5.749       12.320       10.807       10.825      151.787      116.794      117.176        0.238        0.019       65.956        7.143        0.012      344.995       22.209      862.707
08/19/2013  02:37:00      -86.965       11.109       -4.472       10.096        9.913        5.820      101.932       98.261       33.875        0.397        0.012       87.672        2.914        0.001      344.993       22.209      862.714
08/19/2013  02:38:00      -94.052       16.901       -6.524       25.074       19.961       12.743      628.709      398.453      162.395        0.518        0.059       95.559       12.681        0.018      344.913       22.069      862.704
08/19/2013  02:39:00      -91.045      -13.829       -6.730       27.088       29.880       14.342      733.765      892.786      205.698        0.518        0.092       92.089        9.012        0.010      344.847       21.957      862.693
08/19/2013  02:40:00      -95.366      -53.440        1.395       36.950       27.581       19.479     1365.300      760.721      379.438        0.723        0.125      109.318       17.751        0.026      344.793       21.865      862.698
08/19/2013  02:41:00      -96.212      -45.176       -0.674       30.898       24.195       18.322      954.708      585.401      335.700        0.659        0.094      106.291       14.714        0.019      344.766       21.817      862.704
08/19/2013  02:42:00      -72.042       -4.897       -0.054       41.898       37.536       19.158     1755.469     1408.948      367.037        0.437        0.177       72.209       20.483        0.080      344.792       21.863      862.701
08/19/2013  02:43:00      -77.763       22.509       -4.730       39.562       21.721       17.530     1565.127      471.803      307.314        0.446        0.117       80.955       17.402        0.046      344.668       21.650      862.710
08/19/2013  02:44:00      -63.258       39.158       -1.972       33.370       19.294       20.313     1113.538      372.253      412.630        0.372        0.095       74.398       19.022        0.065      344.669       21.651      862.713
08/19/2013  02:45:00      -90.327       35.701       -4.172       26.120       19.918       17.937      682.235      396.746      321.738        0.543        0.070       97.126       15.793        0.026      344.790       21.858      862.696
08/19/2013  02:46:00     -105.586        6.197       -9.175       27.706       25.367       16.339      767.613      643.502      266.952        0.647        0.084      105.768       13.558        0.016      344.829       21.925      862.672
08/19/2013  02:47:00     -121.182      -16.846      -14.835       33.144       30.989       20.421     1098.528      960.309      417.015        0.883        0.124      122.348       20.083        0.027      344.796       21.868      862.656
08/19/2013  02:48:00     -157.348      -25.420      -13.448       34.786       24.465       20.351     1210.084      598.541      414.154        1.390        0.111      159.388       21.279        0.018      344.782       21.844      862.646
08/19/2013  02:49:00     -134.345      -25.065       -0.390       38.131       37.484       22.442     1454.004     1405.039      503.629        1.102        0.168      136.663       21.978        0.026      344.767       21.819      862.635
08/19/2013  02:50:00     -129.293      -22.227       -5.519       30.774       26.012       18.448      947.031      676.626      340.317        0.960        0.098      131.190       19.392        0.022      344.770       21.825      862.628
08/19/2013  02:51:00      -83.717      -23.481       -4.772       25.862       18.946       13.129      668.846      358.960      172.365        0.439        0.060       86.948        9.176        0.011      344.757       21.800      862.630
08/19/2013  02:52:00      -92.061       -6.599       -8.691       20.831       17.687       13.775      433.931      312.843      189.742        0.477        0.047       92.297       13.995        0.023      344.781       21.843      862.637
08/19/2013  02:53:00      -98.715      -10.970      -15.565       22.326       19.832       14.794      498.472      393.291      218.866        0.561        0.056       99.323       12.675        0.016      344.721       21.739      862.633
08/19/2013  02:54:00      -67.305      -15.391       -3.498       17.445       17.893       12.719      304.314      320.166      161.785        0.278        0.039       69.042        7.992        0.013      344.750       21.789      862.638
08/19/2013  02:55:00      -58.320      -19.491       -1.222       18.596       16.713       14.565      345.825      279.330      212.142        0.231        0.042       61.491        9.311        0.023      344.789       21.859      862.651
08/19/2013  02:56:00      -27.926      -30.983       -1.350       23.893       25.554       12.434      570.883      653.032      154.605        0.156        0.069       41.711       10.759        0.067      344.808       21.887      862.666
08/19/2013  02:57:00       -4.760      -24.632       -5.304       13.996       14.664        8.492      195.889      215.039       72.108        0.057        0.024       25.088        5.116        0.042      344.875       22.003      862.673
08/19/2013  02:58:00       -8.533      -37.951       -5.073       11.682       14.074        9.557      136.470      198.074       91.327        0.098        0.021       38.899        8.002        0.042      345.032       22.273      862.677
08/19/2013  02:59:00      -55.496      -23.758       -7.989       22.400       12.451        9.328      501.738      155.028       87.012        0.223        0.037       60.368       10.405        0.030      345.025       22.263      862.691
08/19/2013  03:00:00     -103.253      -40.396       -9.772       18.181       12.100        9.284      330.559      146.414       86.186        0.648        0.028      110.874        5.165        0.002      344.979       22.182      862.694
08/19/2013  03:01:00     -119.707      -53.510       -7.845       13.386       12.183       10.578      179.177      148.423      111.889        0.885        0.022      131.122        6.858        0.003      344.927       22.090      862.692
08/19/2013  03:02:00      -73.400      -60.193       -3.066       31.987       23.541       19.502     1023.148      554.187      380.343        0.549        0.098       94.925        9.350        0.010      344.851       21.963      862.694
08/19/2013  03:03:00      -32.702      -35.222        7.802       35.686       33.236       22.191     1273.503     1104.650      492.428        0.262        0.144       48.063       23.910        0.247      344.827       21.922      862.698
08/19/2013  03:04:00      -61.816      -33.962       -2.398       36.988       15.609       13.620     1368.096      243.643      185.495        0.339        0.090       70.531        6.890        0.010      344.914       22.070      862.708
08/19/2013  03:05:00      -38.852      -25.892       -1.127       18.879       14.450       14.170      356.433      208.808      200.792        0.147        0.038       46.689        9.806        0.044      344.919       22.080      862.716
08/19/2013  03:06:00      -57.636      -32.073       -7.025       13.806       12.308       11.316      190.606      151.484      128.055        0.243        0.024       65.960        8.478        0.017      344.996       22.212      862.718
08/19/2013  03:07:00       -4.977      -26.306        4.971       23.078       18.488       15.301      532.590      341.798      234.109        0.092        0.055       26.773       12.599        0.221      344.969       22.164      862.724
08/19/2013  03:08:00      -39.464      -62.329        7.902       45.817       42.596       26.474     2099.194     1814.449      700.853        0.506        0.231       73.772       27.289        0.137      344.917       22.075      862.724
08/19/2013  03:09:00     -117.307     -103.441      -10.059       28.603       32.309       20.448      818.135     1043.900      418.141        1.342        0.114      156.400       19.614        0.016      344.919       22.080      862.711
08/19/2013  03:10:00     -130.781      -51.997       -9.486       27.111       32.101       19.163      735.023     1030.473      367.236        1.101        0.107      140.739       10.843        0.006      344.924       22.087      862.702
08/19/2013  03:11:00     -124.447      -25.423      -15.146       39.521       29.171       21.753     1561.894      850.938      473.186        0.962        0.144      127.017       22.958        0.033      344.930       22.099      862.676
08/19/2013  03:12:00     -111.260      -15.690       -8.194       50.882       22.581       18.301     2588.949      509.916      334.933        0.806        0.172      112.361       18.048        0.026      344.880       22.013      862.656
08/19/2013  03:13:00      -92.991      -50.001       -4.031       57.335       44.655       25.872     3287.347     1994.065      669.357        0.856        0.298      105.581       29.665        0.079      344.844       21.952      862.641
08/19/2013  03:14:00      -75.489      -83.766        3.369       64.732       50.973       29.050     4190.239     2598.268      843.900        1.018        0.382      112.762       32.621        0.084      344.838       21.942      862.638
08/19/2013  03:15:00      -99.925      -72.345        1.653       67.760       45.414       32.118     4591.370     2062.447     1031.560        1.145        0.384      123.364       37.960        0.095      344.856       21.972      862.656
08/19/2013  03:16:00      -49.711      -60.349       10.165       48.748       31.101       22.667     2376.343      967.260      513.799        0.504        0.193       78.187       26.046        0.111      344.868       21.992      862.677
08/19/2013  03:17:00      -64.007      -25.159        0.617       26.220       21.304       15.344      687.504      453.840      235.442        0.305        0.069       68.774        9.810        0.020      344.889       22.029      862.698
08/19/2013  03:18:00       -3.960      -22.900       11.681       31.379       18.102       11.111      984.661      327.689      123.455        0.106        0.072       23.240       13.597        0.342      344.953       22.137      862.718
08/19/2013  03:19:00       -0.431       -8.145       22.280       21.193       11.641       11.989      449.157      135.522      143.730        0.065        0.036        8.156       13.210        2.623      344.891       22.033      862.752
08/19/2013  03:20:00       -0.182      -12.038       10.981        7.069       10.037        6.266       49.968      100.737       39.266        0.023        0.009       12.039        2.383        0.039      344.857       21.974      862.779
08/19/2013  03:21:00        7.851      -14.572       -0.457       11.310        9.067       11.161      127.915       82.218      124.569        0.030        0.017       16.552        8.943        0.292      344.753       21.796      862.805
08/19/2013  03:22:00      -56.259      -22.251       -4.993       32.884       14.767        8.459     1081.370      218.060       71.557        0.253        0.069       60.499        8.739        0.021      344.985       22.192      862.798
08/19/2013  03:23:00     -111.515      -56.608       -3.619       27.566       24.733       16.939      759.881      611.731      286.929        0.866        0.083      125.060       11.780        0.009      344.968       22.165      862.784
08/19/2013  03:24:00     -123.877      -47.945       -5.845       26.109       17.722       10.561      681.677      314.069      111.525        0.939        0.055      132.831        7.864        0.004      344.923       22.085      862.775
08/19/2013  03:25:00      -96.480      -25.310       -7.921       28.795       21.155       14.004      829.168      447.526      196.118        0.574        0.074       99.744       12.474        0.016      344.919       22.079      862.782
08/19/2013  03:26:00      -73.392      -28.605       -5.394       15.547       12.901       13.205      241.720      166.431      174.380        0.341        0.029       78.770       10.982        0.019      344.943       22.119      862.802
08/19/2013  03:27:00      -25.891      -23.107       -0.817       16.404       11.916        9.628      269.082      141.991       92.702        0.085        0.025       34.703        8.197        0.056      344.979       22.183      862.818
08/19/2013  03:28:00      -29.278      -10.310       -2.566        9.646       12.824        7.676       93.037      164.444       58.918        0.064        0.016       31.040        7.102        0.052      345.042       22.291      862.833
08/19/2013  03:29:00      -52.233      -13.520       -6.319       10.085        9.230        6.116      101.713       85.194       37.403        0.159        0.011       53.954        4.057        0.006      345.046       22.300      862.830
08/19/2013  03:30:00      -68.417      -13.856       -8.206       13.863       14.419        9.981      192.179      207.900       99.622        0.272        0.025       69.806       10.646        0.023      345.093       22.378      862.821
08/19/2013  03:31:00      -54.230      -13.333      -10.269       18.030       11.063       12.070      325.091      122.392      145.685        0.191        0.030       55.845       10.238        0.034      345.031       22.270      862.809
08/19/2013  03:32:00      -49.609      -24.905       -5.359       11.399       13.093        7.581      129.928      171.419       57.474        0.173        0.018       55.509        3.262        0.003      345.058       22.317      862.790
08/19/2013  03:33:00      -68.514      -20.901      -14.007       17.189       13.680        9.102      295.450      187.139       82.853        0.295        0.028       71.631        9.004        0.016      344.967       22.162      862.780
08/19/2013  03:34:00      -55.334      -22.628       -7.795       16.653       15.840       11.001      277.333      250.904      121.011        0.214        0.032       59.782        9.492        0.025      345.005       22.228      862.769
08/19/2013  03:35:00      -74.785      -14.547      -11.869       23.237       23.053       12.014      539.968      531.441      144.340        0.358        0.061       76.187       10.976        0.021      344.973       22.172      862.757
08/19/2013  03:36:00      -79.050      -26.464      -12.803       24.835       24.664       18.219      616.780      608.311      331.932        0.433        0.078       83.362       12.252        0.022      344.963       22.156      862.742
08/19/2013  03:37:00     -100.542       -6.162       -9.903       17.286       21.207       14.308      298.802      449.738      204.725        0.560        0.048      100.730        9.453        0.009      344.948       22.130      862.730
08/19/2013  03:38:00      -83.669       -9.158       -4.349       30.562       28.989       17.992      934.033      840.366      323.719        0.460        0.105       84.169       17.782        0.045      344.841       21.946      862.723
08/19/2013  03:39:00      -44.492       -2.766       10.525       23.992       31.130       20.994      575.605      969.059      440.755        0.204        0.099       44.578       15.159        0.116      344.814       21.900      862.727
08/19/2013  03:40:00      -78.698       -7.648       -4.773       21.017       16.987       13.845      441.723      288.546      191.697        0.360        0.046       79.069       11.664        0.022      344.947       22.128      862.736
08/19/2013  03:41:00      -60.736      -25.666        0.235       22.278       20.296       10.309      496.298      411.935      106.271        0.268        0.051       65.936       10.886        0.027      345.022       22.255      862.748
08/19/2013  03:42:00      -30.130       -9.981        0.359       23.150       21.711       10.099      535.929      471.375      101.998        0.106        0.055       31.740       12.085        0.145      345.018       22.250      862.747
08/19/2013  03:43:00      -37.403       -8.279        2.115       18.148       17.327        9.238      329.337      300.218       85.348        0.109        0.036       38.308        8.326        0.047      344.982       22.188      862.742
08/19/2013  03:44:00      -32.337       -5.334        3.458       12.105       13.309       11.207      146.537      177.132      125.605        0.077        0.022       32.774        6.694        0.042      345.008       22.232      862.736
08/19/2013  03:45:00      -65.452      -22.045       -1.735       20.110       15.178        8.350      404.431      230.366       69.727        0.274        0.035       69.065        8.137        0.014      345.080       22.358      862.730
08/19/2013  03:46:00     -102.636      -29.884       -4.590       19.436       15.409       10.541      377.746      237.426      111.105        0.609        0.036      106.898        6.612        0.004      345.095       22.381      862.711
08/19/2013  03:47:00     -127.127      -40.133       -3.886       15.031       18.679       10.255      225.918      348.916      105.161        0.923        0.034      133.311        3.323        0.001      345.062       22.326      862.679
08/19/2013  03:48:00     -104.596      -15.279       -0.775       40.980       25.890       17.604     1679.324      670.299      309.885        0.692        0.133      105.706       15.766        0.022      345.021       22.254      862.647
08/19/2013  03:49:00     -103.297      -15.941       -4.952       40.759       37.130       20.596     1661.315     1378.629      424.193        0.721        0.173      104.520       14.976        0.021      345.025       22.261      862.617
08/19/2013  03:50:00     -108.085      -46.951       -0.948       33.914       27.642       20.340     1150.151      764.079      413.729        0.811        0.116      117.842       18.226        0.024      345.001       22.221      862.595
08/19/2013  03:51:00     -113.513      -45.370       -4.807       25.249       20.009       12.686      637.495      400.349      160.935        0.808        0.060      122.245       11.052        0.008      345.110       22.407      862.584
08/19/2013  03:52:00     -104.688      -32.997       -2.261       27.121       26.655       13.890      735.542      710.495      192.925        0.685        0.082      109.765       12.622        0.013      345.079       22.354      862.593
08/19/2013  03:53:00      -84.057      -16.069       -2.445       25.300       20.498       15.082      640.087      420.148      227.470        0.431        0.064       85.579       10.966        0.016      345.098       22.386      862.592
08/19/2013  03:54:00      -95.036      -32.813       -1.345       22.434       17.109       16.631      503.288      292.723      276.595        0.559        0.054      100.541        7.269        0.005      345.067       22.334      862.590
08/19/2013  03:55:00     -113.365      -45.722       -8.451       14.938       18.616       11.688      223.148      346.560      136.610        0.786        0.035      122.238        5.402        0.002      345.040       22.288      862.591
08/19/2013  03:56:00      -67.549      -52.814       -2.245       24.079       19.265       16.582      579.777      371.159      274.965        0.429        0.061       85.745       12.084        0.020      345.012       22.239      862.589
08/19/2013  03:57:00      -58.757      -56.150        3.850       41.571       33.554       18.326     1728.145     1125.865      335.857        0.490        0.159       81.272       19.661        0.059      344.974       22.175      862.583
08/19/2013  03:58:00      -41.533      -47.755        3.876       49.449       28.550       23.029     2445.243      815.085      530.317        0.390        0.190       63.289       23.727        0.141      344.969       22.167      862.570
08/19/2013  03:59:00      -22.931      -42.374        9.256       46.340       28.566       20.664     2147.416      815.992      427.017        0.290        0.170       48.181       20.071        0.174      344.936       22.110      862.568
08/19/2013  04:00:00      -55.771      -64.998       -0.554       44.597       28.253       22.237     1988.885      798.242      494.499        0.531        0.164       85.645       22.889        0.071      344.945       22.123      862.560
08/19/2013  04:01:00      -52.065      -71.683       -0.681       44.659       40.370       26.495     1994.444     1629.739      701.986        0.609        0.216       88.596       22.290        0.063      344.976       22.177      862.552
08/19/2013  04:02:00      -52.087      -68.277        0.034       32.067       32.777       22.411     1028.319     1074.300      502.250        0.499        0.130       85.877       14.033        0.027      345.060       22.322      862.536
08/19/2013  04:03:00      -48.460      -57.658        8.951       51.831       45.769       23.429     2686.459     2094.810      548.901        0.554        0.267       75.318       18.714        0.062      345.062       22.326      862.515
08/19/2013  04:04:00      -88.520      -56.124        3.190       41.415       40.787       27.084     1715.221     1663.579      733.546        0.755        0.206      104.813       23.331        0.050      345.023       22.258      862.498
08/19/2013  04:05:00     -102.212      -69.150        7.864       54.208       53.084       31.686     2938.465     2817.933     1004.001        1.102        0.338      123.406       24.191        0.038      345.069       22.336      862.480
08/19/2013  04:06:00     -118.656      -86.829       -2.944       50.989       58.923       31.330     2599.829     3471.896      981.542        1.434        0.353      147.032       33.141        0.051      344.999       22.216      862.469
08/19/2013  04:07:00     -133.092     -115.290        1.006       85.852       62.431       35.845     7370.561     3897.684     1284.877        2.178        0.628      176.083       44.346        0.063      344.943       22.119      862.472
08/19/2013  04:08:00     -178.385     -132.817      -14.002       57.053       55.276       35.652     3255.078     3055.411     1271.048        2.862        0.379      222.400       30.324        0.019      344.837       21.935      862.465
08/19/2013  04:09:00     -161.650     -122.914      -13.594       42.999       40.907       30.238     1848.945     1673.398      914.366        2.293        0.222      203.073       21.041        0.011      344.852       21.962      862.463
08/19/2013  04:10:00     -112.310      -81.448       -6.970       46.798       36.733       23.635     2190.046     1349.327      558.593        1.170        0.205      138.735       22.339        0.026      344.909       22.063      862.468
08/19/2013  04:11:00      -95.486      -65.996      -12.130       26.238       31.026       15.711      688.438      962.594      246.832        0.776        0.095      116.073       13.405        0.013      344.883       22.019      862.481
08/19/2013  04:12:00      -90.262      -70.605      -10.656       33.363       43.865       19.856     1113.058     1924.163      394.267        0.834        0.172      114.596        7.569        0.004      344.890       22.030      862.498
08/19/2013  04:13:00     -129.174      -73.138      -12.710       39.311       36.938       29.881     1545.374     1364.452      892.870        1.300        0.190      148.442       21.296        0.021      344.878       22.009      862.503
08/19/2013  04:14:00     -137.470      -78.652       -7.836       28.353       35.313       22.969      803.888     1246.996      527.585        1.386        0.129      158.379       17.841        0.013      344.888       22.027      862.510
08/19/2013  04:15:00     -158.997      -90.213      -17.255       30.482       33.449       20.546      929.182     1118.845      422.122        1.809        0.124      182.807       13.525        0.005      344.841       21.945      862.501
08/19/2013  04:16:00     -127.557      -64.189       -8.320       42.980       35.189       26.389     1847.292     1238.257      696.356        1.212        0.189      142.797       14.305        0.010      344.797       21.871      862.505
08/19/2013  04:17:00      -78.698      -79.004       -2.214       32.367       24.959       20.925     1047.632      622.940      437.869        0.727        0.105      111.513       14.990        0.018      344.846       21.954      862.512
08/19/2013  04:18:00     -106.508      -80.854      -17.885       22.541       20.312       15.347      508.086      412.582      235.525        0.968        0.058      133.721        9.456        0.005      344.912       22.070      862.511
08/19/2013  04:19:00      -70.472      -65.213       -0.538       41.451       28.570       22.772     1718.154      816.244      518.572        0.614        0.153       96.016       23.342        0.059      344.920       22.080      862.504
08/19/2013  04:20:00     -115.595      -50.256       -3.513       32.275       28.307       14.372     1041.702      801.307      206.558        0.897        0.102      126.047       12.349        0.010      344.907       22.061      862.485
08/19/2013  04:21:00      -71.129      -65.275        0.654       28.772       20.495       18.431      827.804      420.043      339.714        0.545        0.079       96.541       20.163        0.044      344.896       22.040      862.469
08/19/2013  04:22:00      -35.097      -30.764       10.934       31.594       24.864       17.953      998.195      618.229      322.320        0.212        0.097       46.671       16.429        0.124      344.835       21.935      862.455
08/19/2013  04:23:00      -29.469      -49.384        6.028       36.351       33.724       21.316     1321.423     1137.338      454.377        0.313        0.146       57.509       21.991        0.146      344.850       21.961      862.448
08/19/2013  04:24:00      -61.401      -71.025        0.702       30.065       29.853       15.485      903.922      891.219      239.782        0.542        0.102       93.886       16.016        0.029      344.840       21.945      862.450
08/19/2013  04:25:00     -121.482     -107.600       -8.237       35.896       34.005       22.909     1288.523     1156.357      524.801        1.469        0.148      162.282       19.176        0.014      344.832       21.932      862.442
08/19/2013  04:26:00     -130.213      -92.419       -3.822       48.485       48.219       26.143     2350.796     2325.074      683.476        1.543        0.268      159.677       23.067        0.021      344.791       21.861      862.425
08/19/2013  04:27:00     -141.340      -81.710       -1.879       44.463       41.497       30.046     1976.945     1722.004      902.758        1.563        0.230      163.259       27.106        0.028      344.779       21.840      862.414
08/19/2013  04:28:00     -113.476      -84.393       -4.630       50.693       38.684       32.405     2569.759     1496.489     1050.056        1.257        0.256      141.418       31.042        0.048      344.780       21.841      862.412
08/19/2013  04:29:00      -83.333      -61.961       -0.454       46.567       30.167       20.995     2168.463      910.036      440.770        0.715        0.176      103.844       20.719        0.040      344.809       21.891      862.426
08/19/2013  04:30:00      -95.090      -43.474      -11.988       26.302       25.088       15.665      691.815      629.408      245.403        0.632        0.078      104.557        7.529        0.005      344.835       21.935      862.435
08/19/2013  04:31:00     -119.741       -4.943      -13.166       16.705       25.050       12.726      279.047      627.486      161.939        0.780        0.053      119.843       10.333        0.007      344.718       21.735      862.444
08/19/2013  04:32:00     -141.732        5.309      -23.929       29.856       21.216       14.674      891.369      450.116      215.328        1.112        0.078      141.831        9.715        0.005      344.536       21.424      862.446
08/19/2013  04:33:00     -159.653       -1.666      -13.050       50.591       30.623       26.959     2559.438      937.772      726.800        1.494        0.211      159.662       32.183        0.041      344.468       21.307      862.439
08/19/2013  04:34:00     -120.747      -12.511       -0.460       42.065       34.057       23.749     1769.498     1159.851      564.017        0.911        0.175      121.393       22.081        0.033      344.470       21.312      862.445
08/19/2013  04:35:00      -93.915      -15.736       -2.397       37.741       33.307       22.163     1424.409     1109.342      491.179        0.605        0.151       95.224       22.264        0.055      344.475       21.321      862.448
08/19/2013  04:36:00     -147.729       -3.869      -10.325       37.846       24.417       14.754     1432.338      596.213      217.691        1.210        0.112      147.779       14.789        0.010      344.552       21.452      862.445
08/19/2013  04:37:00     -154.870      -10.914      -17.061       37.844       15.688       13.615     1432.131      246.125      185.356        1.313        0.093      155.254       14.460        0.009      344.618       21.565      862.443
08/19/2013  04:38:00     -132.867      -37.917       -3.366       24.165       33.574       14.606      583.948     1127.201      213.323        1.051        0.096      138.171       11.300        0.007      344.597       21.531      862.455
08/19/2013  04:39:00      -72.318      -24.532       -2.040       42.652       42.567       16.800     1819.220     1811.958      282.252        0.487        0.196       76.366       14.660        0.037      344.557       21.461      862.475
08/19/2013  04:40:00      -99.388      -19.110       -5.904       47.743       31.206       22.788     2279.363      973.820      519.295        0.702        0.189      101.209       26.366        0.068      344.547       21.443      862.479
08/19/2013  04:41:00      -96.217      -21.158       -2.096       43.830       29.606       20.609     1921.068      876.502      424.721        0.647        0.161       98.516       21.071        0.046      344.557       21.460      862.477
08/19/2013  04:42:00      -99.933      -16.107       -5.707       36.454       29.398       21.360     1328.929      864.227      456.245        0.646        0.132      101.223       18.939        0.035      344.486       21.338      862.479
08/19/2013  04:43:00     -128.991      -14.224      -14.153       34.379       25.985       17.826     1181.885      675.231      317.768        0.961        0.109      129.773       14.160        0.012      344.523       21.402      862.483
08/19/2013  04:44:00     -107.144      -32.828       -6.343       30.385       31.853       15.792      923.274     1014.609      249.382        0.739        0.109      112.061       10.418        0.009      344.511       21.381      862.474
08/19/2013  04:45:00      -79.220      -12.355       -1.185       34.930       30.720       20.440     1220.123      943.690      417.773        0.451        0.129       80.178       19.146        0.057      344.457       21.289      862.474
08/19/2013  04:46:00      -79.763      -23.564       -6.834       22.567       21.092       13.604      509.256      444.856      185.065        0.405        0.057       83.171       11.994        0.021      344.527       21.409      862.483
08/19/2013  04:47:00      -72.741      -45.319       -5.527       19.105       17.431       12.571      364.999      303.829      158.037        0.410        0.041       85.704        9.791        0.013      344.581       21.502      862.499
08/19/2013  04:48:00      -70.141      -26.507       -8.764       20.324       12.325       12.284      413.068      151.897      150.905        0.321        0.036       74.982       11.301        0.023      344.587       21.511      862.517
08/19/2013  04:49:00      -35.386      -39.518       -4.143       19.630       13.326        8.026      385.346      177.582       64.420        0.173        0.031       53.045        4.866        0.008      344.635       21.594      862.526
08/19/2013  04:50:00      -12.529      -32.677        2.894       20.495       14.560       10.595      420.051      212.005      112.251        0.099        0.037       34.996        8.467        0.059      344.677       21.668      862.525
08/19/2013  04:51:00      -25.555      -26.966       -5.982       10.674       14.092        7.703      113.929      198.587       59.334        0.089        0.019       37.151        8.255        0.049      344.719       21.738      862.526
08/19/2013  04:52:00      -52.379      -31.078       -7.914       16.834       11.925       11.150      283.391      142.211      124.326        0.216        0.027       60.905        5.235        0.007      344.809       21.892      862.524
08/19/2013  04:53:00      -87.120      -28.978      -10.178       12.536       13.543       11.075      157.147      183.412      122.647        0.450        0.023       91.813        8.326        0.008      344.777       21.837      862.507
08/19/2013  04:54:00      -96.743      -44.958      -13.046       12.424       12.650        8.894      154.361      160.030       79.106        0.597        0.020      106.679        1.778        0.000      344.769       21.821      862.484
08/19/2013  04:55:00      -98.386      -68.017       -8.949       21.521       13.235       12.857      463.161      175.170      165.311        0.759        0.040      119.608       11.691        0.010      344.755       21.798      862.466
08/19/2013  04:56:00      -63.730      -55.988       -1.745       22.422       17.319       13.795      502.744      299.941      190.303        0.410        0.050       84.830        6.444        0.006      344.709       21.719      862.452
08/19/2013  04:57:00       -5.510      -33.798        4.136       11.549       29.992       16.262      133.375      899.525      264.442        0.124        0.065       34.245       16.732        0.239      344.685       21.677      862.451
08/19/2013  04:58:00       -7.810      -55.253       -7.252       17.918       20.475       10.940      321.063      419.217      119.677        0.201        0.043       55.802        9.705        0.030      344.746       21.782      862.458
08/19/2013  04:59:00      -44.699      -47.926       -0.033       28.050       25.053       17.091      786.800      627.674      292.091        0.300        0.085       65.536       17.323        0.070      344.801       21.878      862.452
08/19/2013  05:00:00      -62.246      -43.055        0.040       13.635       14.716        9.097      185.917      216.551       82.752        0.311        0.024       75.686        6.075        0.006      344.818       21.906      862.450
08/19/2013  05:01:00      -36.615      -34.745        1.961       23.181       18.535       12.069      537.374      343.541      145.668        0.179        0.051       50.477        7.831        0.024      344.765       21.815      862.445
08/19/2013  05:02:00      -39.669      -44.328       -0.138       20.979       20.945       16.080      440.113      438.682      258.554        0.234        0.057       59.486       13.963        0.055      344.791       21.862      862.449
08/19/2013  05:03:00      -25.290      -12.062       -2.615       22.131       12.485       11.428      489.784      155.869      130.593        0.078        0.039       28.020       12.887        0.212      344.780       21.843      862.464
08/19/2013  05:04:00      -19.641      -33.875        4.833       22.480       20.926       15.802      505.365      437.904      249.718        0.137        0.060       39.157       11.501        0.086      344.781       21.843      862.471
08/19/2013  05:05:00      -53.380      -46.654        6.031       29.790       32.770       24.665      887.453     1073.848      608.344        0.382        0.128       70.895       23.921        0.114      344.779       21.840      862.479
08/19/2013  05:06:00      -52.012      -64.527        1.494       39.063       36.865       24.833     1525.889     1359.001      616.678        0.519        0.175       82.880       25.754        0.097      344.730       21.757      862.480
08/19/2013  05:07:00      -85.463      -58.911        1.392       44.377       31.855       31.805     1969.331     1014.748     1011.563        0.739        0.200      103.799       21.269        0.042      344.597       21.528      862.479
08/19/2013  05:08:00     -108.615      -59.483       -7.836       40.488       40.599       31.867     1639.239     1648.246     1015.523        0.985        0.215      123.836       15.460        0.016      344.563       21.471      862.474
08/19/2013  05:09:00     -141.435     -108.585       -1.003       44.681       40.838       27.348     1996.375     1667.715      747.908        1.810        0.221      178.310       16.022        0.008      344.534       21.421      862.461
08/19/2013  05:10:00     -149.615      -72.327        4.944       55.921       44.365       27.973     3127.169     1968.256      782.500        1.676        0.294      166.180       22.029        0.018      344.533       21.418      862.449
08/19/2013  05:11:00     -125.112      -90.411       -0.629       54.314       44.982       33.642     2950.058     2023.367     1131.769        1.497        0.305      154.360       37.000        0.057      344.518       21.392      862.437
08/19/2013  05:12:00     -161.281     -104.701       -4.228       40.595       46.676       30.011     1647.991     2178.651      900.630        2.086        0.236      192.286       24.639        0.016      344.524       21.403      862.425
08/19/2013  05:13:00     -144.876     -108.403       -8.211       47.092       38.414       32.200     2217.616     1475.629     1036.861        1.877        0.237      180.942       23.339        0.017      344.478       21.323      862.414
08/19/2013  05:14:00     -166.408     -129.487      -14.616       48.655       37.594       27.236     2367.309     1413.341      741.805        2.460        0.226      210.852       25.740        0.015      344.483       21.329      862.414
08/19/2013  05:15:00     -162.657     -114.826       -7.163       42.209       35.802       28.727     1781.609     1281.801      825.227        2.179        0.194      199.104       22.787        0.013      344.454       21.281      862.410
08/19/2013  05:16:00     -173.635     -114.869      -16.009       49.076       43.263       34.122     2408.486     1871.649     1164.339        2.452        0.272      208.192       30.375        0.021      344.397       21.184      862.408
08/19/2013  05:17:00     -139.422      -88.317      -13.239       61.827       50.451       34.821     3822.583     2545.291     1212.469        1.750        0.379      165.041       35.734        0.047      344.356       21.114      862.404
08/19/2013  05:18:00     -152.086      -90.348       -9.342       64.532       55.924       38.099     4164.353     3127.492     1451.507        2.006        0.437      176.898       35.020        0.039      344.320       21.054      862.403
08/19/2013  05:19:00     -156.420     -114.768       -3.133       64.746       55.914       38.881     4191.985     3126.358     1511.709        2.324        0.442      194.007       34.480        0.032      344.324       21.058      862.411
08/19/2013  05:20:00     -150.149     -112.195       -5.142       64.917       58.589       28.092     4214.207     3432.633      789.143        2.180        0.422      187.437       31.085        0.028      344.317       21.047      862.406
08/19/2013  05:21:00     -166.715      -99.055       -7.783       64.765       45.696       30.716     4194.500     2088.132      943.493        2.245        0.361      193.922       35.788        0.034      344.362       21.125      862.393
08/19/2013  05:22:00     -116.328      -79.988        1.364       61.463       48.017       32.593     3777.733     2305.588     1062.316        1.354        0.357      141.175       34.225        0.059      344.359       21.120      862.371
08/19/2013  05:23:00     -100.079      -80.433       -3.394       44.152       42.348       20.449     1949.423     1793.315      418.177        1.033        0.208      128.395       20.604        0.026      344.413       21.215      862.371
08/19/2013  05:24:00     -125.145      -82.268       -0.858       41.782       37.685       30.235     1745.730     1420.187      914.140        1.325        0.204      149.765       23.006        0.024      344.444       21.265      862.366
08/19/2013  05:25:00      -71.205      -67.562        0.423       58.366       40.103       31.282     3406.586     1608.285      978.559        0.781        0.300       98.156       29.762        0.092      344.444       21.266      862.359
08/19/2013  05:26:00      -89.271      -73.176        5.565       40.052       43.084       23.696     1604.192     1856.246      561.518        0.869        0.201      115.430       21.983        0.036      344.390       21.173      862.355
08/19/2013  05:27:00     -154.307      -20.772        2.025       57.043       39.741       28.816     3253.934     1579.308      830.374        1.495        0.283      155.699       28.967        0.035      344.333       21.075      862.359
08/19/2013  05:28:00     -114.006      -33.593       -7.175       44.066       42.754       22.483     1941.782     1827.863      505.470        0.923        0.214      118.852       17.055        0.021      344.461       21.294      862.366
08/19/2013  05:29:00     -111.066      -34.723        3.528       49.421       36.195       26.866     2442.462     1310.107      721.808        0.901        0.224      116.368       27.845        0.057      344.443       21.265      862.366
08/19/2013  05:30:00     -104.189      -20.839       -0.074       49.208       28.286       24.320     2421.432      800.103      591.467        0.755        0.191      106.252       26.275        0.061      344.431       21.245      862.371
08/19/2013  05:31:00      -79.631      -44.424        3.561       35.610       19.361       15.847     1268.093      374.850      251.112        0.511        0.095       91.185       16.296        0.032      344.432       21.248      862.375
08/19/2013  05:32:00      -80.943      -28.151       -0.603       28.424       16.624       13.318      807.923      276.343      177.371        0.430        0.063       85.699       16.030        0.035      344.448       21.274      862.379
08/19/2013  05:33:00      -78.877      -37.912       -3.722       12.097       14.353        7.830      146.341      206.016       61.304        0.404        0.021       87.516        4.381        0.003      344.524       21.405      862.381
08/19/2013  05:34:00      -76.728      -40.134       -7.081        8.265       11.916        7.769       68.317      141.980       60.356        0.391        0.014       86.590        4.608        0.003      344.584       21.505      862.382
08/19/2013  05:35:00      -38.318      -34.732        1.062       29.516       16.958       13.956      871.168      287.588      194.759        0.201        0.068       51.716        5.874        0.013      344.639       21.598      862.363
08/19/2013  05:36:00      -14.432      -16.038       -2.154       20.552       17.505       12.221      422.396      306.429      149.348        0.067        0.044       21.576        7.702        0.127      344.592       21.521      862.360
08/19/2013  05:37:00      -21.141      -13.456        7.623       20.983       10.728       12.217      440.292      115.089      149.256        0.070        0.035       25.060       12.022        0.230      344.589       21.517      862.350
08/19/2013  05:38:00      -46.466      -33.121       -1.451       27.184       24.525       14.898      738.981      601.486      221.953        0.241        0.078       57.062       12.846        0.051      344.524       21.405      862.352
08/19/2013  05:39:00      -31.055      -16.450       11.869       30.521       26.189       13.958      931.523      685.880      194.815        0.159        0.091       35.143       13.987        0.158      344.447       21.271      862.367
08/19/2013  05:40:00      -49.640      -29.800       -5.208       26.701       16.964       14.063      712.918      287.779      197.759        0.229        0.060       57.898        8.206        0.020      344.514       21.386      862.383
08/19/2013  05:41:00      -29.116      -14.491        9.802       30.732       26.019       14.115      944.442      676.993      199.244        0.149        0.091       32.523       17.790        0.299      344.413       21.214      862.400
08/19/2013  05:42:00      -51.977      -12.583        0.803       11.746       19.661       11.333      137.961      386.555      128.430        0.176        0.033       53.478        9.019        0.028      344.408       21.206      862.422
08/19/2013  05:43:00      -28.228        0.021       -1.113       26.653       12.184       12.549      710.361      148.446      157.483        0.091        0.051       28.228        9.981        0.125      344.326       21.064      862.443
08/19/2013  05:44:00       25.008       -2.971       17.535       32.131       24.107       17.614     1032.393      581.162      310.241        0.143        0.096       25.184       14.782        0.345      343.943       20.411      862.460
08/19/2013  05:45:00       21.668       -3.543        9.498       15.083       10.863       15.195      227.489      118.007      230.876        0.057        0.029       21.956       10.422        0.225      344.159       20.781      862.477
08/19/2013  05:46:00       56.826        0.018        9.340       27.366       21.002       25.782      748.880      441.103      664.729        0.259        0.093       56.826       19.294        0.115      344.139       20.747      862.502
08/19/2013  05:47:00       54.426        9.245       -0.203       25.801       23.649       22.815      665.689      559.262      520.544        0.240        0.087       55.206        8.253        0.022      344.299       21.019      862.530
08/19/2013  05:48:00       54.155        3.649        1.253       26.767       13.154       17.993      716.491      173.037      323.762        0.208        0.061       54.278        9.199        0.029      344.320       21.055      862.557
08/19/2013  05:49:00       24.169       -5.318        7.696       26.630       31.987       26.727      709.147     1023.138      714.307        0.156        0.122       24.748       13.963        0.318      343.871       20.288      862.572
08/19/2013  05:50:00       43.238      -25.601        5.914       29.724       27.560       27.570      883.526      759.527      760.104        0.248        0.120       50.249        6.803        0.018      343.910       20.356      862.587
08/19/2013  05:51:00        9.270      -14.425       -5.357       26.784       28.037       26.438      717.372      786.050      698.970        0.126        0.110       17.147       14.769        0.742      344.148       20.762      862.591
08/19/2013  05:52:00       29.290       31.068       -8.302       15.870       19.911       28.678      251.859      396.461      822.431        0.168        0.074       42.699       13.787        0.104      344.565       21.474      862.600
08/19/2013  05:53:00       27.559       21.623        1.670       19.473       28.693       34.079      379.194      823.276     1161.350        0.180        0.118       35.030       19.039        0.295      344.541       21.432      862.606
08/19/2013  05:54:00       57.666       42.957        6.776       26.127       22.532       26.330      682.610      507.709      693.285        0.355        0.094       71.908        7.272        0.010      344.146       20.759      862.617
08/19/2013  05:55:00       77.535       47.501        8.017       22.568       22.875       21.897      509.293      523.276      479.492        0.492        0.076       90.928        8.895        0.010      344.324       21.062      862.628
08/19/2013  05:56:00       76.834       47.673       19.545       22.256       19.829       25.311      495.352      393.178      640.663        0.504        0.076       90.422       16.277        0.032      344.267       20.964      862.639
08/19/2013  05:57:00       95.616       53.040        7.748       26.020       17.224       21.111      677.048      296.668      445.693        0.672        0.071      109.342       12.821        0.014      344.253       20.939      862.647
08/19/2013  05:58:00      104.742       49.505       18.216       30.437       27.883       24.715      926.385      777.462      610.853        0.803        0.116      115.852       13.565        0.014      344.233       20.906      862.659
08/19/2013  05:59:00       99.434       55.650       16.255       36.013       25.661       23.276     1296.966      658.472      541.768        0.787        0.125      113.948       14.566        0.016      344.280       20.987      862.668
08/19/2013  06:00:00       95.333       56.130       31.714       30.077       20.040       25.878      904.616      401.591      669.685        0.761        0.099      110.630       15.712        0.020      344.279       20.986      862.673
08/19/2013  06:01:00       97.799       68.358       14.878       37.330       29.744       24.204     1393.524      884.714      585.855        0.866        0.143      119.321       18.370        0.024      344.277       20.982      862.677
08/19/2013  06:02:00      107.796       81.191       25.515       44.070       23.767       27.169     1942.141      564.862      738.170        1.105        0.162      134.951       16.805        0.016      344.327       21.068      862.688
08/19/2013  06:03:00       67.427       58.020       13.150       34.148       22.368       18.344     1166.059      500.312      336.504        0.504        0.100       88.953       13.180        0.022      344.301       21.023      862.706
08/19/2013  06:04:00       92.834       62.846       15.778       39.131       33.458       28.121     1531.235     1119.459      790.777        0.813        0.172      112.105       18.920        0.028      344.268       20.966      862.710
08/19/2013  06:05:00       95.536       64.385       20.511       52.703       26.266       27.182     2777.640      689.891      738.861        0.895        0.210      115.206       18.998        0.027      344.279       20.986      862.718
08/19/2013  06:06:00       88.012       49.399       13.909       33.801       26.155       22.657     1142.480      684.104      513.338        0.636        0.117      100.927       13.480        0.018      344.268       20.965      862.727
08/19/2013  06:07:00       78.194       54.566       12.146       45.449       40.140       23.828     2065.648     1611.210      567.754        0.674        0.212       95.351       13.373        0.020      344.294       21.013      862.739
08/19/2013  06:08:00       74.599       52.486       18.247       33.657       22.782       21.659     1132.784      519.013      469.126        0.539        0.106       91.212       13.308        0.021      344.335       21.081      862.745
08/19/2013  06:09:00       58.125       31.118        4.145       14.036       11.162       12.626      196.997      124.596      159.408        0.242        0.024       65.930        8.612        0.017      344.331       21.074      862.760
08/19/2013  06:10:00       56.153       39.787        2.322       14.532       21.102        9.965      211.176      445.305       99.298        0.275        0.038       68.819        5.995        0.008      344.399       21.189      862.784
08/19/2013  06:11:00       45.091       32.563        8.076       14.422        9.164       12.271      207.990       83.986      150.571        0.180        0.022       55.619        6.677        0.014      344.377       21.155      862.801
08/19/2013  06:12:00       -4.691        2.951       14.461       16.398       11.112       11.200      268.891      123.472      125.449        0.038        0.026        5.542       10.448        3.555      344.417       21.220      862.824
08/19/2013  06:13:00      -20.819      -23.714       10.885       19.524       22.615       14.259      381.203      511.454      203.308        0.110        0.055       31.556       13.758        0.190      344.527       21.410      862.838
08/19/2013  06:14:00       14.775       11.616       21.908       25.355       29.292       19.497      642.876      857.994      380.141        0.136        0.094       18.794       22.182        1.393      344.628       21.582      862.861
08/19/2013  06:15:00        7.146      -58.303      -10.106       19.032       24.218       16.571      362.213      586.495      274.599        0.239        0.061       58.739       16.642        0.080      344.558       21.462      862.873
08/19/2013  06:16:00       54.641      -91.068       -7.146       25.136       19.162       17.580      631.808      367.164      309.042        0.632        0.065      106.203       13.222        0.015      344.476       21.322      862.889
08/19/2013  06:17:00       56.336      -73.143        9.822       25.281       33.574       21.483      639.133     1127.242      461.537        0.542        0.111       92.323       19.357        0.044      344.505       21.370      862.906
08/19/2013  06:18:00       20.395      -52.138       11.856       18.720       42.066       18.392      350.453     1769.557      338.281        0.287        0.123       55.985       15.090        0.073      344.556       21.458      862.914
08/19/2013  06:19:00       20.636      -20.999       19.298       20.668       19.817       17.391      427.165      392.694      302.436        0.118        0.056       29.441       13.284        0.204      344.572       21.485      862.925
08/19/2013  06:20:00      -10.714        3.771       33.070       23.288       34.854       24.626      542.348     1214.812      606.440        0.179        0.118       11.359       27.234        5.749      344.510       21.379      862.942
08/19/2013  06:21:00      -11.176        6.088       40.396       21.213       34.031       19.040      449.989     1158.078      362.518        0.188        0.099       12.726       16.168        1.614      344.521       21.399      862.965
08/19/2013  06:22:00        6.295       -3.851       27.855       24.856       33.427       23.843      617.840     1117.387      568.470        0.157        0.115        7.379       24.079       10.648      344.590       21.518      862.979
08/19/2013  06:23:00       15.844       -1.788       22.060       37.293       26.213       18.247     1390.735      687.139      332.959        0.158        0.121       15.945       14.140        0.786      344.650       21.620      862.987
08/19/2013  06:24:00      -11.096      -14.196       21.161       14.055       15.089        9.687      197.555      227.690       93.842        0.065        0.026       18.018        4.434        0.061      344.661       21.639      862.991
08/19/2013  06:25:00       -9.720       -5.507       12.368       15.571       12.485       10.104      242.441      155.879      102.086        0.039        0.025       11.171        8.270        0.548      344.654       21.625      863.004
08/19/2013  06:26:00      -21.648      -27.709       -8.058       23.832       26.251        9.200      567.954      689.107       84.635        0.132        0.067       35.162        4.766        0.018      344.666       21.644      863.014
08/19/2013  06:27:00      -42.442      -74.264       -6.095       30.793       19.369       16.778      948.233      375.173      281.517        0.448        0.080       85.536       11.470        0.018      344.773       21.827      863.018
08/19/2013  06:28:00      -55.738     -114.533       -3.968       37.021       36.121       21.029     1370.521     1304.738      442.211        0.968        0.156      127.376       22.201        0.030      344.694       21.694      863.018
08/19/2013  06:29:00      -54.666      -93.478       -7.013       30.647       47.121       19.052      939.258     2220.393      362.982        0.765        0.176      108.289       11.831        0.012      344.633       21.594      863.008
08/19/2013  06:30:00      -92.867      -75.990       -7.101       31.196       35.258       25.210      973.221     1243.158      635.525        0.865        0.143      119.995       24.211        0.041      344.611       21.554      862.998
08/19/2013  06:31:00     -111.598      -89.783      -14.116       50.907       36.914       26.752     2591.480     1362.633      715.693        1.269        0.233      143.231       23.259        0.026      344.576       21.493      862.985
08/19/2013  06:32:00     -144.435     -111.036       -7.990       40.521       39.394       29.963     1641.914     1551.879      897.786        1.867        0.205      182.183       24.254        0.018      344.548       21.446      862.980
08/19/2013  06:33:00     -106.303      -83.676        3.618       68.235       56.996       34.569     4656.059     3248.561     1195.045        1.371        0.455      135.285       40.222        0.088      344.525       21.406      862.967
08/19/2013  06:34:00      -87.056      -73.255        0.348       81.372       57.055       37.096     6621.368     3255.255     1376.126        1.210        0.563      113.776       36.627        0.104      344.516       21.387      862.959
08/19/2013  06:35:00      -80.190      -67.646        6.918       59.489       39.760       31.819     3538.977     1580.869     1012.451        0.859        0.307      104.911       32.131        0.094      344.521       21.397      862.950
08/19/2013  06:36:00      -93.178      -76.193        9.093       68.930       47.936       32.756     4751.383     2297.904     1072.932        1.134        0.406      120.364       30.252        0.063      344.479       21.325      862.947
08/19/2013  06:37:00     -114.232      -74.378       -0.485       74.050       43.428       29.203     5483.332     1886.013      852.795        1.340        0.411      136.313       32.966        0.058      344.436       21.252      862.942
08/19/2013  06:38:00     -105.576      -93.616        2.297       57.255       63.111       37.398     3278.141     3982.982     1398.635        1.429        0.433      141.104       38.571        0.075      344.424       21.232      862.946
08/19/2013  06:39:00      -99.830      -87.329       -3.961       57.179       39.973       33.503     3269.398     1597.880     1122.434        1.180        0.299      132.636       31.699        0.057      344.415       21.218      862.946
08/19/2013  06:40:00      -35.038      -59.895        5.597       55.829       37.615       36.500     3116.831     1414.894     1332.269        0.535        0.293       69.391       21.973        0.100      344.415       21.217      862.959
08/19/2013  06:41:00      -12.202      -48.623       14.604       42.288       41.326       26.202     1788.251     1707.810      686.524        0.345        0.209       50.130       22.417        0.200      344.394       21.180      862.968
08/19/2013  06:42:00      -46.507      -74.732       15.193       48.557       47.913       35.290     2357.771     2295.665     1245.401        0.694        0.295       88.021       29.285        0.111      344.358       21.121      862.982
08/19/2013  06:43:00      -65.548      -77.466       -3.649       46.693       61.527       28.759     2180.261     3785.523      827.059        0.855        0.340      101.477       16.718        0.027      344.357       21.117      862.997
08/19/2013  06:44:00      -56.288      -71.394       -0.175       42.411       39.088       23.076     1798.724     1527.899      532.518        0.606        0.193       90.915       14.975        0.027      344.393       21.179      863.010
08/19/2013  06:45:00      -74.642      -50.315       11.006       55.224       38.736       25.247     3049.684     1500.512      637.402        0.670        0.259       90.017       19.600        0.047      344.391       21.177      863.021
08/19/2013  06:46:00      -80.716      -68.493        0.214       44.156       46.589       27.477     1949.789     2170.575      754.966        0.804        0.244      105.860       20.116        0.036      344.394       21.182      863.032
08/19/2013  06:47:00      -92.043      -56.036       12.943       57.535       39.857       32.745     3310.243     1588.589     1072.246        0.887        0.299      107.759       28.608        0.070      344.414       21.214      863.046
08/19/2013  06:48:00     -111.095      -89.564       -7.613       67.226       41.923       29.816     4519.361     1757.535      888.992        1.379        0.358      142.702       21.025        0.022      344.410       21.207      863.056
08/19/2013  06:49:00     -123.667      -91.717       -9.277       47.068       41.897       23.560     2215.365     1755.358      555.074        1.416        0.226      153.966       19.493        0.016      344.405       21.198      863.066
08/19/2013  06:50:00     -127.544      -78.785        3.022       52.951       48.488       27.471     2803.769     2351.089      754.632        1.420        0.295      149.915       25.880        0.030      344.393       21.180      863.071
08/19/2013  06:51:00     -130.764      -78.914        1.270       59.137       31.978       29.468     3497.235     1022.571      868.361        1.436        0.269      152.731       30.066        0.039      344.391       21.175      863.073
08/19/2013  06:52:00     -103.166      -52.003        9.687       45.524       39.721       23.487     2072.395     1577.753      551.649        0.882        0.210      115.532       18.317        0.025      344.424       21.231      863.069
08/19/2013  06:53:00     -121.885      -86.234       -9.233       50.703       40.334       23.355     2570.841     1626.834      545.474        1.356        0.237      149.306       26.396        0.031      344.441       21.262      863.068
08/19/2013  06:54:00     -135.653      -75.655        0.711       52.794       34.937       24.145     2787.194     1220.587      582.971        1.436        0.230      155.323       29.182        0.035      344.440       21.260      863.067
08/19/2013  06:55:00     -131.738      -65.164       -9.421       34.471       30.467       21.122     1188.272      928.251      446.143        1.213        0.128      146.974       14.897        0.010      344.445       21.270      863.072
08/19/2013  06:56:00     -125.892      -87.476        0.479       58.507       54.986       27.814     3423.085     3023.431      773.646        1.536        0.361      153.300       30.456        0.039      344.459       21.292      863.073
08/19/2013  06:57:00     -132.007     -113.365       -5.788       62.259       50.370       34.034     3876.189     2537.114     1158.323        1.894        0.379      174.004       32.167        0.034      344.440       21.259      863.074
08/19/2013  06:58:00      -74.097      -70.775       10.616       71.676       58.016       35.002     5137.492     3365.800     1225.159        1.017        0.486      102.467       38.808        0.143      344.443       21.265      863.071
08/19/2013  06:59:00      -94.568      -69.755        5.955       69.600       52.249       34.738     4844.125     2729.987     1206.723        1.131        0.439      117.511       38.126        0.105      344.447       21.274      863.076
08/19/2013  07:00:00     -145.945     -127.643        1.289       67.811       49.008       32.950     4598.272     2401.787     1085.676        2.284        0.404      193.888       36.057        0.035      344.419       21.221      863.082
08/19/2013  07:01:00     -121.313     -106.548      -10.588       52.171       53.801       33.331     2721.762     2894.570     1110.935        1.645        0.336      161.460       34.478        0.046      344.437       21.254      863.084
08/19/2013  07:02:00      -89.652      -92.109       -5.403       58.231       47.860       37.781     3390.864     2290.599     1427.380        1.183        0.355      128.536       39.217        0.093      344.443       21.266      863.096
08/19/2013  07:03:00      -72.950      -47.040        4.170       43.514       42.261       27.957     1893.442     1785.950      781.617        0.601        0.223       86.801       20.551        0.056      344.470       21.311      863.100
08/19/2013  07:04:00     -107.741      -51.317       -5.084       34.429       34.053       27.367     1185.344     1159.614      748.975        0.868        0.155      119.338       19.245        0.026      344.456       21.289      863.110
08/19/2013  07:05:00      -85.349      -20.285        0.964       47.896       31.398       20.349     2294.060      985.841      414.074        0.569        0.185       87.727       14.574        0.028      344.457       21.290      863.113
08/19/2013  07:06:00      -66.026      -22.239        3.528       34.272       25.711       21.640     1174.598      661.064      468.269        0.358        0.115       69.671       16.612        0.057      344.467       21.305      863.116
08/19/2013  07:07:00      -75.790      -20.279        8.372       35.685       33.074       18.747     1273.415     1093.915      351.451        0.447        0.136       78.456       18.589        0.056      344.415       21.215      863.125
08/19/2013  07:08:00      -51.053       -2.887       11.185       30.517       32.758       18.639      931.288     1073.104      347.398        0.255        0.118       51.134       18.781        0.135      344.450       21.276      863.138
08/19/2013  07:09:00      -47.655       -4.187        3.132       24.552       30.273       19.114      602.790      916.449      365.339        0.209        0.094       47.839       17.751        0.138      344.453       21.284      863.143
08/19/2013  07:10:00      -47.454      -20.018       -2.288       24.298       16.676       11.190      590.382      278.078      125.210        0.183        0.050       51.504        9.473        0.034      344.445       21.269      863.158
08/19/2013  07:11:00      -29.122       -8.225        8.084       21.658       10.534       14.459      469.079      110.957      209.074        0.088        0.039       30.261        5.245        0.030      344.520       21.394      863.166
08/19/2013  07:12:00      -38.245       -0.015       -0.903       17.050       11.919       11.285      290.704      142.064      127.360        0.101        0.028       38.245        5.659        0.022      344.502       21.362      863.167
08/19/2013  07:13:00      -63.592      -12.115       -5.177       18.745       15.489       10.359      351.380      239.904      107.301        0.246        0.035       64.735        9.725        0.023      344.518       21.396      863.162
08/19/2013  07:14:00      -45.407      -31.733       -3.508       11.890       17.673        8.705      141.374      312.336       75.771        0.181        0.026       55.396        6.705        0.015      344.546       21.442      863.171
08/19/2013  07:15:00      -39.888      -26.952        2.856       19.812       17.956       13.641      392.516      322.411      186.083        0.161        0.045       48.140       12.547        0.068      344.625       21.576      863.179
08/19/2013  07:16:00      -36.861      -29.260       -2.487       14.851       16.756        9.877      220.540      280.761       97.562        0.141        0.030       47.062        8.042        0.029      344.587       21.511      863.193
08/19/2013  07:17:00      -44.868      -20.078       -4.148       10.404       10.930        6.390      108.250      119.470       40.835        0.135        0.013       49.156        5.541        0.013      344.606       21.541      863.203
08/19/2013  07:18:00      -61.874      -17.667       -8.667        7.919        8.284        7.882       62.707       68.628       62.125        0.220        0.010       64.346        1.984        0.001      344.623       21.574      863.209
08/19/2013  07:19:00      -60.974      -34.342       -6.136       12.767       16.400       12.312      162.995      268.947      151.585        0.276        0.029       69.980       11.259        0.026      344.647       21.614      863.209
08/19/2013  07:20:00      -38.720      -21.305        5.069       26.383       15.965       14.039      696.073      254.873      197.089        0.156        0.057       44.194       15.412        0.122      344.656       21.629      863.211
08/19/2013  07:21:00       -2.238       -9.249       12.494        8.851       13.148        9.954       78.341      172.866       99.076        0.030        0.018        9.516        7.425        0.609      344.729       21.754      863.213
08/19/2013  07:22:00       -4.601      -11.294        6.842        9.846       11.455       13.869       96.940      131.227      192.343        0.031        0.021       12.195        8.248        0.457      344.722       21.741      863.217
08/19/2013  07:23:00      -50.600      -39.910        1.107       33.365       20.097       17.202     1113.245      403.882      295.894        0.298        0.091       64.445       18.322        0.081      344.645       21.611      863.229
08/19/2013  07:24:00      -46.562      -51.408        5.263       39.128       21.782       18.997     1530.970      474.476      360.897        0.360        0.118       69.360       21.317        0.094      344.630       21.585      863.229
08/19/2013  07:25:00      -55.508      -68.066       -2.231       23.735       24.598       17.886      563.334      605.082      319.916        0.460        0.074       87.830       17.371        0.039      344.671       21.656      863.232
08/19/2013  07:26:00      -60.799      -45.067       -7.514       19.161       13.615       10.237      367.125      185.371      104.802        0.322        0.033       75.681        7.681        0.010      344.742       21.777      863.247
08/19/2013  07:27:00      -38.856      -21.530       -0.775       20.499       12.317       10.792      420.191      151.711      116.470        0.133        0.034       44.422        8.591        0.037      344.723       21.745      863.268
08/19/2013  07:28:00       -3.063      -17.775        2.279       12.286       14.256        9.853      150.953      203.240       97.081        0.039        0.023       18.037        7.237        0.161      344.793       21.866      863.298
08/19/2013  07:29:00        4.673       -3.851        6.373       13.141        9.240        8.730      172.676       85.383       76.219        0.021        0.017        6.055        5.692        0.884      344.762       21.810      863.327
08/19/2013  07:30:00        9.113        3.888       -1.701        8.685       11.050       10.742       75.429      122.093      115.396        0.021        0.016        9.908        6.439        0.422      344.676       21.665      863.344
08/19/2013  07:31:00       34.921       22.158       12.296        9.934        5.548       12.968       98.681       30.784      168.170        0.108        0.015       41.358        2.320        0.003      344.581       21.503      863.370
08/19/2013  07:32:00       26.449       31.030       -0.360       12.618       10.251        7.424      159.219      105.093       55.117        0.099        0.016       40.773        5.657        0.019      344.586       21.510      863.400
08/19/2013  07:33:00        4.635       41.599       -8.016        6.291        8.815        4.727       39.580       77.702       22.343        0.098        0.007       41.856        2.493        0.004      344.643       21.607      863.435
08/19/2013  07:34:00       -7.736       28.777       -2.034        5.814        8.891        5.479       33.800       79.046       30.025        0.052        0.007       29.799        4.496        0.023      344.716       21.734      863.444
08/19/2013  07:35:00       -0.240        1.817       15.162       10.677        4.840        8.223      113.989       23.426       67.621        0.022        0.010        1.833        8.270       20.368      344.888       22.026      863.458
08/19/2013  07:36:00       19.701        6.053       21.687        7.797        8.758        8.212       60.786       76.700       67.433        0.055        0.010       20.610        3.863        0.035      344.787       21.851      863.485
08/19/2013  07:37:00       41.153       -2.539        6.697       16.233       20.233       14.355      263.518      409.358      206.070        0.131        0.044       41.231       12.506        0.092      344.580       21.498      863.512
08/19/2013  07:38:00       30.304       10.028       16.909       16.356       17.340       11.433      267.533      300.671      130.710        0.100        0.035       31.920        9.613        0.091      344.652       21.620      863.524
08/19/2013  07:39:00       20.900       11.563       15.790       19.710       12.841       10.424      388.473      164.885      108.650        0.074        0.033       23.885        4.694        0.039      344.665       21.646      863.548
08/19/2013  07:40:00        1.743      -16.865        3.010       16.245       30.757       18.207      263.890      945.963      331.488        0.092        0.077       16.955       15.520        0.838      344.594       21.522      863.569
08/19/2013  07:41:00       19.231      -39.908       -5.734       25.789       30.943       21.671      665.061      957.463      469.621        0.204        0.105       44.300       17.992        0.165      344.541       21.434      863.579
08/19/2013  07:42:00       14.571      -22.378       -4.530       14.252       16.868       14.067      203.128      284.519      197.880        0.071        0.034       26.704       11.219        0.177      344.661       21.638      863.585
08/19/2013  07:43:00        5.663       -3.830       15.562       17.931       17.653       14.482      321.509      311.616      209.733        0.057        0.042        6.836        8.699        1.619      344.877       22.007      863.600
08/19/2013  07:44:00       -4.523        1.438       12.484        8.465       16.514       10.110       71.662      272.710      102.212        0.031        0.022        4.746        8.389        3.124      344.862       21.983      863.616
08/19/2013  07:45:00       -9.071       -4.271       -1.015        9.178       17.168        9.890       84.240      294.751       97.813        0.029        0.024       10.026        4.094        0.167      344.910       22.066      863.620
08/19/2013  07:46:00      -10.038       15.536        6.524       10.877        9.499       12.319      118.309       90.229      151.748        0.037        0.018       18.497        7.208        0.152      344.796       21.871      863.626
08/19/2013  07:47:00       -8.966       18.045       14.191       10.059        8.883       11.058      101.189       78.916      122.272        0.045        0.015       20.150        4.212        0.044      344.842       21.948      863.639
08/19/2013  07:48:00        0.120       -3.224        4.059       18.438        9.134        9.820      339.978       83.433       96.438        0.027        0.026        3.226        9.467        8.612      345.006       22.229      863.648
08/19/2013  07:49:00      -12.003       12.888       11.788       14.553       11.843        8.684      211.787      140.257       75.406        0.044        0.021       17.612        3.720        0.045      345.009       22.234      863.659
08/19/2013  07:50:00      -16.610       18.557        1.250       19.183       18.843       13.442      368.004      355.063      180.684        0.076        0.045       24.905        9.656        0.150      344.903       22.051      863.660
08/19/2013  07:51:00       -3.946       14.440       -2.571       11.252       11.634       13.389      126.600      135.351      179.263        0.034        0.022       14.970       11.216        0.561      344.959       22.148      863.670
08/19/2013  07:52:00        5.477       -0.237       11.004        7.908        9.873        5.737       62.540       97.471       32.911        0.017        0.010        5.482        5.740        1.096      345.094       22.379      863.682
08/19/2013  07:53:00        2.819        6.981       10.829        4.159        8.418        6.810       17.293       70.866       46.378        0.015        0.007        7.528        3.674        0.238      345.163       22.499      863.692
08/19/2013  07:54:00       20.239        3.193        2.521       14.092       11.162       11.358      198.596      124.593      129.008        0.044        0.023       20.489        4.410        0.046      344.884       22.020      863.701
08/19/2013  07:55:00        0.825       -4.024       -2.050       16.036       16.320       12.339      257.168      266.329      152.250        0.035        0.034        4.107       10.619        6.684      344.912       22.068      863.722
08/19/2013  07:56:00       38.084      -25.167        2.882       20.403       14.072       14.349      416.277      198.011      205.892        0.146        0.041       45.648        7.622        0.028      344.826       21.920      863.750
08/19/2013  07:57:00       28.644      -37.044       -8.792       15.508       12.737       10.944      240.483      162.243      119.763        0.140        0.026       46.827        8.041        0.029      344.878       22.010      863.760
08/19/2013  07:58:00       28.804      -20.022       -4.052       19.675       16.516       13.907      387.122      272.772      193.393        0.105        0.043       35.079       11.729        0.112      344.900       22.047      863.773
08/19/2013  07:59:00       13.319       -9.101       -2.012       10.202       10.943        8.931      104.071      119.750       79.757        0.028        0.015       16.131        6.993        0.188      344.921       22.085      863.787
08/19/2013  08:00:00      -16.102      -23.167       -9.603       33.716       13.680       14.692     1136.754      187.155      215.867        0.121        0.077       28.213        8.024        0.081      344.998       22.214      863.787
08/19/2013  08:01:00      -66.695      -42.575       -3.126       26.237       20.164       12.598      688.364      406.605      158.720        0.376        0.063       79.126       14.695        0.034      345.094       22.375      863.783
08/19/2013  08:02:00      -59.854      -41.877       -8.411       43.016       19.909       14.263     1850.345      396.370      203.445        0.393        0.123       73.049       18.739        0.066      345.163       22.497      863.784
08/19/2013  08:03:00      -65.233      -60.810       -2.206       49.056       32.345       19.473     2406.484     1046.209      379.189        0.589        0.192       89.181       22.540        0.064      345.180       22.526      863.774
08/19/2013  08:04:00      -83.266      -65.089        2.499       51.610       34.991       24.540     2663.565     1224.383      602.203        0.783        0.225      105.688       29.624        0.079      345.171       22.511      863.775
08/19/2013  08:05:00      -95.095      -64.062       -1.614       56.179       47.292       32.139     3156.097     2236.513     1032.919        0.979        0.321      114.660       30.818        0.072      345.124       22.432      863.774
08/19/2013  08:06:00      -81.597      -40.199        8.601       47.639       50.904       24.838     2269.440     2591.214      616.909        0.691        0.274       90.962       22.411        0.061      345.149       22.474      863.771
08/19/2013  08:07:00     -122.079      -38.548       -6.041       44.861       39.905       20.557     2012.529     1592.427      422.589        1.023        0.201      128.021       19.400        0.023      345.067       22.333      863.796
08/19/2013  08:08:00     -112.311      -27.678        0.026       46.042       43.723       27.105     2119.842     1911.660      734.676        0.907        0.238      115.672       29.073        0.063      345.052       22.307      863.800
08/19/2013  08:09:00     -128.119      -12.078        0.152       38.587       36.862       22.148     1488.956     1358.793      490.540        0.995        0.167      128.687       20.758        0.026      345.016       22.246      863.813
08/19/2013  08:10:00     -114.290      -37.320        0.378       45.954       40.465       20.531     2111.785     1637.424      421.517        0.931        0.209      120.229       26.550        0.049      345.042       22.290      863.821
08/19/2013  08:11:00     -103.093       -8.748        3.562       29.774       26.523       18.875      886.506      703.482      356.271        0.633        0.097      103.464       17.403        0.028      345.011       22.237      863.820
08/19/2013  08:12:00      -42.546      -18.317        9.159       45.068       27.390       21.977     2031.124      750.215      482.988        0.275        0.163       46.322       26.168        0.319      345.084       22.363      863.832
08/19/2013  08:13:00      -38.794      -12.421        7.712       38.153       22.306       19.484     1455.684      497.574      379.609        0.203        0.117       40.734       23.568        0.335      345.155       22.483      863.836
08/19/2013  08:14:00      -50.823      -26.219        3.155       34.020       23.319       15.061     1157.379      543.795      226.831        0.260        0.096       57.187       16.305        0.081      345.138       22.453      863.838
08/19/2013  08:15:00      -40.506      -27.716        5.117       23.146       26.651       14.666      535.755      710.269      215.080        0.195        0.073       49.080       13.765        0.079      345.137       22.453      863.848
08/19/2013  08:16:00      -60.768      -53.567       -2.005       28.976       29.296       14.258      839.618      858.259      203.303        0.423        0.095       81.007       14.891        0.034      345.153       22.482      863.845
08/19/2013  08:17:00      -66.008      -52.237       -0.058       36.273       16.072       20.192     1315.723      258.316      407.709        0.453        0.099       84.177       21.532        0.065      345.213       22.582      863.852
08/19/2013  08:18:00      -63.673      -45.116       -2.233       32.619       29.927       15.725     1063.989      895.649      247.285        0.415        0.110       78.036       16.378        0.044      345.223       22.599      863.844
08/19/2013  08:19:00      -54.094      -39.841        6.290       32.439       24.049       17.216     1052.320      578.365      296.376        0.324        0.096       67.182       15.903        0.056      345.236       22.623      863.831
08/19/2013  08:20:00      -53.250      -41.357        3.899       27.396       22.177       17.400      750.514      491.811      302.754        0.305        0.077       67.424       15.832        0.055      345.255       22.654      863.816
08/19/2013  08:21:00      -62.130      -42.243       -1.006       30.067       19.803       16.364      904.026      392.169      267.767        0.360        0.078       75.131       16.015        0.045      345.280       22.697      863.817
08/19/2013  08:22:00      -52.894      -22.834        9.318       41.272       19.133       17.343     1703.365      366.074      300.765        0.289        0.119       57.612       19.429        0.114      345.288       22.710      863.817
08/19/2013  08:23:00      -87.567      -34.870       -5.178       18.719       16.644       12.833      350.419      277.029      164.693        0.485        0.040       94.255        8.416        0.008      345.251       22.648      863.819
08/19/2013  08:24:00      -27.069      -52.657        5.112       26.593       22.527       13.289      707.173      507.453      176.608        0.246        0.070       59.207       10.831        0.033      345.338       22.798      863.831
08/19/2013  08:25:00      -49.524      -54.312       -5.119       18.836       15.132        8.122      354.786      228.975       65.964        0.304        0.032       73.501        8.132        0.012      345.343       22.807      863.834
08/19/2013  08:26:00      -69.777      -41.878       -3.171       30.820       21.152       13.332      949.866      447.398      177.731        0.410        0.079       81.379       14.113        0.030      345.394       22.893      863.837
08/19/2013  08:27:00      -75.175      -44.864        0.686       25.095       20.263       16.308      629.750      410.592      265.936        0.449        0.065       87.545       14.507        0.027      345.442       22.970      863.847
08/19/2013  08:28:00      -83.776      -25.610       -2.061       23.453       23.493       13.908      550.055      551.939      193.421        0.449        0.065       87.603       14.098        0.026      345.427       22.949      863.854
08/19/2013  08:29:00      -68.799      -39.684       -1.141       17.357       16.464       11.533      301.265      271.063      133.006        0.351        0.035       79.423       10.876        0.019      345.446       22.983      863.863
08/19/2013  08:30:00      -59.558      -50.186       -2.021       24.780       13.260       13.692      614.055      175.823      187.464        0.352        0.049       77.884       15.054        0.037      345.468       23.021      863.882
08/19/2013  08:31:00      -38.519      -36.573        9.635       23.924       32.083       18.119      572.343     1029.339      328.302        0.242        0.096       53.116       16.127        0.092      345.502       23.076      863.896
08/19/2013  08:32:00      -32.691      -18.206       10.366       27.028       15.428       14.454      730.502      238.024      208.921        0.134        0.059       37.418       16.000        0.183      345.492       23.060      863.902
08/19/2013  08:33:00      -45.591      -11.521       -3.146       17.164       16.974       10.318      294.589      288.113      106.469        0.146        0.034       47.024        9.135        0.038      345.513       23.096      863.913
08/19/2013  08:34:00      -19.990      -26.015       -0.973       13.240       17.200        6.645      175.296      295.854       44.156        0.080        0.026       32.808        5.538        0.028      345.534       23.134      863.919
08/19/2013  08:35:00       -3.406      -34.689        3.233       19.066       10.833       11.943      363.498      117.363      142.627        0.092        0.031       34.856       12.771        0.134      345.625       23.289      863.917
08/19/2013  08:36:00       -4.470       -3.061       11.802        5.907        6.575        6.773       34.894       43.234       45.874        0.015        0.006        5.418        2.724        0.253      345.968       23.877      863.924
08/19/2013  08:37:00        8.579      -24.913        4.800       17.301       20.456       14.956      299.313      418.428      223.667        0.083        0.047       26.349       10.625        0.163      345.565       23.186      863.936
08/19/2013  08:38:00       15.430      -33.023       -0.376       28.767       27.110       24.077      827.521      734.938      579.682        0.174        0.107       36.450       12.212        0.112      345.504       23.082      863.942
08/19/2013  08:39:00       20.908      -57.399       -0.085       34.976       24.756       22.274     1223.296      612.843      496.145        0.303        0.117       61.088       17.458        0.082      345.383       22.875      863.956
08/19/2013  08:40:00        0.166       -9.757       28.151       15.752       28.154       13.574      248.131      792.649      184.242        0.106        0.061        9.758        6.172        0.400      345.644       23.321      863.965
08/19/2013  08:41:00       -5.342       18.159       34.089       16.935       20.751       18.282      286.801      430.595      334.218        0.129        0.053       18.928       11.258        0.354      345.635       23.307      863.969
08/19/2013  08:42:00        4.994        0.249       15.788       14.880       13.864       15.715      221.425      192.210      246.973        0.047        0.033        5.001        6.340        1.608      345.704       23.424      863.984
08/19/2013  08:43:00       45.298       -9.688       21.135       33.098       23.782       24.975     1095.499      565.571      623.744        0.244        0.114       46.322       15.655        0.114      345.468       23.018      863.992
08/19/2013  08:44:00       26.467        1.028       11.864       30.937       27.461       24.400      957.111      754.114      595.380        0.157        0.115       26.487       22.211        0.703      345.497       23.069      863.998
08/19/2013  08:45:00       45.037       -3.030       19.970       34.611       17.169       23.134     1197.955      294.788      535.200        0.223        0.101       45.139       15.542        0.119      345.423       22.943      864.011
08/19/2013  08:46:00       39.269        0.621       16.541       29.050       19.430       22.970      843.881      377.508      527.625        0.178        0.087       39.274       13.555        0.119      345.452       22.992      864.022
08/19/2013  08:47:00       34.106        2.595       12.849       20.352       18.274       23.196      414.215      333.943      538.042        0.131        0.064       34.204        9.855        0.083      345.472       23.028      864.026
08/19/2013  08:48:00       36.082      -37.863       -7.329       20.877       21.056       14.054      435.829      443.364      197.509        0.193        0.054       52.302       13.056        0.062      345.692       23.403      864.031
08/19/2013  08:49:00       31.975        8.419       12.161       31.463       22.031       22.301      989.898      485.375      497.322        0.161        0.099       33.064        8.954        0.073      345.598       23.243      864.035
08/19/2013  08:50:00        9.326       16.407       27.216       18.005       18.771       13.772      324.187      352.354      189.661        0.098        0.043       18.872        8.756        0.215      345.621       23.281      864.027
08/19/2013  08:51:00       29.230      -13.948        9.245       18.898       18.015       15.804      357.124      324.544      249.774        0.103        0.047       32.387       11.087        0.117      345.670       23.365      864.039
08/19/2013  08:52:00       17.034       -8.246       10.290       22.176       20.865       17.871      491.762      435.332      319.371        0.086        0.062       18.925       17.576        0.863      345.752       23.507      864.040
08/19/2013  08:53:00        3.318      -23.519        9.202       21.492       18.611       17.486      461.926      346.359      305.755        0.088        0.056       23.752       14.249        0.360      345.726       23.462      864.039
08/19/2013  08:54:00        3.256        9.589       21.033       15.127       20.349       14.685      228.817      414.088      215.636        0.070        0.043       10.126       13.332        1.733      346.091       24.089      864.053
08/19/2013  08:55:00       20.951       17.304       13.034       24.631       16.942       13.028      606.707      287.042      169.727        0.099        0.053       27.173       12.433        0.209      345.990       23.915      864.054
08/19/2013  08:56:00       29.780       24.264       14.786       28.502       25.994       13.950      812.341      675.683      194.596        0.169        0.084       38.413        7.190        0.035      346.124       24.145      864.045
08/19/2013  08:57:00       73.887       38.640        7.834       24.767       20.172       24.512      613.388      406.910      600.820        0.432        0.081       83.381       12.303        0.022      346.087       24.083      864.044
08/19/2013  08:58:00       66.335       55.557       29.128       31.409       31.727       22.554      986.540     1006.587      508.679        0.542        0.125       86.527       16.008        0.034      346.086       24.080      864.039
08/19/2013  08:59:00       42.620       42.886       25.585       30.013       29.290       18.774      900.795      857.889      352.449        0.321        0.106       60.463        9.190        0.023      346.045       24.011      864.028
08/19/2013  09:00:00       54.121       38.255       26.979       39.412       21.603       20.152     1553.344      466.708      406.121        0.377        0.121       66.276       12.549        0.036      346.048       24.015      864.029
08/19/2013  09:01:00       46.492       32.884       49.043       34.864       27.278       18.265     1215.500      744.105      333.614        0.397        0.115       56.946        8.315        0.021      346.142       24.177      864.021
08/19/2013  09:02:00        6.155        6.987       27.463       16.258       14.667       11.461      264.322      215.109      131.359        0.073        0.031        9.311        6.364        0.467      346.290       24.431      864.023
08/19/2013  09:03:00       10.539       -6.349       11.563       13.567       12.424       16.235      184.052      154.357      263.579        0.044        0.030       12.303        9.702        0.622      346.295       24.439      864.013
08/19/2013  09:04:00        8.644      -33.677       -9.020       12.511       17.086       14.162      156.531      291.923      200.575        0.097        0.032       34.769        8.626        0.062      345.941       23.831      864.004
08/19/2013  09:05:00       -7.410       21.184        0.840       15.142       19.695       17.360      229.268      387.891      301.358        0.071        0.046       22.443       12.787        0.325      346.229       24.326      863.996
08/19/2013  09:06:00       16.040       -1.601        8.423       15.989       13.390       20.867      255.641      179.285      435.430        0.060        0.044       16.120       14.210        0.777      346.363       24.557      863.972
08/19/2013  09:07:00       49.213       13.432        1.167       11.713       20.098       16.367      137.189      403.921      267.894        0.171        0.040       51.013       10.715        0.044      345.969       23.880      863.964
08/19/2013  09:08:00       29.793       12.079       -0.128       15.543       17.478       16.676      241.575      305.465      278.073        0.093        0.041       32.149       10.375        0.104      346.009       23.948      863.958
08/19/2013  09:09:00       18.340       16.483       12.368       18.597       19.017       15.306      345.859      361.650      234.287        0.085        0.047       24.659       12.705        0.265      346.332       24.503      863.967
08/19/2013  09:10:00       -3.423       -3.602       11.067       21.384       11.812       13.983      457.280      139.523      195.521        0.047        0.040        4.969       10.108        4.138      346.635       25.024      863.961
08/19/2013  09:11:00       30.270       23.695        6.804       22.338       18.050       16.238      498.997      325.803      263.686        0.131        0.054       38.441       12.076        0.099      346.466       24.734      863.958
08/19/2013  09:12:00       15.685        9.252       16.955       16.796       13.630       14.504      282.116      185.776      210.358        0.065        0.034       18.210        6.735        0.137      346.562       24.898      863.943
08/19/2013  09:13:00       26.961       16.385        6.831       17.586       13.958       14.312      309.272      194.830      204.833        0.088        0.035       31.549        7.250        0.053      346.395       24.611      863.942
08/19/2013  09:14:00        9.662       23.113        6.706       19.576       17.014       16.470      383.233      289.487      271.248        0.081        0.047       25.051       10.468        0.175      346.396       24.614      863.931
08/19/2013  09:15:00       -6.381       25.338        3.341       10.098       16.946       14.431      101.978      287.183      208.241        0.065        0.030       26.129       11.443        0.192      346.515       24.817      863.936
08/19/2013  09:16:00       -3.992       19.711        4.155        6.607       22.796       11.584       43.659      519.651      134.187        0.056        0.035       20.112       12.936        0.414      346.616       24.991      863.932
08/19/2013  09:17:00       14.251        5.817        8.663       13.346       13.477       12.100      178.123      181.631      146.408        0.041        0.025       15.393        9.332        0.368      346.487       24.770      863.942
08/19/2013  09:18:00        0.427      -10.505        1.567       22.652       17.372       19.705      513.099      301.769      388.294        0.066        0.060       10.514       15.955        2.303      346.566       24.907      863.950
08/19/2013  09:19:00       52.362      -20.386       -7.801       24.102       22.011       17.993      580.913      484.497      323.740        0.230        0.069       56.190        5.713        0.010      346.023       23.972      863.960
08/19/2013  09:20:00       17.601       -6.496        1.138        7.619       13.562       11.686       58.045      183.923      136.553        0.037        0.019       18.761        8.947        0.227      346.321       24.484      863.971
08/19/2013  09:21:00       10.499        2.886       19.327       12.463        7.951       14.594      155.336       63.217      212.989        0.046        0.022       10.888        7.938        0.532      346.603       24.969      863.982
08/19/2013  09:22:00       -2.069      -11.102       12.710       18.887       11.763       10.742      356.706      138.366      115.393        0.045        0.031       11.293        8.862        0.616      346.482       24.761      863.980
08/19/2013  09:23:00       -1.095      -14.723        0.930       26.342       18.293       16.529      693.914      334.649      273.206        0.076        0.065       14.763       13.714        0.863      346.390       24.604      863.985
08/19/2013  09:24:00       45.263      -28.120       -5.406       20.830       22.272       23.942      433.894      496.023      573.219        0.219        0.075       53.287        9.126        0.029      346.086       24.081      863.998
08/19/2013  09:25:00       35.484      -19.309       -9.970       17.182       21.636       15.184      295.234      468.112      230.561        0.136        0.050       40.397        7.582        0.035      346.166       24.217      864.012
08/19/2013  09:26:00       21.886      -15.864       14.022       26.126       17.630       23.393      682.584      310.831      547.253        0.123        0.077       27.031       16.300        0.364      346.469       24.740      864.032
08/19/2013  09:27:00        5.909       -4.768       16.463       16.141       17.174       13.098      260.533      294.935      171.549        0.053        0.036        7.593        9.934        1.712      346.814       25.332      864.039
08/19/2013  09:28:00      -16.215      -39.147       -0.340       29.526       19.568       16.785      871.806      382.895      281.726        0.167        0.077       42.372       17.209        0.165      346.793       25.295      864.046
08/19/2013  09:29:00       -8.928      -20.746       -4.004       28.673       22.835       19.126      822.135      521.419      365.811        0.112        0.085       22.586       17.255        0.584      346.738       25.202      864.059
08/19/2013  09:30:00      -31.581      -32.121        0.141       28.295       20.763       11.434      800.583      431.108      130.740        0.170        0.068       45.046       13.120        0.085      346.762       25.244      864.072
08/19/2013  09:31:00      -25.050      -33.757       -2.318       14.641       25.178       12.654      214.348      633.942      160.111        0.139        0.050       42.036       13.339        0.101      346.660       25.067      864.075
08/19/2013  09:32:00      -29.593      -28.198        2.776       33.379       18.188       12.949     1114.175      330.807      167.684        0.165        0.081       40.876        6.864        0.028      346.703       25.142      864.084
08/19/2013  09:33:00      -14.730      -30.505        5.439       39.829       24.618       17.367     1586.384      606.033      301.610        0.184        0.125       33.876       14.211        0.176      346.791       25.293      864.092
08/19/2013  09:34:00      -50.372      -15.559        1.277       33.059       55.963       21.418     1092.865     3131.869      458.722        0.373        0.234       52.721       24.408        0.214      346.649       25.048      864.094
08/19/2013  09:35:00      -17.703      -51.706       -7.361       21.625       35.285       18.007      467.632     1245.040      324.253        0.254        0.102       54.652       17.977        0.108      346.645       25.043      864.115
08/19/2013  09:36:00      -42.653        0.705       19.050       27.844       30.520       22.086      775.282      931.477      487.813        0.219        0.110       42.659       20.876        0.239      346.721       25.173      864.115
08/19/2013  09:37:00      -30.302        0.751       -1.172       37.117       42.257       17.114     1377.671     1785.640      292.887        0.219        0.173       30.311       16.196        0.286      346.564       24.904      864.136
08/19/2013  09:38:00      -31.755       -0.173        3.342       20.172       30.640       23.876      406.916      938.786      570.040        0.147        0.096       31.755       19.622        0.382      346.693       25.124      864.137
08/19/2013  09:39:00      -33.136        0.474        0.987       31.441       21.586       15.992      988.540      465.941      255.739        0.140        0.086       33.139       13.482        0.166      346.694       25.126      864.154
08/19/2013  09:40:00      -69.468      -18.264        5.098       31.713       25.521       20.638     1005.715      651.309      425.929        0.363        0.104       71.829       13.124        0.033      346.628       25.012      864.172
08/19/2013  09:41:00      -63.003      -23.303        0.691       25.747       22.109       16.124      662.889      488.808      259.997        0.296        0.071       67.175       10.994        0.027      346.638       25.029      864.175
08/19/2013  09:42:00      -23.175        2.863        8.945       21.005       11.259       17.149      441.191      126.759      294.100        0.074        0.043       23.351        8.771        0.141      346.814       25.331      864.189
08/19/2013  09:43:00      -12.481      -10.619        5.808       20.942       22.636       18.200      438.561      512.380      331.229        0.079        0.064       16.387       16.082        0.963      346.930       25.533      864.197
08/19/2013  09:44:00      -20.695       13.316        2.886       26.179       20.796       20.653      685.366      432.457      426.547        0.108        0.077       24.609       17.248        0.491      346.844       25.385      864.201
08/19/2013  09:45:00      -56.200      -51.122        0.969       30.497       39.575       18.641      930.066     1566.167      347.497        0.431        0.142       75.973       16.682        0.048      346.730       25.186      864.211
08/19/2013  09:46:00      -41.620      -33.947        0.170       34.552       29.514       18.967     1193.822      871.103      359.760        0.265        0.121       53.709       18.756        0.122      346.827       25.354      864.214
08/19/2013  09:47:00      -29.228      -14.406        1.583       36.632       23.175       15.605     1341.897      537.090      243.520        0.159        0.106       32.585       10.023        0.095      346.989       25.632      864.226
08/19/2013  09:48:00      -30.579      -67.274       -3.971       29.983       29.007       19.323      899.007      841.389      373.370        0.379        0.106       73.898        7.607        0.011      346.898       25.475      864.226
08/19/2013  09:49:00       -8.966      -22.224       -6.349       18.916       27.667       17.298      357.815      765.440      299.204        0.102        0.071       23.964        3.518        0.022      347.020       25.686      864.233
08/19/2013  09:50:00      -16.787      -40.603       -3.502       23.653       22.639       16.157      559.484      512.512      261.050        0.164        0.067       43.937       14.492        0.109      346.973       25.604      864.245
08/19/2013  09:51:00      -38.042      -19.682       -4.976       38.894       24.858       18.476     1512.755      617.919      341.349        0.217        0.124       42.832       12.919        0.091      347.041       25.724      864.241
08/19/2013  09:52:00      -10.492      -24.707        0.327       31.389       28.521       21.676      985.252      813.442      469.863        0.149        0.113       26.842       20.664        0.593      347.008       25.667      864.253
08/19/2013  09:53:00      -13.723      -13.784        0.289       19.294       23.050       12.967      372.276      531.286      168.144        0.072        0.054       19.451        6.526        0.113      347.071       25.775      864.261
08/19/2013  09:54:00       -4.355       -3.825       16.535       16.495       25.220       21.638      272.070      636.073      468.201        0.084        0.069        5.796       20.639       12.679      347.261       26.103      864.263
08/19/2013  09:55:00       42.793       -9.964       34.491       49.497       41.570       32.156     2449.928     1728.056     1034.019        0.417        0.261       43.937       25.014        0.324      347.141       25.896      864.275
08/19/2013  09:56:00      -14.223      -20.276       34.108       33.039       48.709       27.253     1091.601     2372.523      742.725        0.299        0.210       24.767       14.952        0.364      347.214       26.022      864.284
08/19/2013  09:57:00       11.736      -34.850       14.206       31.767       38.513       31.639     1009.120     1483.269     1001.045        0.252        0.175       36.773       32.452        0.779      347.285       26.143      864.292
08/19/2013  09:58:00       -3.812        1.172       35.476       25.739       32.712       17.069      662.487     1070.101      291.359        0.165        0.101        3.989       18.133       20.668      347.422       26.380      864.307
08/19/2013  09:59:00        5.597        6.714       30.319       38.167       35.213       27.856     1456.698     1239.953      775.976        0.223        0.174        8.741       26.355        9.091      347.097       25.820      864.311
08/19/2013  10:00:00        5.111       13.477       42.261       31.610       34.986       20.703      999.220     1224.044      428.635        0.232        0.133       14.414       19.399        1.811      347.130       25.877      864.324
08/19/2013  10:01:00       14.434        6.763       28.726       55.648       33.697       32.255     3096.707     1135.471     1040.370        0.318        0.264       15.939       32.507        4.159      347.113       25.848      864.336
08/19/2013  10:02:00       16.017      -12.427       30.829       33.645       37.195       19.133     1131.963     1383.462      366.069        0.212        0.144       20.272       14.042        0.480      347.249       26.080      864.346
08/19/2013  10:03:00       -1.217      -32.139       -0.239       21.954       26.572       24.095      481.984      706.076      580.562        0.140        0.088       32.162       17.343        0.291      347.144       25.901      864.361
08/19/2013  10:04:00       -5.117      -54.749       -5.349       29.475       33.910       29.086      868.802     1149.886      846.017        0.296        0.143       54.988       15.701        0.082      347.028       25.702      864.367
08/19/2013  10:05:00      -43.773      -10.959        8.334       39.732       25.008       28.996     1578.624      625.402      840.774        0.257        0.152       45.124       24.876        0.304      347.176       25.957      864.386
08/19/2013  10:06:00       -2.162        0.382        5.882       23.358       18.396       15.312      545.588      338.410      234.468        0.058        0.056        2.196       12.574       32.800      347.415       26.366      864.394
08/19/2013  10:07:00       18.686       -5.355       10.603       23.918       30.507       24.395      572.050      930.667      595.118        0.129        0.105       19.438       11.291        0.337      347.125       25.867      864.410
08/19/2013  10:08:00      -17.013        9.174       30.674       29.707       25.952       22.906      882.497      673.497      524.696        0.170        0.104       19.329       18.757        0.942      347.208       26.011      864.418
08/19/2013  10:09:00      -14.877        9.540        5.263       17.429       17.896       13.157      303.754      320.266      173.108        0.057        0.040       17.673        6.019        0.116      347.260       26.101      864.421
08/19/2013  10:10:00       -4.301        3.260        8.516       41.761       28.493       19.861     1743.990      811.859      394.447        0.153        0.148        5.397       14.936        7.660      347.143       25.900      864.437
08/19/2013  10:11:00      -16.925      -17.989       19.788       23.917       22.906       17.043      572.041      524.670      290.456        0.119        0.069       24.699       11.662        0.223      347.255       26.093      864.442
08/19/2013  10:12:00      -20.185        4.542       19.617       18.626       20.812       24.390      346.943      433.147      594.851        0.109        0.069       20.689       17.177        0.689      347.297       26.165      864.450
08/19/2013  10:13:00      -12.433      -30.734       -5.129       19.991       33.079       31.426      399.624     1094.236      987.567        0.180        0.124       33.154       25.601        0.596      347.322       26.208      864.456
08/19/2013  10:14:00       -2.959      -35.091       28.518       27.459       38.873       35.505      754.012     1511.099     1260.575        0.279        0.176       35.215       13.761        0.153      347.315       26.196      864.453
08/19/2013  10:15:00       21.651      -17.597       33.613       42.946       43.025       29.339     1844.316     1851.186      860.783        0.323        0.228       27.900       28.532        1.046      347.282       26.139      864.465
08/19/2013  10:16:00       21.192      -19.078       37.010       38.479       35.913       26.897     1480.612     1289.779      723.425        0.284        0.175       28.515       23.555        0.682      347.268       26.114      864.476
08/19/2013  10:17:00       13.987       -5.631       34.356       31.879       49.606       30.398     1016.286     2460.766      924.014        0.290        0.220       15.078       32.882        4.756      347.248       26.080      864.481
08/19/2013  10:18:00       19.655      -22.976       30.749       30.510       34.809       28.791      930.843     1211.698      828.902        0.242        0.149       30.235       25.968        0.738      347.294       26.158      864.495
08/19/2013  10:19:00        0.390      -46.838       16.991       24.914       36.818       32.154      620.683     1355.586     1033.851        0.275        0.151       46.840       13.217        0.080      347.244       26.073      864.494
08/19/2013  10:20:00       15.344      -14.677       21.464       27.454       27.739       27.888      753.735      769.434      777.758        0.161        0.115       21.233       14.047        0.438      347.330       26.222      864.505
08/19/2013  10:21:00       32.823      -26.796       18.023       40.397       48.965       34.801     1631.886     2397.542     1211.139        0.368        0.262       42.371       29.679        0.491      347.258       26.096      864.522
08/19/2013  10:22:00       23.653      -58.825        0.150       30.431       53.600       35.399      926.056     2873.000     1253.096        0.454        0.253       63.402       29.561        0.217      347.274       26.125      864.533
08/19/2013  10:23:00       22.390      -79.098        4.023       24.793       28.185       15.396      614.697      794.391      237.038        0.421        0.082       82.206       12.054        0.022      347.234       26.055      864.549
08/19/2013  10:24:00       34.474      -96.772       14.124       30.447       25.551       29.323      926.993      652.868      859.834        0.660        0.122      102.729       20.411        0.039      347.320       26.204      864.570
08/19/2013  10:25:00       51.684      -44.078       11.824       51.224       52.194       39.827     2623.905     2724.175     1586.159        0.584        0.347       67.927       36.276        0.285      347.299       26.167      864.575
08/19/2013  10:26:00       35.532      -15.942       20.428       47.029       34.697       33.139     2211.684     1203.876     1098.175        0.322        0.226       38.945       25.986        0.445      346.818       25.339      864.593
08/19/2013  10:27:00       30.790      -53.187        0.903       40.072       42.194       32.016     1605.771     1780.347     1025.054        0.409        0.221       61.456       27.403        0.199      347.156       25.922      864.611
08/19/2013  10:28:00       36.127      -73.677      -10.043       35.746       42.820       28.112     1277.743     1833.555      790.273        0.537        0.195       82.058       22.580        0.076      347.252       26.088      864.619
08/19/2013  10:29:00       58.994      -60.914       -1.831       35.916       35.799       38.543     1289.936     1281.603     1485.551        0.562        0.203       84.798       32.224        0.144      347.016       25.679      864.616
08/19/2013  10:30:00       38.753      -13.877        7.222       37.923       28.541       25.320     1438.133      814.578      641.093        0.232        0.145       41.162       26.041        0.400      346.789       25.288      864.620
08/19/2013  10:31:00       19.335       14.303       30.598       28.283       18.415       20.229      799.907      339.129      409.202        0.153        0.077       24.051       13.443        0.312      346.964       25.592      864.620
08/19/2013  10:32:00       20.329       -0.114       11.302       28.991       28.136       20.231      840.454      791.641      409.306        0.129        0.102       20.329       15.929        0.614      346.701       25.138      864.627
08/19/2013  10:33:00       -3.277       -8.441       23.553       15.076       22.342       13.654      227.297      499.145      186.437        0.077        0.046        9.054        7.341        0.657      347.041       25.723      864.624
08/19/2013  10:34:00        0.658        1.799       27.547       17.591       20.871       15.409      309.432      435.607      237.448        0.087        0.049        1.915        4.430        5.348      347.214       26.022      864.625
08/19/2013  10:35:00       27.400      -13.007       22.141       26.201       18.850       15.678      686.498      355.337      245.800        0.135        0.064       30.330       14.008        0.213      347.314       26.194      864.630
08/19/2013  10:36:00       -1.937       22.473       39.850       25.743       26.438       17.334      662.696      698.955      300.455        0.188        0.083       22.557       18.984        0.708      347.301       26.171      864.634
08/19/2013  10:37:00       -9.669      -21.122       11.806       25.407       20.361       18.690      645.498      414.560      349.319        0.104        0.070       23.230       18.923        0.664      347.177       25.958      864.642
08/19/2013  10:38:00       -3.142      -30.675       -8.879       22.322       22.557       14.524      498.293      508.813      210.942        0.112        0.061       30.836        9.412        0.093      347.269       26.116      864.656
08/19/2013  10:39:00       18.474       -4.752       19.509       21.375       13.362       14.069      456.877      178.554      197.932        0.079        0.042       19.076       13.194        0.478      347.176       25.956      864.663
08/19/2013  10:40:00       -4.904      -22.946       10.007       16.184       19.624       11.760      261.912      385.089      138.292        0.072        0.039       23.464        7.971        0.115      347.069       25.770      864.670
08/19/2013  10:41:00       29.086      -24.434      -16.189       32.923       32.677       18.252     1083.910     1067.817      333.132        0.209        0.124       37.987       11.261        0.088      346.891       25.465      864.669
08/19/2013  10:42:00      -10.261        8.318       26.645       23.474       26.406       19.923      551.006      697.295      396.939        0.126        0.082       13.209       14.670        1.233      347.177       25.957      864.660
08/19/2013  10:43:00        1.535      -12.109       26.907       22.028       23.615       16.137      485.214      557.648      260.393        0.109        0.065       12.206       13.053        1.144      347.382       26.309      864.666
08/19/2013  10:44:00       20.225      -14.455       18.501       29.241       28.415       23.626      855.020      807.386      558.209        0.159        0.111       24.859       21.794        0.769      347.185       25.972      864.670
08/19/2013  10:45:00       44.748      -58.349        1.679       30.278       39.066       24.453      916.754     1526.185      597.935        0.422        0.152       73.533       24.844        0.114      347.270       26.117      864.678
08/19/2013  10:46:00       51.590      -83.540       -7.673       37.761       46.599       26.758     1425.909     2171.479      716.011        0.701        0.216       98.186       23.805        0.059      347.277       26.130      864.676
08/19/2013  10:47:00       50.663      -45.486       -7.407       27.920       33.883       15.578      779.547     1148.049      242.679        0.343        0.109       68.086       10.621        0.024      346.903       25.486      864.675
08/19/2013  10:48:00       34.029      -30.158        0.148       24.610       28.645       21.589      605.672      820.558      466.075        0.198        0.095       45.470       11.596        0.065      347.050       25.737      864.675
08/19/2013  10:49:00        2.583       13.285       32.688       19.312       23.758       11.587      372.950      564.456      134.253        0.116        0.054       13.534        9.938        0.539      347.243       26.069      864.666
08/19/2013  10:50:00      -22.529        3.953       16.227       20.761       24.342       17.474      431.010      592.517      305.352        0.106        0.066       22.873       15.030        0.432      347.440       26.410      864.659
08/19/2013  10:51:00      -65.535      -26.024       -0.059       24.722       20.942       13.114      611.184      438.583      171.979        0.310        0.061       70.513       10.382        0.022      347.316       26.196      864.643
08/19/2013  10:52:00      -27.596       -1.462        4.243       33.917       14.824       16.974     1150.334      219.759      288.127        0.122        0.083       27.635       13.599        0.242      347.544       26.590      864.630
08/19/2013  10:53:00      -17.475       -5.286        1.717       25.128       21.177       14.759      631.408      448.445      217.820        0.082        0.065       18.257       10.693        0.343      347.350       26.255      864.625
08/19/2013  10:54:00      -15.108       -9.240       -0.056       20.467       16.425       12.415      418.900      269.795      154.140        0.058        0.042       17.710        8.977        0.257      347.491       26.499      864.624
08/19/2013  10:55:00       -7.868       -2.087        6.376       17.946       18.409       11.601      322.072      338.896      134.584        0.045        0.040        8.140        5.865        0.519      347.622       26.724      864.627
08/19/2013  10:56:00      -22.773      -57.416        3.793       18.493       25.217       15.060      341.995      635.919      226.806        0.252        0.060       61.767       11.214        0.033      347.443       26.413      864.637
08/19/2013  10:57:00        0.955      -30.833        9.349       20.856       25.200       24.169      434.969      635.050      584.132        0.135        0.083       30.847        6.297        0.042      347.273       26.122      864.642
08/19/2013  10:58:00       -0.567      -13.498       24.346       18.677       27.967       26.423      348.817      782.126      698.182        0.130        0.091       13.510       14.824        1.204      347.510       26.532      864.653
08/19/2013  10:59:00        6.400       -1.390       26.445       18.066       30.087       23.356      326.381      905.218      545.491        0.126        0.089        6.549       12.950        3.910      347.527       26.562      864.657
08/19/2013  11:00:00       -2.322       17.083       20.566       18.167       19.637       16.500      330.027      385.598      272.256        0.085        0.049       17.240        7.876        0.209      347.471       26.464      864.658
08/19/2013  11:01:00      -13.203       -6.743       14.167       15.641       19.432       15.656      244.628      377.586      245.122        0.064        0.043       14.825        9.038        0.372      347.605       26.695      864.656
08/19/2013  11:02:00       35.526      -27.708       -1.519       25.707       29.121       22.437      660.828      848.010      503.438        0.202        0.101       45.054       21.313        0.224      347.323       26.209      864.656
08/19/2013  11:03:00       16.072      -20.253       -0.781       15.524       21.720       15.440      240.995      471.772      238.381        0.081        0.048       25.856        8.948        0.120      347.259       26.098      864.654
08/19/2013  11:04:00       -8.497      -12.321       -0.270       14.015       20.069       13.441      196.429      402.784      180.658        0.050        0.039       14.967        9.407        0.395      347.625       26.729      864.650
08/19/2013  11:05:00      -29.969        3.493       21.050       17.993       37.040       27.042      323.746     1371.947      731.290        0.189        0.121       30.172       24.682        0.669      347.544       26.590      864.650
08/19/2013  11:06:00      -19.684        9.451       19.866       18.612       22.711       18.741      346.409      515.801      351.235        0.104        0.061       21.835       14.024        0.412      347.667       26.803      864.643
08/19/2013  11:07:00      -14.149      -13.874       20.772       35.978       26.058       18.590     1294.452      679.017      345.605        0.157        0.116       19.816       11.513        0.338      347.499       26.513      864.631
08/19/2013  11:08:00        3.023        2.084       21.863       53.208       24.582       22.637     2831.074      604.252      512.429        0.222        0.197        3.672       19.259       27.504      347.384       26.314      864.625
08/19/2013  11:09:00       -0.282      -22.712       -1.934       29.608       16.089       22.343      876.653      258.872      499.218        0.108        0.082       22.714       18.712        0.679      347.104       25.832      864.620
08/19/2013  11:10:00       46.809      -42.421       -0.484       34.851       20.672       19.551     1214.584      427.341      382.248        0.301        0.101       63.171       16.017        0.064      347.059       25.753      864.620
08/19/2013  11:11:00       15.792      -23.939       33.145       26.197       35.097       27.560      686.301     1231.771      759.529        0.230        0.134       28.679       20.246        0.498      347.279       26.133      864.614
08/19/2013  11:12:00       27.375      -59.881       17.637       39.477       51.243       34.591     1558.421     2625.819     1196.537        0.501        0.269       65.841       28.961        0.193      347.604       26.693      864.601
08/19/2013  11:13:00       29.695      -15.497       21.005       42.240       47.037       36.507     1784.241     2212.465     1332.747        0.345        0.266       33.496       36.850        1.210      347.410       26.359      864.575
08/19/2013  11:14:00       -3.011      -35.845       22.363       28.042       32.074       27.248      786.336     1028.760      742.441        0.218        0.128       35.971       13.265        0.136      347.564       26.623      864.569
08/19/2013  11:15:00       22.908      -71.603        2.259       34.031       36.253       29.124     1158.084     1314.266      848.225        0.449        0.166       75.178       20.086        0.071      347.429       26.391      864.573
08/19/2013  11:16:00       19.218      -26.476       27.301       44.618       45.809       32.245     1990.788     2098.445     1039.747        0.347        0.256       32.716       36.166        1.222      347.498       26.512      864.577
08/19/2013  11:17:00       18.841       -5.148       31.923       34.046       47.107       26.529     1159.150     2219.070      703.812        0.274        0.204       19.531       28.514        2.131      347.520       26.548      864.575
08/19/2013  11:18:00       24.493      -42.133       12.290       33.740       45.588       35.214     1138.403     2078.311     1240.008        0.349        0.223       48.734       28.033        0.331      347.255       26.093      864.578
08/19/2013  11:19:00      -35.675      -45.890        0.226       41.128       45.200       26.104     1691.500     2043.023      681.416        0.390        0.221       58.126       19.291        0.110      347.569       26.634      864.568
08/19/2013  11:20:00        2.619       -0.352       18.708       44.097       31.182       29.679     1944.526      972.314      880.829        0.208        0.190        2.642       19.742       55.816      347.441       26.412      864.552
08/19/2013  11:21:00       12.801      -32.231       21.622       30.856       42.718       26.564      952.119     1824.865      705.661        0.258        0.174       34.680       24.984        0.519      347.461       26.446      864.558
08/19/2013  11:22:00       55.552      -57.479       17.165       33.520       67.867       26.626     1123.612     4605.902      708.956        0.656        0.322       79.937       34.284        0.184      347.573       26.641      864.564
08/19/2013  11:23:00       43.361      -32.726       24.239       38.475       37.523       26.425     1480.336     1407.982      698.263        0.356        0.179       54.325       18.695        0.118      347.408       26.356      864.562
08/19/2013  11:24:00       53.190      -10.631       33.048       61.388       68.780       47.302     3768.480     4730.722     2237.451        0.738        0.537       54.242       52.724        0.945      347.449       26.427      864.575
08/19/2013  11:25:00       48.122      -34.788       30.547       46.692       49.413       42.745     2180.162     2441.690     1827.119        0.545        0.322       59.379       32.595        0.301      347.476       26.472      864.587
08/19/2013  11:26:00       19.126      -14.371       29.649       43.297       57.426       35.641     1874.623     3297.788     1270.315        0.395        0.322       23.924       41.584        3.021      347.426       26.386      864.600
08/19/2013  11:27:00        0.106        0.435       36.206       26.643       54.798       31.832      709.853     3002.839     1013.257        0.302        0.236        0.447       34.696     6011.635      347.489       26.494      864.615
08/19/2013  11:28:00        5.661       13.773       34.142       24.397       27.102       14.380      595.206      734.507      206.788        0.146        0.077       14.891       10.782        0.524      347.337       26.232      864.631
08/19/2013  11:29:00       45.949       -5.680       20.454       48.591       26.179       23.684     2361.045      685.347      560.940        0.308        0.180       46.299       25.976        0.315      347.328       26.218      864.629
08/19/2013  11:30:00       66.860      -26.992       15.371       30.063       23.282       19.025      903.791      542.056      361.946        0.362        0.090       72.103       14.763        0.042      347.185       25.971      864.628
08/19/2013  11:31:00       43.829      -28.528       22.736       29.228       37.521       22.089      854.303     1407.806      487.923        0.300        0.138       52.296       24.437        0.218      347.286       26.144      864.626
08/19/2013  11:32:00       33.819      -23.694       13.342       32.178       34.594       21.598     1035.442     1196.778      466.455        0.229        0.135       41.293       23.167        0.315      347.556       26.609      864.619
08/19/2013  11:33:00       16.198      -35.641       17.340       27.790       46.107       21.350      772.275     2125.897      455.838        0.259        0.168       39.149       28.260        0.521      347.510       26.531      864.604
08/19/2013  11:34:00       72.316      -39.221       13.168       33.915       32.422       23.526     1150.211     1051.188      553.468        0.485        0.138       82.267       22.290        0.073      347.402       26.345      864.603
08/19/2013  11:35:00       25.576      -41.022       27.994       30.730       55.668       32.591      944.319     3098.948     1062.183        0.411        0.255       48.342       33.568        0.482      347.503       26.518      864.603
08/19/2013  11:36:00       45.332      -37.415       32.915       38.346       38.827       24.851     1470.433     1507.506      617.576        0.407        0.180       58.779       26.383        0.201      347.502       26.516      864.589
08/19/2013  11:37:00       55.503      -23.888       19.745       48.446       41.673       28.937     2347.001     1736.679      837.349        0.448        0.246       60.425       28.782        0.227      347.311       26.189      864.573
08/19/2013  11:38:00      -16.292      -37.969       18.634       52.063       56.563       34.826     2710.522     3199.329     1212.853        0.459        0.356       41.316       22.306        0.291      347.344       26.244      864.570
08/19/2013  11:39:00       50.400      -28.597       20.597       37.197       47.811       30.123     1383.633     2285.890      907.412        0.418        0.229       57.948       29.493        0.259      347.286       26.146      864.569
08/19/2013  11:40:00       37.445      -26.098       24.086       46.880       66.575       35.943     2197.725     4432.177     1291.866        0.529        0.396       45.643       40.787        0.799      347.270       26.118      864.555
08/19/2013  11:41:00       72.951      -64.886       40.340       90.036       85.121       44.968     8106.406     7245.615     2022.160        1.426        0.869       97.632       50.328        0.266      347.460       26.445      864.552
08/19/2013  11:42:00       -9.611      -31.475       10.991       38.646       52.128       30.444     1493.525     2717.324      926.854        0.317        0.257       32.909       21.511        0.427      347.458       26.441      864.553
08/19/2013  11:43:00      -50.180       -9.729       -0.681       26.463       14.984       17.296      700.303      224.535      299.168        0.192        0.061       51.114       17.664        0.119      347.512       26.534      864.546
08/19/2013  11:44:00      -14.765        1.614        3.946       14.553        9.040       10.659      211.780       81.723      113.624        0.032        0.020       14.853        7.522        0.256      347.581       26.652      864.538
08/19/2013  11:45:00        3.536      -17.018       -4.766       15.168       21.628       17.277      230.069      467.759      298.484        0.066        0.050       17.382       16.572        0.909      347.231       26.051      864.539
08/19/2013  11:46:00      -24.251      -28.929       -0.256       31.234       26.527       18.522      975.575      703.665      343.070        0.172        0.101       37.749       18.696        0.245      347.513       26.535      864.550
08/19/2013  11:47:00        3.786      -11.193       21.763       59.603       41.661       27.145     3552.474     1735.633      736.859        0.332        0.301       11.816       23.414        3.927      347.513       26.535      864.547
08/19/2013  11:48:00       19.306      -38.593       15.395       33.644       49.956       30.779     1131.924     2495.603      947.370        0.334        0.229       43.152       32.230        0.558      347.506       26.526      864.544
08/19/2013  11:49:00       24.474        4.194       36.475       33.673       44.471       31.110     1133.888     1977.650      967.829        0.301        0.204       24.831       22.138        0.795      347.227       26.044      864.533
08/19/2013  11:50:00       26.276      -47.594        5.205       38.915       51.707       32.859     1514.402     2673.646     1079.725        0.412        0.263       54.365       26.477        0.237      347.226       26.042      864.548
08/19/2013  11:51:00       55.451      -37.904       30.873       53.222       79.088       35.477     2832.551     6254.867     1258.590        0.790        0.517       67.168       35.986        0.287      347.473       26.467      864.565
08/19/2013  11:52:00       72.098      -33.716       34.058       55.319       74.521       43.360     3060.167     5553.342     1880.127        0.899        0.525       79.592       44.568        0.314      347.488       26.493      864.570
08/19/2013  11:53:00        9.874      -25.842        2.390       61.679       49.620       38.767     3804.352     2462.105     1502.862        0.427        0.388       27.664       34.216        1.530      347.252       26.085      864.589
08/19/2013  11:54:00       16.009        3.437        5.459       18.736       32.027       20.971      351.054     1025.697      439.769        0.106        0.091       16.373       18.406        1.264      347.597       26.681      864.612
08/19/2013  11:55:00      -12.931       50.559       -4.901       22.301       32.166       16.021      497.346     1034.675      256.688        0.227        0.089       52.186       15.912        0.093      347.592       26.673      864.614
08/19/2013  11:56:00      -13.459       53.213       -0.337       13.106       14.688        9.129      171.757      215.738       83.341        0.174        0.024       54.889        3.816        0.005      347.681       26.827      864.622
08/19/2013  11:57:00        5.397        2.306       13.914       11.080       12.894        9.492      122.762      166.247       90.100        0.030        0.019        5.869        7.483        1.625      347.691       26.843      864.631
08/19/2013  11:58:00      -19.252       29.008        0.194       25.160       20.460       11.508      633.012      418.616      132.428        0.120        0.059       34.815       13.043        0.140      347.535       26.574      864.633
08/19/2013  11:59:00      -26.479       43.690       -4.500       16.377       19.618       15.429      268.204      384.857      238.043        0.176        0.045       51.087       11.880        0.054      347.524       26.556      864.626
08/19/2013  12:00:00      -52.921       52.518      -10.429       12.878       18.068       12.079      165.843      326.468      145.899        0.315        0.032       74.557        7.416        0.010      347.512       26.537      864.611
08/19/2013  12:01:00      -60.204       27.147       -3.458       17.576       13.461       10.798      308.928      181.197      116.595        0.249        0.030       66.042        7.973        0.015      347.563       26.622      864.608
08/19/2013  12:02:00      -35.164       24.744        1.207       18.142       18.436       17.180      329.126      339.895      295.160        0.141        0.048       42.998        6.892        0.026      347.556       26.610      864.588
08/19/2013  12:03:00      -69.351       57.595      -16.631       33.553       31.434       14.367     1125.793      988.092      206.397        0.536        0.116       90.148       17.622        0.038      347.611       26.706      864.557
08/19/2013  12:04:00      -75.956       42.231      -17.893       35.741       22.990       13.501     1277.389      528.559      182.278        0.493        0.099       86.907       15.530        0.032      347.569       26.633      864.544
08/19/2013  12:05:00      -53.271       31.322       -3.431       24.223       21.054       21.302      586.768      443.261      453.760        0.266        0.074       61.797       19.707        0.102      347.516       26.541      864.535
08/19/2013  12:06:00        4.816       66.872        7.405       30.223       39.126       27.426      913.449     1530.865      752.200        0.387        0.160       67.045       24.672        0.135      347.670       26.807      864.520
08/19/2013  12:07:00       26.685       64.446        0.246       30.042       39.764       25.724      902.530     1581.158      661.712        0.400        0.157       69.753       16.046        0.053      347.670       26.807      864.503
08/19/2013  12:08:00       46.649       30.551       15.545       21.516       21.809       27.087      462.941      475.623      733.702        0.251        0.084       55.763       12.140        0.047      347.628       26.734      864.497
08/19/2013  12:09:00       49.242       12.166       -4.679       20.904       24.677       16.459      436.965      608.961      270.892        0.196        0.066       50.723        8.317        0.027      347.513       26.537      864.488
08/19/2013  12:10:00       22.648      -19.683       -0.586       39.204       20.591       14.155     1536.992      423.987      200.363        0.153        0.108       30.006       11.574        0.149      347.167       25.940      864.477
08/19/2013  12:11:00      -35.533      -43.785       -2.695       18.720       26.511       12.607      350.431      702.825      158.942        0.220        0.061       56.389        9.508        0.028      347.469       26.460      864.489
08/19/2013  12:12:00      -23.219      -30.560       -0.088       21.954       33.476       24.475      481.962     1120.670      599.043        0.184        0.110       38.380       24.050        0.393      347.656       26.782      864.491
08/19/2013  12:13:00       -2.799       67.718        8.414       16.361       37.821       18.780      267.684     1430.446      352.707        0.336        0.103       67.776       17.729        0.068      347.678       26.822      864.477
08/19/2013  12:14:00        6.002       20.876       -1.895       19.262       30.237       24.020      371.041      914.288      576.959        0.117        0.093       21.721       21.454        0.976      347.675       26.815      864.453
08/19/2013  12:15:00       27.354       83.273       -4.503       48.833       43.753       23.811     2384.680     1914.284      566.980        0.628        0.243       87.651       24.197        0.076      347.551       26.601      864.437
08/19/2013  12:16:00       16.746       67.069      -16.452       31.523       33.873       15.067      993.727     1147.388      227.017        0.371        0.118       69.128       18.586        0.072      347.724       26.900      864.436
08/19/2013  12:17:00      -48.068       85.970       -7.732       18.823       30.549       14.301      354.313      933.228      204.517        0.563        0.075       98.495        9.985        0.010      347.554       26.609      864.443
08/19/2013  12:18:00      -18.764       27.875        7.984       20.446       18.486       19.857      418.047      341.722      394.304        0.117        0.058       33.603        8.462        0.063      347.688       26.838      864.440
08/19/2013  12:19:00       24.783      -13.607       -6.036       18.138       27.716       14.147      328.992      768.196      200.145        0.107        0.065       28.273        7.782        0.076      347.375       26.298      864.439
08/19/2013  12:20:00       31.254       -2.380       12.467       15.124       13.102       15.774      228.732      171.672      248.822        0.089        0.032       31.345        9.142        0.085      347.190       25.979      864.433
08/19/2013  12:21:00       42.132       -2.415        9.372       20.997       20.890       26.548      440.875      436.377      704.780        0.173        0.079       42.201       12.621        0.089      347.216       26.026      864.429
08/19/2013  12:22:00       55.950      -13.124       20.786       36.186       24.865       22.377     1309.421      618.278      500.722        0.308        0.121       57.468       14.705        0.065      347.175       25.953      864.419
08/19/2013  12:23:00       49.412      -13.492       10.247       24.823       17.228       21.968      616.195      296.818      482.572        0.206        0.070       51.221       12.138        0.056      347.127       25.871      864.409
08/19/2013  12:24:00       44.139        7.326       10.603       14.468       14.119       17.088      209.331      199.353      291.984        0.141        0.035       44.743       10.723        0.057      347.275       26.125      864.412
08/19/2013  12:25:00       58.424        8.043       15.574       21.684       24.403       19.589      470.207      595.488      383.711        0.258        0.072       58.975       13.344        0.051      347.330       26.219      864.418
08/19/2013  12:26:00       28.453        4.427        8.318       26.138       23.327       21.713      683.185      544.148      471.436        0.130        0.085       28.795        8.750        0.092      347.172       25.948      864.423
08/19/2013  12:27:00       27.058       35.695        3.607       32.049       24.729       19.126     1027.145      611.516      365.814        0.201        0.100       44.791       12.557        0.079      347.210       26.014      864.429
08/19/2013  12:28:00      -16.444       -8.332        3.946       19.168       18.177       15.343      367.409      330.421      235.409        0.064        0.047       18.435       13.160        0.510      347.248       26.080      864.429
08/19/2013  12:29:00       25.284       22.541        0.650       24.683       22.865       18.083      609.250      522.824      326.989        0.130        0.073       33.873        8.730        0.066      347.482       26.483      864.425
08/19/2013  12:30:00       -3.319       11.005       11.117       29.510       40.671       27.936      870.859     1654.120      780.407        0.178        0.165       11.494       29.533        6.602      347.399       26.341      864.410
08/19/2013  12:31:00      -14.831       -8.280        7.939       16.506       18.743       16.556      272.461      351.304      274.099        0.062        0.045       16.986        9.049        0.284      347.397       26.336      864.382
08/19/2013  12:32:00       11.939       -5.237        6.379       22.066       28.417       19.333      486.910      807.517      373.768        0.094        0.083       13.037       15.997        1.506      347.355       26.263      864.367
08/19/2013  12:33:00        8.264       10.207        5.339       31.086       27.035       16.792      966.368      730.874      281.961        0.109        0.099       13.133       13.684        1.086      347.678       26.820      864.351
08/19/2013  12:34:00       58.415       38.625       21.180       40.575       24.019       27.594     1646.316      576.902      761.445        0.417        0.149       70.030       22.367        0.102      347.812       27.052      864.340
08/19/2013  12:35:00       72.198       50.911        5.344       37.453       23.851       20.107     1402.762      568.857      404.298        0.510        0.119       88.343       16.179        0.034      347.744       26.933      864.321
08/19/2013  12:36:00       51.876       38.400        0.953       43.204       33.703       21.145     1866.565     1135.898      447.120        0.381        0.172       64.542       19.051        0.087      347.779       26.996      864.307
08/19/2013  12:37:00       35.481       40.745        8.398       26.010       22.337       22.673      676.509      498.921      514.068        0.234        0.084       54.028       14.676        0.074      347.809       27.050      864.298
08/19/2013  12:38:00       31.325       78.874       -6.991       17.956       28.868       13.449      322.403      833.379      180.883        0.429        0.067       84.867       13.365        0.025      347.825       27.074      864.298
08/19/2013  12:39:00        2.936       54.445       -0.599       18.534       16.636       17.413      343.497      276.764      303.202        0.195        0.046       54.524       10.216        0.035      347.826       27.076      864.294
08/19/2013  12:40:00        5.431       43.719       -6.642       13.858       13.114        8.820      192.048      171.974       77.785        0.121        0.022       44.055        7.146        0.026      347.817       27.059      864.287
08/19/2013  12:41:00      -15.692       32.740       -7.791       16.197       14.987        7.481      262.353      224.617       55.965        0.096        0.027       36.307        6.062        0.028      347.751       26.948      864.278
08/19/2013  12:42:00        0.920       39.505        3.370       16.579       18.695       14.807      274.862      349.499      219.249        0.121        0.042       39.515        9.171        0.054      347.798       27.027      864.270
08/19/2013  12:43:00       28.377       12.986       -4.771       17.557       20.492       16.910      308.255      419.925      285.948        0.101        0.051       31.208       10.095        0.105      347.491       26.497      864.254
08/19/2013  12:44:00       22.626        5.637       -3.656       16.911       16.037       21.951      285.980      257.195      481.849        0.079        0.051       23.317       11.439        0.241      347.430       26.394      864.241
08/19/2013  12:45:00        0.403       23.651       16.208       16.006       21.494       18.227      256.179      461.985      332.238        0.094        0.053       23.655       13.203        0.312      347.341       26.241      864.225
08/19/2013  12:46:00       29.191       -0.729       -1.671       14.469       17.382       13.174      209.355      302.125      173.555        0.077        0.034       29.201        8.840        0.092      347.552       26.602      864.208
08/19/2013  12:47:00       36.755      -28.373        0.983       23.070       28.449       28.380      532.205      809.325      805.443        0.215        0.107       46.432       15.671        0.114      347.325       26.212      864.206
08/19/2013  12:48:00       -0.240      -17.275        1.751       11.273       17.625       12.936      127.091      310.644      167.334        0.045        0.030       17.277        3.965        0.053      347.383       26.311      864.206
08/19/2013  12:49:00        2.825      -12.173        0.826        6.878        6.897        8.569       47.301       47.568       73.433        0.016        0.008       12.497        5.833        0.218      347.664       26.797      864.211
08/19/2013  12:50:00       -6.545      -20.020        3.265       10.471       10.241        7.760      109.648      104.886       60.222        0.036        0.014       21.063        6.928        0.108      347.760       26.963      864.216
08/19/2013  12:51:00      -42.635      -39.882       -0.161       32.671       24.011       13.371     1067.406      576.517      178.791        0.262        0.091       58.381       12.073        0.043      347.821       27.069      864.212
08/19/2013  12:52:00      -25.271      -22.194       12.566       41.029       39.517       24.216     1683.394     1561.568      586.428        0.256        0.192       33.633       22.836        0.461      347.902       27.207      864.220
08/19/2013  12:53:00      -68.320      -82.934        2.130       63.347       55.250       36.375     4012.881     3052.582     1323.143        0.997        0.419      107.451       30.317        0.080      347.833       27.087      864.231
08/19/2013  12:54:00      -61.139      -51.358        1.291       53.798       40.943       32.353     2894.199     1676.334     1046.744        0.600        0.281       79.848       31.878        0.159      347.830       27.083      864.228
08/19/2013  12:55:00      -30.534      -13.519        3.150       37.081       26.189       14.824     1375.005      685.856      219.763        0.170        0.114       33.393       17.487        0.274      347.744       26.934      864.206
08/19/2013  12:56:00      -33.629      -75.112       -1.676       40.684       41.574       19.977     1655.186     1728.435      399.063        0.528        0.189       82.297       22.452        0.074      347.862       27.138      864.204
08/19/2013  12:57:00      -72.205      -88.914       13.626       87.684       60.006       33.751     7688.474     3600.697     1139.133        1.286        0.621      114.539       36.103        0.099      347.888       27.181      864.194
08/19/2013  12:58:00     -205.310      -83.530       -9.726       86.147       81.195       45.473     7421.375     6592.643     2067.821        3.265        0.804      221.651       44.188        0.040      347.886       27.176      864.185
08/19/2013  12:59:00     -182.758       13.109      -11.809       84.374       35.069       29.326     7118.928     1229.821      859.994        2.146        0.460      183.227       34.441        0.035      347.929       27.249      864.175
08/19/2013  13:00:00      -75.868      -54.147        4.000       61.603       55.216       24.347     3794.971     3048.829      592.793        0.807        0.372       93.209       25.628        0.076      347.935       27.263      864.162
08/19/2013  13:01:00      -69.511      -81.928        3.607       63.326       49.750       31.663     4010.143     2475.108     1002.560        0.952        0.374      107.443       35.524        0.109      347.906       27.215      864.158
08/19/2013  13:02:00      -77.337     -112.370       -0.953       57.537       60.271       36.817     3310.503     3632.587     1355.527        1.345        0.415      136.411       32.513        0.057      347.932       27.257      864.156
08/19/2013  13:03:00     -112.716      -93.056       -8.084       40.882       37.704       26.664     1671.318     1421.560      710.947        1.262        0.190      146.166       22.115        0.023      347.922       27.241      864.149
08/19/2013  13:04:00     -161.659     -101.569       -6.666       58.084       46.539       26.088     3373.780     2165.909      680.594        2.136        0.311      190.918       26.658        0.019      347.932       27.255      864.127
08/19/2013  13:05:00      -77.965      -16.428        7.117       58.861       32.631       30.667     3464.592     1064.766      940.437        0.593        0.273       79.677       32.243        0.164      347.932       27.259      864.103
08/19/2013  13:06:00     -101.323      -18.118        0.738       40.350       36.058       27.154     1628.103     1300.196      737.355        0.713        0.183      102.930       24.150        0.055      347.906       27.214      864.083
08/19/2013  13:07:00     -128.527      -17.152        2.626       58.603       52.224       33.544     3434.269     2727.361     1125.223        1.205        0.364      129.666       31.746        0.060      347.925       27.245      864.070
08/19/2013  13:08:00     -168.073      -57.301       -1.431       96.135       53.845       35.995     9241.878     2899.294     1295.648        2.248        0.672      177.573       44.668        0.063      347.922       27.240      864.057
08/19/2013  13:09:00     -158.926      -59.301       -4.237       59.597       52.679       28.244     3551.782     2775.040      797.736        1.796        0.356      169.629       30.498        0.032      347.894       27.193      864.042
08/19/2013  13:10:00     -199.693     -103.890       -4.290       85.982      102.463       46.169     7392.877    10498.580     2131.585        3.535        1.001      225.100       50.848        0.051      347.932       27.255      864.030
08/19/2013  13:11:00     -149.434      -70.289       -1.783       95.403       82.477       44.741     9101.644     6802.510     2001.760        2.259        0.895      165.139       42.274        0.066      347.923       27.240      864.023
08/19/2013  13:12:00     -198.987     -131.263       -6.129       76.988       68.331       45.611     5927.112     4669.133     2080.406        3.477        0.634      238.381       36.001        0.023      347.924       27.241      864.005
08/19/2013  13:13:00     -231.870     -125.616       -2.874       78.518       68.907       47.050     6165.072     4748.198     2213.742        4.134        0.656      263.711       44.628        0.029      347.900       27.198      863.989
08/19/2013  13:14:00     -163.985      -80.804        0.343       85.144       74.195       39.270     7249.579     5504.927     1542.098        2.386        0.715      182.812       40.415        0.049      347.912       27.221      863.976
08/19/2013  13:15:00     -240.111      -83.512      -12.667      113.912       78.268       45.425    12975.875     6125.824     2063.435        4.297        1.058      254.220       44.626        0.031      347.905       27.208      863.958
08/19/2013  13:16:00     -175.133      -91.733       -3.455      141.885       65.346       47.954    20131.490     4270.054     2299.546        3.290        1.335      197.703       49.546        0.063      347.917       27.229      863.921
08/19/2013  13:17:00     -278.569     -110.434      -11.719       90.958       72.434       46.441     8273.380     5246.668     2156.728        5.280        0.784      299.661       40.632        0.018      347.908       27.212      863.899
08/19/2013  13:18:00     -164.884     -110.235      -12.112      119.600       98.181       53.287    14304.150     9639.422     2839.468        3.313        1.339      198.339       47.817        0.058      347.912       27.221      863.881
08/19/2013  13:19:00     -310.585     -108.715      -11.665      136.686      103.624       62.356    18682.992    10737.837     3888.317        7.086        1.665      329.062       74.219        0.051      347.925       27.242      863.861
08/19/2013  13:20:00     -327.953     -119.170       -7.428      103.205      109.174       61.081    10651.214    11918.897     3730.921        7.405        1.315      348.933       58.131        0.028      347.925       27.243      863.854
08/19/2013  13:21:00     -208.539      -39.385        6.163      119.711       88.136       61.712    14330.734     7768.026     3808.319        3.549        1.295      212.226       57.988        0.075      347.941       27.271      863.843
08/19/2013  13:22:00     -284.617      -68.302      -21.799      113.995      117.158       52.690    12994.876    13725.982     2776.210        5.782        1.475      292.698       52.826        0.033      347.942       27.273      863.839
08/19/2013  13:23:00     -286.269      -39.557       -1.750      106.229      122.026       68.283    11284.624    14890.385     4662.521        5.717        1.542      288.989       43.907        0.023      347.937       27.266      863.815
08/19/2013  13:24:00     -373.330     -104.934      -15.048      186.635      130.387       65.607    34832.571    17000.846     4304.242       10.337        2.807      387.797       70.781        0.033      347.930       27.252      863.813
08/19/2013  13:25:00     -113.766      -22.187       11.022      131.900       89.399       58.472    17397.683     7992.148     3418.953        2.118        1.440      115.910       50.694        0.191      347.952       27.293      863.795
08/19/2013  13:26:00     -347.584      -35.676       -7.994      179.045      135.311       76.037    32057.166    18308.959     5781.560        8.914        2.807      349.410       88.318        0.064      347.950       27.290      863.786
08/19/2013  13:27:00     -367.873     -136.859       -4.450      190.927      146.132       80.136    36453.099    21354.450     6421.855       10.914        3.211      392.506       86.476        0.049      347.946       27.280      863.777
08/19/2013  13:28:00     -375.236       -6.015      -10.830      152.447      124.336       61.387    23240.239    15459.386     3768.419        9.170        2.123      375.285       72.401        0.037      347.941       27.272      863.775
08/19/2013  13:29:00     -286.983      -45.427       -5.914      134.852      104.423       59.501    18184.986    10904.149     3540.335        5.854        1.631      290.556       60.872        0.044      347.951       27.289      863.771
08/19/2013  13:30:00     -295.823      -70.646       -1.886      171.339      136.338       76.302    29357.130    18588.007     5822.009        7.313        2.688      304.142       91.045        0.090      347.957       27.300      863.766
08/19/2013  13:31:00     -148.042      -15.346       10.727      114.360       73.936       46.118    13078.144     5466.524     2126.836        2.147        1.034      148.836       55.374        0.138      347.938       27.268      863.775
08/19/2013  13:32:00     -194.672      -63.276       -7.095      113.683      122.968       55.397    12923.761    15121.016     3068.826        3.653        1.556      204.697       41.879        0.042      347.960       27.306      863.769
08/19/2013  13:33:00     -130.733     -126.379       11.904      160.082      109.080       73.468    25626.213    11898.414     5397.561        3.806        2.146      181.832       89.196        0.241      347.971       27.326      863.763
08/19/2013  13:34:00     -108.847      -76.254       17.601      122.516       83.073       52.970    15010.284     6901.157     2805.863        2.134        1.236      132.900       51.983        0.153      347.974       27.331      863.770
08/19/2013  13:35:00     -261.256     -111.556       -2.786      111.828       93.557       47.354    12505.513     8752.931     2242.386        5.210        1.175      284.077       50.954        0.032      347.962       27.308      863.779
08/19/2013  13:36:00     -197.785       12.125      -26.389      120.192       61.441       43.568    14446.019     3775.002     1898.129        3.004        1.006      198.156       26.463        0.018      347.966       27.318      863.772
08/19/2013  13:37:00     -292.417      -85.401      -24.940      107.150      115.819       47.301    11481.087    13414.072     2237.393        6.027        1.357      304.633       38.494        0.016      347.954       27.296      863.783
08/19/2013  13:38:00     -221.472      -84.657       -4.260      159.650      123.040       69.073    25488.209    15138.760     4771.044        5.081        2.270      237.101       83.584        0.124      347.961       27.308      863.789
08/19/2013  13:39:00     -105.952      -67.345        4.282       72.715       68.101       38.808     5287.494     4637.804     1506.077        1.360        0.572      125.544       40.209        0.103      347.974       27.332      863.811
08/19/2013  13:40:00     -175.283      -76.267       -1.632       74.420       75.251       42.289     5538.312     5662.652     1788.320        2.476        0.649      191.156       34.059        0.032      347.962       27.309      863.821
08/19/2013  13:41:00     -114.226      -87.420       -3.611       60.701       47.439       31.261     3684.662     2250.442      977.257        1.381        0.346      143.840       20.352        0.020      347.961       27.310      863.835
08/19/2013  13:42:00     -162.803     -175.935        6.100      138.884      122.391       64.070    19288.851    14979.451     4105.004        4.793        1.919      239.704       70.324        0.086      347.958       27.303      863.841
08/19/2013  13:43:00     -162.120     -118.700        8.048      122.790       90.159       57.469    15077.410     8128.565     3302.637        3.347        1.325      200.929       71.997        0.128      347.948       27.283      863.835
08/19/2013  13:44:00     -232.311     -131.744        4.800      152.546       97.951       58.391    23270.308     9594.436     3409.557        5.381        1.814      267.067       65.405        0.060      347.938       27.267      863.838
08/19/2013  13:45:00     -192.251      -75.966       -1.472      108.555       88.272       47.081    11784.095     7791.859     2216.630        3.226        1.090      206.715       50.211        0.059      347.929       27.250      863.852
08/19/2013  13:46:00     -159.480      -49.435        6.235      102.658       70.768       41.869    10538.696     5008.164     1752.992        2.261        0.865      166.966       47.749        0.082      347.928       27.249      863.858
08/19/2013  13:47:00     -155.333      -94.764       13.591      105.031       76.442       51.107    11031.450     5843.315     2611.910        2.639        0.974      181.958       59.260        0.106      347.935       27.262      863.857
08/19/2013  13:48:00     -151.942     -102.707       -9.885      105.835       94.506       56.130    11201.103     8931.466     3150.620        2.850        1.164      183.398       58.489        0.102      347.932       27.255      863.856
08/19/2013  13:49:00     -136.449      -95.766        6.400       90.525       85.299       46.863     8194.853     7275.934     2196.148        2.275        0.883      166.702       44.557        0.071      347.928       27.248      863.861
08/19/2013  13:50:00     -117.243     -119.357        9.009      134.368      102.766       61.627    18054.697    10560.934     3797.876        3.024        1.621      167.308       77.693        0.216      347.913       27.221      863.861
08/19/2013  13:51:00     -142.779      -48.218        3.120       72.130       73.451       45.670     5202.668     5395.093     2085.720        1.770        0.634      150.701       38.715        0.066      347.915       27.227      863.860
08/19/2013  13:52:00     -170.700      -95.318        0.281      130.487      102.049       60.050    17026.890    10413.898     3605.993        3.463        1.552      195.510       69.236        0.125      347.906       27.213      863.862
08/19/2013  13:53:00     -189.986      -33.049        3.760       96.974       83.476       47.667     9403.887     6968.219     2272.102        2.792        0.932      192.839       49.162        0.065      347.931       27.255      863.857
08/19/2013  13:54:00     -112.393      -19.021        9.940       84.108       68.253       38.806     7074.180     4658.515     1505.878        1.316        0.662      113.991       30.059        0.070      347.914       27.226      863.859
08/19/2013  13:55:00      -77.143      -53.297       15.097      121.511       97.125       69.459    14764.890     9433.208     4824.492        1.902        1.451       93.764       64.998        0.481      347.906       27.213      863.848
08/19/2013  13:56:00     -197.434      -77.434       -0.202      108.005       92.885       56.207    11665.154     8627.594     3159.171        3.421        1.173      212.076       52.310        0.061      347.926       27.246      863.854
08/19/2013  13:57:00     -224.274      -42.907       -9.172      117.889       86.221       45.372    13897.724     7434.064     2058.655        3.780        1.170      228.341       43.813        0.037      347.910       27.219      863.851
08/19/2013  13:58:00     -183.569      -28.657       -2.521      115.835       87.133       57.031    13417.680     7592.095     3252.583        2.939        1.213      185.792       63.026        0.115      347.912       27.223      863.846
08/19/2013  13:59:00     -229.545     -121.146       -7.489      111.227      105.761       60.966    12371.495    11185.340     3716.795        4.734        1.364      259.552       58.486        0.051      347.948       27.283      863.846
08/19/2013  14:00:00     -167.770      -38.745        5.400      144.911      103.955       63.462    20999.070    10806.548     4027.422        3.275        1.792      172.186       66.902        0.151      347.949       27.287      863.828
08/19/2013  14:01:00     -191.098      -89.972        1.175      146.118      108.205       56.938    21350.486    11708.355     3241.945        4.045        1.815      211.219       76.055        0.130      347.965       27.314      863.829
08/19/2013  14:02:00     -201.430     -130.227      -11.680      114.389      101.614       62.419    13084.953    10325.410     3896.107        4.248        1.365      239.860       62.105        0.067      347.936       27.263      863.840
08/19/2013  14:03:00     -159.298     -147.812        7.407      117.773       96.071       61.272    13870.512     9229.544     3754.294        3.706        1.343      217.312       70.121        0.104      347.945       27.280      863.843
08/19/2013  14:04:00     -247.480     -126.083      -14.361      119.869      120.268       60.169    14368.642    14464.353     3620.284        5.490        1.623      277.747       64.672        0.054      347.950       27.289      863.843
08/19/2013  14:05:00     -126.131      -66.804        7.792       84.196       81.645       49.501     7088.915     6665.940     2450.306        1.832        0.810      142.730       42.930        0.090      347.952       27.293      863.846
08/19/2013  14:06:00      -92.893      -82.156       -1.880       99.485       76.589       54.638     9897.360     5865.854     2985.333        1.706        0.937      124.011       43.812        0.125      347.947       27.283      863.829
08/19/2013  14:07:00     -153.070      -61.183       13.747      121.935       82.354       48.719    14868.227     6782.245     2373.518        2.569        1.201      164.845       52.644        0.102      347.937       27.265      863.822
08/19/2013  14:08:00     -329.901     -103.039      -16.137      130.320      128.136       58.628    16983.273    16418.751     3437.300        7.827        1.842      345.618       59.505        0.030      347.942       27.273      863.829
08/19/2013  14:09:00     -404.430     -113.468      -21.134      163.176      116.303       66.075    26626.444    13526.371     4365.922       11.069        2.226      420.046       70.775        0.028      347.934       27.259      863.827
08/19/2013  14:10:00     -200.320      -96.588       -4.782      151.866      118.235       50.135    23063.232    13979.623     2513.490        4.451        1.978      222.390       56.395        0.064      347.925       27.242      863.820
08/19/2013  14:11:00     -347.268      -53.838       -8.708      125.829       94.180       69.116    15833.057     8869.807     4777.046        7.652        1.474      351.417       65.750        0.035      347.932       27.255      863.825
08/19/2013  14:12:00     -255.714       -7.366       -7.349      145.236       79.784       51.367    21093.611     6365.537     2638.577        4.779        1.505      255.820       58.198        0.052      347.923       27.240      863.832
08/19/2013  14:13:00     -247.912      -45.617      -14.772      157.010       87.354       55.412    24652.222     7630.637     3070.511        4.955        1.768      252.074       73.518        0.085      347.938       27.266      863.834
08/19/2013  14:14:00     -362.869      -17.806      -17.659      162.067       96.928       66.873    26265.783     9395.123     4471.979        8.621        2.007      363.306       74.858        0.042      347.915       27.227      863.829
08/19/2013  14:15:00     -374.164      -21.975      -29.483      116.555       64.753       55.150    13585.078     4192.996     3041.510        8.108        1.041      374.809       53.922        0.021      347.933       27.258      863.831
08/19/2013  14:16:00     -332.074      -75.892      -12.374      131.502       81.118       51.512    17292.756     6580.199     2653.459        7.135        1.326      340.636       51.246        0.023      347.936       27.263      863.827
08/19/2013  14:17:00     -281.877      -52.303      -16.254      115.102      125.766       60.276    13248.448    15817.096     3633.161        5.757        1.635      286.688       51.313        0.032      347.956       27.299      863.824
08/19/2013  14:18:00     -411.818     -128.771      -16.756      139.935       94.873       58.896    19581.803     9000.947     3468.711       10.925        1.603      431.481       58.426        0.018      347.960       27.305      863.815
08/19/2013  14:19:00     -271.665      -79.192       -7.095      105.466       77.441       55.460    11123.008     5997.074     3075.794        5.016        1.010      282.972       60.988        0.046      347.976       27.334      863.816
08/19/2013  14:20:00     -334.537       -0.019      -22.113      120.877       87.118       55.900    14611.160     7589.586     3124.794        6.886        1.266      334.537       58.403        0.030      347.984       27.346      863.815
08/19/2013  14:21:00     -255.134        3.673      -12.376       86.432       75.572       41.013     7470.566     5711.143     1682.087        4.006        0.743      255.160       40.536        0.025      347.980       27.340      863.812
08/19/2013  14:22:00     -285.877     -118.189       -8.218      124.316       97.052       45.866    15454.463     9419.056     2103.694        6.136        1.349      309.345       46.173        0.022      347.979       27.337      863.806
08/19/2013  14:23:00     -241.259      -98.098      -13.876       97.642       91.977       52.396     9533.938     8459.695     2745.364        4.438        1.037      260.440       48.071        0.034      347.978       27.339      863.795
08/19/2013  14:24:00     -328.273        0.395      -25.697      118.783      101.658       60.911    14109.375    10334.289     3710.171        6.828        1.408      328.274       61.325        0.035      347.988       27.352      863.782
08/19/2013  14:25:00     -249.226      -96.479       -5.280      153.775       96.641       51.285    23646.791     9339.562     2630.129        5.353        1.781      267.249       54.156        0.041      348.004       27.383      863.777
08/19/2013  14:26:00     -343.383      -56.964      -22.252      101.904      112.556       54.381    10384.351    12668.936     2957.275        7.383        1.301      348.076       43.245        0.015      348.011       27.393      863.769
08/19/2013  14:27:00     -400.063      -85.937      -27.486      120.869      113.010       62.184    14609.365    12771.184     3866.831        9.971        1.562      409.189       59.540        0.021      348.024       27.414      863.754
08/19/2013  14:28:00     -310.623      -28.800      -14.746      118.301       89.639       53.984    13995.137     8035.067     2914.259        6.123        1.247      311.955       65.166        0.044      348.017       27.403      863.746
08/19/2013  14:29:00     -311.077      -87.392      -18.210       79.912      114.288       44.383     6385.931    13061.806     1969.864        6.307        1.071      323.119       37.135        0.013      347.998       27.371      863.738
08/19/2013  14:30:00     -281.078      -80.766      -18.510      134.382      122.006       63.000    18058.408    14885.579     3969.048        6.139        1.846      292.452       61.767        0.045      348.003       27.379      863.712
08/19/2013  14:31:00     -386.615     -141.399      -18.666      101.710      116.043       58.581    10344.830    13466.075     3431.790        9.852        1.362      411.661       61.239        0.022      347.989       27.355      863.699
08/19/2013  14:32:00     -254.787      -94.140       -8.649      115.797       93.728       55.684    13409.020     8784.947     3100.675        4.957        1.265      271.623       65.794        0.059      347.986       27.352      863.683
08/19/2013  14:33:00     -265.475      -90.867       -1.332      140.653      109.579       58.701    19783.302    12007.451     3445.827        5.698        1.762      280.596       59.909        0.046      347.995       27.366      863.669
08/19/2013  14:34:00     -401.913      -89.705      -26.247      126.157      133.181       65.017    15915.583    17737.210     4227.270       10.407        1.894      411.802       59.001        0.021      347.983       27.347      863.658
08/19/2013  14:35:00     -352.697      -31.451      -13.652      198.800      128.973       80.685    39521.483    16634.151     6510.012        9.411        3.133      354.096       94.208        0.071      348.013       27.397      863.643
08/19/2013  14:36:00     -440.719      -58.821      -39.125       94.742      120.915       65.383     8975.979    14620.340     4274.877       11.354        1.394      444.627       53.058        0.014      348.001       27.374      863.635
08/19/2013  14:37:00     -338.014       12.280      -11.954      207.552      113.193       78.377    43077.892    12812.701     6142.966        8.828        3.102      338.237       89.046        0.069      348.010       27.392      863.622
08/19/2013  14:38:00     -530.898      -50.897      -47.653      214.179      131.829       87.252    45872.592    17378.872     7612.988       17.878        3.543      533.332      105.053        0.039      348.007       27.386      863.599
08/19/2013  14:39:00     -432.358      -54.643      -26.092      184.023      132.198       80.645    33864.299    17476.230     6503.616       12.421        2.892      435.797       99.727        0.052      348.023       27.414      863.601
08/19/2013  14:40:00     -391.808     -151.561      -11.494      198.732      154.874       81.573    39494.542    23986.019     6654.150       12.336        3.507      420.101       89.686        0.046      348.019       27.407      863.580
08/19/2013  14:41:00     -318.125     -100.128       -8.236      151.403      134.150       65.844    22922.784    17996.309     4335.384        7.827        2.263      333.510       66.726        0.040      348.024       27.416      863.590
08/19/2013  14:42:00     -388.720      -77.526      -17.944      191.147      125.541       82.065    36537.095    15760.467     6734.703       10.822        2.952      396.376       87.071        0.048      348.008       27.388      863.599
08/19/2013  14:43:00     -337.745     -105.048      -20.625      150.500      117.426       63.449    22650.190    13788.919     4025.740        8.299        2.023      353.704       55.170        0.024      347.989       27.355      863.587
08/19/2013  14:44:00     -489.850     -156.384      -19.305      165.730      124.037       65.686    27466.466    15385.080     4314.685       15.597        2.358      514.207       60.311        0.014      347.978       27.337      863.590
08/19/2013  14:45:00     -321.459     -114.737      -16.706      152.691      110.876       67.149    23314.649    12293.380     4509.030        7.844        2.006      341.321       74.629        0.048      347.971       27.324      863.580
08/19/2013  14:46:00     -379.253      -94.566      -23.842      176.507      108.104       71.899    31154.584    11686.510     5169.445       10.067        2.401      390.865       84.344        0.047      347.965       27.313      863.578
08/19/2013  14:47:00     -419.789      -56.511      -39.536      114.292      138.830       61.519    13062.705    19273.836     3784.554       10.854        1.806      423.575       56.184        0.018      347.960       27.306      863.594
08/19/2013  14:48:00     -307.739      -55.708       -7.910      110.605      108.887       56.261    12233.543    11856.444     3165.334        6.256        1.363      312.741       45.172        0.021      347.974       27.330      863.590
08/19/2013  14:49:00     -376.943       11.713      -31.165      150.465       95.200       47.216    22639.664     9063.054     2229.365        8.856        1.697      377.124       61.073        0.026      347.959       27.302      863.603
08/19/2013  14:50:00     -311.633      -26.377      -26.012      118.561      102.919       52.605    14056.705    10592.378     2767.283        6.295        1.371      312.747       43.217        0.019      347.954       27.297      863.612
08/19/2013  14:51:00     -329.114       26.177      -17.668      116.111      108.974       51.192    13481.787    11875.375     2620.570        6.864        1.399      330.153       50.797        0.024      347.961       27.308      863.606
08/19/2013  14:52:00     -380.696     -110.514      -32.718      148.419      144.075       55.046    22028.152    20757.554     3030.083       10.201        2.291      396.413       50.899        0.016      347.956       27.299      863.594
08/19/2013  14:53:00     -228.317      -62.551      -32.771       84.204       63.174       41.103     7090.385     3990.893     1689.425        3.494        0.639      236.730       36.764        0.024      347.952       27.291      863.606
08/19/2013  14:54:00     -317.151      -78.639      -11.671      122.957      109.136       51.149    15118.463    11910.732     2616.174        6.827        1.482      326.755       48.767        0.022      347.946       27.280      863.615
08/19/2013  14:55:00     -391.384       40.276      -33.101      145.180      114.336       66.214    21077.321    13072.821     4384.346        9.721        1.927      393.451       71.473        0.033      347.957       27.300      863.610
08/19/2013  14:56:00     -179.850      -29.695       -8.247      120.097       91.651       51.260    14423.371     8399.953     2627.586        2.937        1.273      182.285       53.272        0.085      347.975       27.331      863.624
08/19/2013  14:57:00     -317.371      -57.887      -11.835      132.558      106.690       52.343    17571.587    11382.768     2739.814        6.795        1.585      322.607       55.981        0.030      347.958       27.302      863.639
08/19/2013  14:58:00     -298.289      -24.789      -30.274       82.041      100.243       46.708     6730.761    10048.742     2181.614        5.473        0.948      299.318       43.061        0.021      347.941       27.271      863.661
08/19/2013  14:59:00     -515.428       -4.633      -35.598      178.048      107.407       60.362    31701.161    11536.333     3643.629       15.691        2.344      515.448       75.841        0.022      347.944       27.278      863.675
08/19/2013  15:00:00     -247.897      -25.580      -16.163      152.557       97.767       45.156    23273.743     9558.402     2039.069        4.861        1.744      249.214       40.375        0.026      347.955       27.298      863.673
08/19/2013  15:01:00     -246.453      -27.861      -22.434      125.610       90.029       45.965    15777.778     8105.195     2112.793        4.400        1.300      248.023       43.536        0.031      347.944       27.278      863.683
08/19/2013  15:02:00     -205.943      -53.785       -7.029      111.814       84.750       58.658    12502.358     7182.557     3440.715        3.424        1.156      212.851       57.635        0.073      347.925       27.243      863.691
08/19/2013  15:03:00     -199.245      -54.761      -21.592      100.540       80.285       53.307    10108.229     6445.643     2841.667        3.128        0.970      206.634       54.566        0.070      347.935       27.260      863.699
08/19/2013  15:04:00     -145.956      -41.985      -11.569       70.661       61.133       44.716     4993.045     3737.249     1999.507        1.696        0.536      151.875       28.882        0.036      347.914       27.225      863.700
08/19/2013  15:05:00      -88.377       24.400        8.347       78.576       65.546       48.452     6174.159     4296.239     2347.614        1.064        0.641       91.683       34.459        0.141      347.926       27.248      863.697
08/19/2013  15:06:00     -305.430      -17.296      -39.284       58.937       84.455       46.855     3473.512     7132.663     2195.430        5.396        0.640      305.919       36.765        0.014      347.890       27.182      863.700
08/19/2013  15:07:00     -303.432       19.894      -31.134      110.625       99.254       52.525    12237.915     9851.297     2758.910        5.914        1.242      304.083       49.217        0.026      347.919       27.231      863.702
08/19/2013  15:08:00     -174.468      -16.035      -18.576       83.880      113.283       46.767     7035.852    12832.968     2187.142        2.654        1.103      175.204       45.408        0.067      347.897       27.196      863.690
08/19/2013  15:09:00     -264.710       -3.015      -30.306      110.342      130.027       54.429    12175.352    16906.919     2962.561        5.152        1.602      264.727       47.098        0.032      347.875       27.159      863.676
08/19/2013  15:10:00     -299.198     -116.386      -19.715      115.138       76.601       62.581    13256.712     5867.755     3916.430        6.324        1.152      321.038       60.244        0.035      347.894       27.189      863.646
08/19/2013  15:11:00     -420.836      -57.172      -36.960      123.111       88.664       52.801    15156.400     7861.386     2787.932       10.377        1.290      424.702       59.694        0.020      347.928       27.250      863.620
08/19/2013  15:12:00     -292.541     -155.063       -7.413      174.865      143.115       61.294    30577.910    20482.040     3757.012        8.224        2.741      331.097       73.940        0.050      347.942       27.272      863.576
08/19/2013  15:13:00     -344.845     -123.190      -12.818      138.649       94.507       59.068    19223.521     8931.537     3489.043        8.295        1.582      366.188       67.484        0.034      347.941       27.272      863.556
08/19/2013  15:14:00     -332.952      -93.838      -11.874      119.705       91.871       54.359    14329.219     8440.270     2954.923        7.276        1.286      345.922       56.654        0.027      347.941       27.273      863.521
08/19/2013  15:15:00     -357.225      -78.442       -6.866      142.156       97.815       63.652    20208.255     9567.749     4051.534        8.381        1.691      365.736       73.676        0.041      347.950       27.288      863.477
08/19/2013  15:16:00     -252.215      -31.950       -9.054      141.075      108.903       69.344    19902.251    11859.771     4808.534        5.064        1.829      254.230       68.787        0.073      347.960       27.307      863.436
08/19/2013  15:17:00     -331.785      -54.302      -19.502      117.732      125.629       60.179    13860.754    15782.556     3621.531        7.333        1.663      336.199       66.318        0.039      347.993       27.362      863.405
08/19/2013  15:18:00     -390.360      -92.649      -25.631      121.310      106.554       58.338    14716.165    11353.833     3403.368        9.554        1.474      401.204       61.129        0.023      347.994       27.364      863.362
08/19/2013  15:19:00     -359.200      -72.793      -14.778      155.965      101.158       56.153    24324.945    10233.005     3153.130        8.612        1.886      366.502       46.592        0.016      348.000       27.375      863.323
08/19/2013  15:20:00     -353.355      -33.137       -3.100      171.470      122.236       67.256    29401.977    14941.735     4523.410        8.741        2.443      354.905       81.385        0.053      348.008       27.387      863.289
08/19/2013  15:21:00     -385.219      -54.994      -10.703      130.097      119.413       65.889    16925.334    14259.524     4341.307        9.352        1.776      389.125       62.028        0.025      348.020       27.407      863.268
08/19/2013  15:22:00     -360.651      -46.528       -8.797      136.671      105.623       60.824    18679.050    11156.165     3699.606        8.292        1.677      363.640       62.065        0.029      348.027       27.418      863.246
08/19/2013  15:23:00     -316.414      -55.269      -13.129      113.549       94.656       57.332    12893.264     8959.721     3286.924        6.424        1.257      321.204       48.482        0.023      348.035       27.433      863.220
08/19/2013  15:24:00     -266.457      -22.360       -4.620      104.290      100.309       56.675    10876.458    10061.972     3212.071        4.783        1.208      267.394       49.572        0.034      348.039       27.441      863.207
08/19/2013  15:25:00     -316.030      -57.666       -8.898      139.604       90.788       59.595    19489.397     8242.479     3551.538        6.728        1.564      321.248       58.543        0.033      348.036       27.435      863.192
08/19/2013  15:26:00     -329.429      -75.843       -5.654      134.046      102.237       63.232    17968.398    10452.437     3998.297        7.336        1.621      338.047       67.232        0.040      348.059       27.475      863.180
08/19/2013  15:27:00     -368.618      -56.481      -21.352      149.430       85.287       65.763    22329.360     7273.857     4324.735        8.672        1.696      372.920       74.733        0.040      348.075       27.503      863.173
08/19/2013  15:28:00     -275.516      -24.354       -9.979       98.913       80.326       45.471     9783.753     6452.221     2067.593        4.745        0.915      276.590       46.217        0.028      348.060       27.476      863.165
08/19/2013  15:29:00     -335.667      -48.704      -13.183      170.251       95.921       63.537    28985.351     9200.830     4036.911        7.871        2.111      339.182       82.769        0.060      348.041       27.443      863.159
08/19/2013  15:30:00     -352.277      -68.287      -13.024      149.964      110.540       66.691    22489.073    12219.078     4447.701        8.404        1.958      358.834       79.033        0.049      348.047       27.454      863.140
08/19/2013  15:31:00     -276.314      -63.112       -7.015      139.064       93.054       53.926    19338.845     8659.081     2908.065        5.564        1.545      283.430       62.067        0.048      348.053       27.464      863.152
08/19/2013  15:32:00     -167.134      -26.637       -2.622       87.818       55.000       37.910     7711.970     3024.971     1437.196        2.041        0.609      169.243       35.691        0.044      348.092       27.533      863.148
08/19/2013  15:33:00     -139.655      -33.624       -4.839       83.001       52.757       42.834     6889.173     2783.298     1834.749        1.608        0.575      143.646       48.458        0.114      348.071       27.500      863.154
08/19/2013  15:34:00     -211.300      -51.885      -10.409      110.497       68.449       44.447    12209.490     4685.245     1975.498        3.316        0.944      217.577       54.286        0.062      348.094       27.537      863.156
08/19/2013  15:35:00     -284.028      -58.157      -25.173       84.876       81.322       40.580     7203.866     6613.201     1646.735        5.007        0.773      289.921       36.843        0.016      348.124       27.588      863.163
08/19/2013  15:36:00     -157.944      -22.901      -11.061       76.167       62.647       35.138     5801.461     3924.659     1234.694        1.828        0.548      159.595       36.051        0.051      348.116       27.576      863.166
08/19/2013  15:37:00     -152.173      -97.547      -14.609       84.017       75.840       45.590     7058.812     5751.745     2078.484        2.388        0.744      180.754       44.846        0.062      348.126       27.593      863.165
08/19/2013  15:38:00     -158.091      -29.596      -13.742       73.742       55.528       33.009     5437.893     3083.322     1089.614        1.783        0.481      160.837       32.388        0.041      348.135       27.610      863.173
08/19/2013  15:39:00      -90.028        0.149        7.543       50.698       38.989       30.532     2570.258     1520.178      932.184        0.659        0.251       90.028       31.425        0.122      348.160       27.654      863.190
08/19/2013  15:40:00     -108.805      -84.445        5.939       77.782       62.536       38.870     6050.068     3910.769     1510.846        1.524        0.574      137.730       38.914        0.080      348.197       27.714      863.183
08/19/2013  15:41:00     -130.134      -81.086        0.498       63.893       70.535       26.983     4082.299     4975.200      728.088        1.665        0.489      153.329       24.788        0.026      348.183       27.691      863.186
08/19/2013  15:42:00      -79.658      -92.914        0.569       93.777       52.310       46.336     8794.172     2736.366     2146.986        1.433        0.684      122.386       41.134        0.113      348.163       27.657      863.176
08/19/2013  15:43:00     -108.512      -38.830        4.589       73.727       53.346       29.464     5435.702     2845.817      868.149        1.123        0.457      115.250       36.418        0.100      348.189       27.702      863.175
08/19/2013  15:44:00      -82.772      -75.962        5.214       51.982       49.493       25.010     2702.160     2449.562      625.503        0.921        0.289      112.345       24.135        0.046      348.172       27.676      863.179
08/19/2013  15:45:00      -64.512      -33.730        0.470       57.482       33.340       20.968     3304.148     1111.535      439.656        0.508        0.243       72.798       25.390        0.122      348.196       27.716      863.178
08/19/2013  15:46:00      -50.195      -57.167        0.137       48.325       44.635       24.311     2335.271     1992.287      591.043        0.535        0.246       76.076       24.267        0.102      348.226       27.766      863.183
08/19/2013  15:47:00      -71.154      -72.700        4.022       60.348       49.469       30.777     3641.921     2447.182      947.254        0.870        0.352      101.726       34.003        0.112      348.212       27.742      863.186
08/19/2013  15:48:00      -75.566      -66.424       10.035       71.120       61.094       32.068     5058.081     3732.505     1028.380        1.002        0.491      100.610       39.877        0.157      348.240       27.790      863.180
08/19/2013  15:49:00     -217.410     -125.636       -0.287      141.935       90.539       62.486    20145.607     8197.348     3904.468        4.764        1.612      251.100       69.765        0.077      348.194       27.710      863.163
08/19/2013  15:50:00     -191.334     -189.927       11.035      132.093       98.487       65.356    17448.638     9699.641     4271.456        5.211        1.571      269.594       72.363        0.072      348.179       27.683      863.156
08/19/2013  15:51:00     -176.865      -98.187       10.357       99.594       99.668       53.067     9918.871     9933.757     2816.159        3.185        1.133      202.291       53.949        0.071      348.200       27.718      863.147
08/19/2013  15:52:00     -187.717      -34.357        0.691       93.286       59.159       41.392     8702.285     3499.799     1713.332        2.516        0.696      190.835       42.118        0.049      348.233       27.777      863.156
08/19/2013  15:53:00     -229.650       11.369      -19.588       76.968       59.339       37.437     5924.122     3521.093     1401.495        3.205        0.542      229.932       38.764        0.028      348.196       27.711      863.169
08/19/2013  15:54:00     -144.732       35.689       -2.958       72.026       63.295       47.970     5187.809     4006.226     2301.135        1.686        0.575      149.067       36.410        0.060      348.237       27.785      863.150
08/19/2013  15:55:00     -239.784       -1.014      -10.863       94.318       67.752       40.691     8895.851     4590.311     1655.754        3.638        0.757      239.786       41.510        0.030      348.173       27.671      863.144
08/19/2013  15:56:00     -196.735       26.569      -10.484       60.053       43.951       32.688     3606.422     1931.710     1068.533        2.306        0.330      198.521       26.147        0.017      348.147       27.630      863.135
08/19/2013  15:57:00     -204.136      -73.131       -6.024       84.391       76.895       51.098     7121.875     5912.839     2610.956        3.135        0.782      216.840       54.016        0.062      348.164       27.657      863.119
08/19/2013  15:58:00     -210.946      -60.821       -2.946      108.417       61.688       42.693    11754.210     3805.433     1822.703        3.279        0.869      219.539       48.507        0.049      348.173       27.673      863.099
08/19/2013  15:59:00     -259.825       11.039       -2.268      109.907       87.403       56.637    12079.479     7639.227     3207.745        4.528        1.146      260.060       43.698        0.028      348.167       27.662      863.071
08/19/2013  16:00:00     -274.954      -49.464       -3.721      133.353      111.190       61.672    17783.087    12363.166     3803.449        5.600        1.697      279.368       63.771        0.052      348.138       27.612      863.057
08/19/2013  16:01:00     -326.372     -158.624       -1.173      145.631      109.885       72.920    21208.391    12074.771     5317.340        8.513        1.930      362.877       66.967        0.034      348.029       27.423      863.039
08/19/2013  16:02:00     -207.570     -156.830        6.912      154.337      129.224       62.108    23820.053    16698.802     3857.406        5.604        2.219      260.155       73.158        0.079      348.035       27.435      863.012
08/19/2013  16:03:00     -160.447     -139.009        8.965      119.000       95.203       56.087    14160.985     9063.551     3145.792        3.575        1.319      212.290       60.307        0.081      348.020       27.408      863.001
08/19/2013  16:04:00     -226.510      -74.710      -17.971      137.603       97.940       45.383    18934.603     9592.329     2059.623        4.389        1.529      238.512       50.477        0.045      348.077       27.507      863.000
08/19/2013  16:05:00     -197.158      -26.458       -5.929      104.393      113.407       57.701    10897.994    12861.228     3329.402        3.334        1.354      198.925       57.025        0.082      348.044       27.452      862.994
08/19/2013  16:06:00     -333.005      -79.437       -0.645      131.202      123.355       62.492    17213.843    15216.388     3905.269        7.676        1.817      342.349       64.237        0.035      348.004       27.381      862.961
08/19/2013  16:07:00     -183.562      -75.445        5.563      134.941      134.362       70.024    18209.173    18053.034     4903.401        4.028        2.058      198.462       64.148        0.104      348.037       27.438      862.940
08/19/2013  16:08:00     -203.906      -16.158        1.388      164.849      104.893       53.626    27175.318    11002.469     2875.763        4.144        2.053      204.545       54.751        0.072      348.032       27.430      862.932
08/19/2013  16:09:00     -130.168      -25.607       -3.690       91.446       73.321       41.208     8362.321     5375.933     1698.058        1.652        0.772      132.663       50.693        0.146      347.993       27.363      862.922
08/19/2013  16:10:00     -190.511      -23.007       13.695       99.724       76.874       44.967     9944.945     5909.536     2022.014        2.744        0.894      191.896       50.097        0.068      348.016       27.404      862.900
08/19/2013  16:11:00     -172.693      -48.114       10.724       96.542       97.095       48.395     9320.312     9427.528     2342.070        2.667        1.054      179.271       51.503        0.083      348.027       27.421      862.881
08/19/2013  16:12:00     -213.636       21.537        0.220       95.568       86.153       46.899     9133.278     7422.348     2199.550        3.243        0.938      214.719       48.641        0.051      348.044       27.452      862.875
08/19/2013  16:13:00     -194.843      -38.017       -9.280       80.270       85.090       44.723     6443.231     7240.331     2000.127        2.759        0.784      198.517       38.240        0.037      348.035       27.434      862.860
08/19/2013  16:14:00     -185.271      -77.317      -15.295       96.184       70.759       32.905     9251.424     5006.789     1082.732        2.794        0.767      200.757       37.081        0.034      348.053       27.466      862.838
08/19/2013  16:15:00     -309.251     -102.027       -7.749      136.097      104.136       61.291    18522.515    10844.207     3756.648        6.961        1.656      325.646       65.260        0.040      348.029       27.422      862.824
08/19/2013  16:16:00     -195.757      -19.381       -1.442      120.585       77.736       45.116    14540.806     6042.892     2035.483        3.066        1.131      196.714       49.545        0.063      348.065       27.487      862.820
08/19/2013  16:17:00     -261.119      -35.802      -14.063      105.564       94.512       52.367    11143.735     8932.427     2742.301        4.624        1.141      263.562       57.673        0.048      348.036       27.435      862.807
08/19/2013  16:18:00     -167.376       11.883       -7.426       97.930       79.446       52.957     9590.282     6311.637     2804.437        2.346        0.935      167.797       60.223        0.129      348.080       27.512      862.780
08/19/2013  16:19:00     -202.957      -10.992        1.772       99.313       73.003       48.821     9863.142     5329.434     2383.490        2.944        0.879      203.255       52.655        0.067      348.115       27.573      862.766
08/19/2013  16:20:00     -201.618      -49.563       -4.385       87.934       55.588       37.309     7732.379     3090.040     1391.947        2.767        0.611      207.621       39.025        0.035      348.112       27.567      862.752
08/19/2013  16:21:00      -93.816      -47.358       -0.631       52.866       52.829       36.949     2794.854     2790.871     1365.245        0.900        0.348      105.091       23.290        0.049      348.131       27.603      862.735
08/19/2013  16:22:00     -110.019       -3.508       13.496       88.120       57.460       45.063     7765.210     3301.658     2030.647        1.270        0.655      110.075       47.969        0.190      348.163       27.658      862.725
08/19/2013  16:23:00     -139.112       -1.977       -0.039       88.787       78.980       40.198     7883.091     6237.858     1615.881        1.754        0.787      139.126       37.341        0.072      348.155       27.645      862.710
08/19/2013  16:24:00      -83.982      -10.398        6.648       62.880       49.203       38.499     3953.843     2420.937     1482.175        0.753        0.393       84.623       41.900        0.245      348.190       27.706      862.695
08/19/2013  16:25:00      -54.230      -51.503        0.552       43.590       46.978       21.474     1900.079     2206.972      461.149        0.508        0.228       74.789       20.600        0.076      348.176       27.682      862.683
08/19/2013  16:26:00     -199.613       12.410      -14.940       94.490       64.341       41.789     8928.441     4139.714     1746.350        2.752        0.741      199.998       49.172        0.060      348.176       27.678      862.673
08/19/2013  16:27:00     -197.058      -63.744      -14.111       61.937       57.624       34.815     3836.183     3320.555     1212.104        2.573        0.418      207.112       37.526        0.033      348.148       27.630      862.662
08/19/2013  16:28:00     -188.375      -15.023        4.484       61.669       77.625       44.827     3803.041     6025.606     2009.451        2.378        0.592      188.974       40.837        0.047      348.150       27.634      862.643
08/19/2013  16:29:00     -115.915      -19.376       16.768      109.700       70.344       48.570    12034.167     4948.295     2359.014        1.671        0.967      117.523       60.233        0.263      348.173       27.673      862.632
08/19/2013  16:30:00     -146.454      -86.886        4.115       99.426       74.380       43.508     9885.527     5532.334     1892.960        2.316        0.866      170.288       43.160        0.064      348.185       27.694      862.619
08/19/2013  16:31:00      -87.541      -87.953        9.809       98.024       79.156       54.511     9608.702     6265.654     2971.460        1.717        0.942      124.093       55.463        0.200      348.224       27.763      862.605
08/19/2013  16:32:00     -203.673      -87.627       -2.312       95.241       52.761       34.961     9070.931     2783.734     1222.238        3.112        0.654      221.723       37.514        0.029      348.186       27.696      862.591
08/19/2013  16:33:00     -216.795      -95.936        1.959       76.038       55.092       33.900     5781.805     3035.101     1149.225        3.309        0.498      237.073       33.063        0.019      348.189       27.699      862.569
08/19/2013  16:34:00     -166.189      -87.071       -2.123       84.623       54.469       40.038     7161.100     2966.903     1603.020        2.347        0.587      187.617       39.384        0.044      348.209       27.736      862.553
08/19/2013  16:35:00     -182.784     -126.225       -8.382       90.739       55.889       38.821     8233.553     3123.614     1507.039        3.114        0.643      222.133       26.365        0.014      348.205       27.727      862.542
08/19/2013  16:36:00      -62.163      -34.476       13.176       68.822       58.647       41.430     4736.505     3439.523     1716.455        0.756        0.495       71.084       38.144        0.288      348.271       27.844      862.535
08/19/2013  16:37:00     -135.242      -92.970       -3.401       57.676       49.939       30.914     3326.485     2493.888      955.699        1.686        0.339      164.115       27.835        0.029      348.209       27.736      862.514
08/19/2013  16:38:00     -136.187      -61.500        3.621       93.675       55.571       39.726     8775.091     3088.164     1578.146        1.789        0.672      149.430       41.793        0.078      348.252       27.811      862.489
08/19/2013  16:39:00     -209.899      -98.027       -1.488      132.176       73.566       56.346    17470.582     5411.895     3174.907        3.986        1.303      231.662       62.443        0.073      348.223       27.761      862.468
08/19/2013  16:40:00     -173.418      -62.377       12.875       76.699       75.611       43.000     5882.705     5716.956     1848.980        2.379        0.672      184.295       39.113        0.045      348.226       27.764      862.445
08/19/2013  16:41:00     -131.718      -73.261       -2.231      105.286       67.758       47.054    11085.134     4591.198     2214.094        2.030        0.895      150.720       52.009        0.119      348.273       27.847      862.418
08/19/2013  16:42:00     -120.836      -46.580       15.015       77.716       87.854       39.406     6039.784     7718.368     1552.836        1.615        0.766      129.503       49.596        0.147      348.267       27.838      862.394
08/19/2013  16:43:00     -158.224      -59.358        4.303       90.078       69.891       49.398     8113.997     4884.684     2440.124        2.201        0.772      168.992       50.491        0.089      348.246       27.801      862.387
08/19/2013  16:44:00     -208.986     -105.553       -0.632      118.401      107.559       67.673    14018.900    11568.941     4579.601        4.249        1.508      234.130       66.490        0.081      348.210       27.737      862.370
08/19/2013  16:45:00     -183.449      -63.320        5.232      117.878       80.292       55.085    13895.321     6446.750     3034.399        3.053        1.169      194.070       58.185        0.090      348.215       27.747      862.368
08/19/2013  16:46:00     -178.585      -51.249      -20.949       84.082       83.002       49.356     7069.745     6889.308     2436.047        2.567        0.820      185.793       42.943        0.053      348.215       27.743      862.350
08/19/2013  16:47:00     -100.186      -59.719       16.664      133.247       71.110       50.902    17754.699     5056.678     2591.039        1.964        1.270      116.635       58.250        0.249      348.201       27.722      862.340
08/19/2013  16:48:00      -76.180      -28.045       10.468       71.542       57.600       33.369     5118.299     3317.732     1113.520        0.812        0.477       81.179       28.284        0.121      348.211       27.742      862.318
08/19/2013  16:49:00     -128.575      -55.664        1.874       91.852       50.765       39.471     8436.825     2577.042     1557.962        1.610        0.629      140.107       43.945        0.098      348.208       27.735      862.301
08/19/2013  16:50:00     -197.151      -92.359       -2.630       88.042       76.551       48.112     7751.406     5860.004     2314.729        3.166        0.796      217.713       41.812        0.037      348.198       27.714      862.286
08/19/2013  16:51:00     -136.729      -88.029        1.882      119.456       83.675       54.778    14269.640     7001.427     3000.673        2.536        1.214      162.616       67.019        0.170      348.209       27.735      862.273
08/19/2013  16:52:00     -217.235      -98.818        0.184       88.596       92.687       58.899     7849.329     8590.796     3469.148        3.843        0.995      238.655       52.302        0.048      348.192       27.704      862.256
08/19/2013  16:53:00     -125.635      -64.903       10.916      100.531       97.359       60.899    10106.551     9478.843     3708.728        2.170        1.165      141.409       62.500        0.195      348.188       27.698      862.237
08/19/2013  16:54:00     -246.453     -116.162      -12.623       88.333       82.210       54.810     7802.743     6758.449     3004.121        4.598        0.878      272.457       50.639        0.035      348.190       27.701      862.228
08/19/2013  16:55:00     -143.475      -89.939       13.837      170.074      130.921       77.263    28925.123    17140.320     5969.528        4.044        2.602      169.335       81.164        0.230      348.150       27.634      862.212
08/19/2013  16:56:00     -171.126     -116.726        9.695      125.370      111.217       51.003    15717.571    12369.240     2601.331        3.684        1.534      207.145       55.490        0.072      348.182       27.688      862.208
08/19/2013  16:57:00      -56.070      -23.146        6.513       88.293       70.103       52.249     7795.662     4914.420     2730.005        0.958        0.772       60.659       57.780        0.907      348.177       27.683      862.203
08/19/2013  16:58:00     -151.668      -59.175       -0.625      114.699       66.660       42.647    13155.856     4443.518     1818.757        2.296        0.971      162.803       39.341        0.058      348.198       27.715      862.198
08/19/2013  16:59:00     -194.655     -107.470       -6.838       93.781       70.331       39.014     8794.857     4946.411     1522.057        3.237        0.763      222.352       38.929        0.031      348.182       27.688      862.189
08/19/2013  17:00:00     -127.849      -83.767       -4.257       83.842       65.307       45.746     7029.538     4265.050     2092.669        1.838        0.669      152.847       45.630        0.089      348.214       27.745      862.180
08/19/2013  17:01:00     -126.252      -15.671        5.401       58.474       52.617       33.563     3419.157     2768.519     1126.488        1.176        0.366      127.221       32.325        0.065      348.211       27.738      862.169
08/19/2013  17:02:00      -91.154      -66.267       -2.143       65.128       63.644       31.922     4241.711     4050.545     1019.022        1.101        0.466      112.696       30.559        0.074      348.221       27.757      862.155
08/19/2013  17:03:00     -155.621      -21.542       -4.927       65.920       75.530       38.172     4345.507     5704.837     1457.117        1.810        0.575      157.105       35.144        0.050      348.212       27.739      862.148
08/19/2013  17:04:00     -131.233      -45.612       -4.943       83.974       77.343       31.940     7051.681     5981.986     1020.146        1.669        0.703      138.934       33.585        0.058      348.213       27.743      862.138
08/19/2013  17:05:00     -110.883     -114.319        8.255       65.863       53.567       33.288     4337.892     2869.420     1108.076        1.687        0.416      159.260       36.402        0.052      348.219       27.752      862.134
08/19/2013  17:06:00     -109.015      -55.402       -1.083       71.349       61.665       38.321     5090.721     3802.632     1468.514        1.266        0.518      122.285       39.246        0.103      348.253       27.813      862.127
08/19/2013  17:07:00     -154.724      -96.072       -7.114       97.370       69.687       46.269     9480.867     4856.263     2140.781        2.485        0.824      182.125       48.455        0.071      348.246       27.800      862.128
08/19/2013  17:08:00     -112.395      -81.104        3.454       82.963       54.337       36.249     6882.839     2952.539     1313.966        1.518        0.557      138.602       38.037        0.075      348.255       27.819      862.131
08/19/2013  17:09:00     -107.699      -53.033       -2.798       70.344       46.448       31.370     4948.286     2157.401      984.065        1.125        0.404      120.048       26.979        0.051      348.238       27.791      862.134
08/19/2013  17:10:00     -208.848       -8.758       -6.519       92.655       83.413       39.231     8584.907     6957.669     1539.081        3.041        0.854      209.032       45.534        0.047      348.215       27.745      862.134
08/19/2013  17:11:00     -143.904      -45.914        3.533       74.802       79.853       38.657     5595.410     6376.534     1494.398        1.815        0.673      151.051       38.782        0.066      348.212       27.740      862.134
08/19/2013  17:12:00     -209.445      -93.456      -14.846      114.197       76.559       44.138    13040.874     5861.245     1948.138        3.683        1.043      229.350       48.924        0.046      348.220       27.753      862.140
08/19/2013  17:13:00     -106.062      -79.795       10.578       89.427       71.595       51.622     7997.153     5125.875     2664.841        1.676        0.789      132.727       49.030        0.136      348.217       27.749      862.148
08/19/2013  17:14:00     -180.508     -107.029       -3.773       84.898       90.583       41.441     7207.724     8205.325     1717.369        3.059        0.857      209.853       42.925        0.042      348.224       27.760      862.160
08/19/2013  17:15:00     -171.127      -80.387       -0.162      126.941       65.723       45.475    16113.969     4319.498     2068.001        2.912        1.125      189.067       60.832        0.104      348.230       27.771      862.164
08/19/2013  17:16:00     -175.114      -85.295        0.525      112.866       94.991       44.202    12738.658     9023.310     1953.778        3.082        1.186      194.783       56.784        0.085      348.221       27.757      862.163
08/19/2013  17:17:00     -178.318      -66.788        5.280       99.824      103.641       48.705     9964.753    10741.455     2372.154        2.968        1.154      190.415       53.032        0.078      348.215       27.745      862.160
08/19/2013  17:18:00     -255.273     -111.092      -14.649       80.215       56.340       40.696     6434.473     3174.236     1656.138        4.449        0.563      278.399       37.904        0.019      348.230       27.772      862.153
08/19/2013  17:19:00     -216.275     -142.964       -5.467      102.495       86.015       45.057    10505.201     7398.600     2030.103        4.359        0.997      259.256       50.973        0.039      348.221       27.756      862.150
08/19/2013  17:20:00     -170.931     -126.701       -5.887      118.992      104.759       52.119    14159.127    10974.528     2716.406        3.657        1.393      212.768       55.545        0.068      348.230       27.771      862.129
08/19/2013  17:21:00     -200.313     -136.158       -4.736      103.335       73.536       51.733    10678.097     5407.482     2676.262        3.872        0.938      242.207       51.659        0.045      348.227       27.767      862.118
08/19/2013  17:22:00     -177.657     -129.317        1.910      106.207       96.497       55.810    11279.970     9311.670     3114.793        3.599        1.185      219.739       59.698        0.074      348.222       27.757      862.100
08/19/2013  17:23:00     -114.261      -68.883       15.819       98.936       73.036       50.048     9788.362     5334.225     2504.775        1.784        0.881      133.418       49.022        0.135      348.224       27.760      862.087
08/19/2013  17:24:00     -172.071      -87.059       -9.525       82.232       74.979       41.359     6762.151     5621.911     1710.570        2.568        0.705      192.841       41.227        0.046      348.228       27.770      862.074
08/19/2013  17:25:00     -163.051     -123.789        3.553      125.021       96.572       48.778    15630.152     9326.226     2379.293        3.462        1.367      204.717       53.629        0.069      348.226       27.765      862.060
08/19/2013  17:26:00     -180.782     -127.694        2.347       95.083       80.543       54.271     9040.753     6487.172     2945.375        3.373        0.924      221.332       49.808        0.051      348.225       27.762      862.033
08/19/2013  17:27:00     -100.043      -63.046       10.952      114.879       79.306       57.388    13197.196     6289.387     3293.359        1.844        1.139      118.252       57.377        0.235      348.229       27.773      862.009
08/19/2013  17:28:00     -166.896     -133.540       -7.781      122.213       95.860       46.738    14935.938     9189.123     2184.435        3.602        1.315      213.745       47.980        0.050      348.222       27.757      862.003
08/19/2013  17:29:00     -164.412     -104.170        2.346      104.651       65.727       45.946    10951.820     4319.997     2110.992        2.763        0.869      194.635       46.797        0.058      348.217       27.749      861.994
08/19/2013  17:30:00     -187.836      -97.995      -12.221      131.501       61.136       43.527    17292.620     3737.639     1894.625        3.398        1.146      211.862       54.055        0.065      348.236       27.783      862.001
08/19/2013  17:31:00     -123.494      -64.228       12.330       84.991       58.054       43.693     7223.517     3370.277     1909.055        1.601        0.625      139.198       45.553        0.107      348.232       27.778      862.002
08/19/2013  17:32:00     -181.103     -118.503       -9.855       68.632       91.350       39.135     4710.420     8344.869     1531.576        3.076        0.729      216.429       34.667        0.026      348.236       27.784      861.994
08/19/2013  17:33:00     -135.984      -70.435       -9.368       78.181       67.567       40.900     6112.197     4565.241     1672.831        1.794        0.618      153.143       37.140        0.059      348.227       27.769      861.997
08/19/2013  17:34:00     -178.232      -88.601       -5.946       82.013       59.117       33.841     6726.213     3494.805     1145.245        2.551        0.568      199.039       29.961        0.023      348.216       27.747      861.993
08/19/2013  17:35:00     -129.578      -69.016       11.120       91.617       80.334       48.422     8393.635     6453.611     2344.727        1.943        0.860      146.812       42.461        0.084      348.213       27.742      861.990
08/19/2013  17:36:00     -112.772     -104.841        1.997       77.304       78.930       49.277     5975.916     6229.892     2428.234        1.917        0.732      153.978       50.492        0.108      348.207       27.732      861.975
08/19/2013  17:37:00     -234.293     -182.613      -14.675       88.217       80.622       46.886     7782.302     6499.927     2198.300        5.247        0.824      297.053       50.552        0.029      348.220       27.754      861.971
08/19/2013  17:38:00     -158.188      -82.204        2.805      105.868       83.367       49.691    11208.114     6950.130     2469.159        2.620        1.031      178.272       55.060        0.095      348.215       27.746      861.959
08/19/2013  17:39:00     -161.301     -104.124       -2.938       90.225       73.402       52.313     8140.636     5387.791     2736.665        2.656        0.813      191.989       55.857        0.085      348.212       27.738      861.952
08/19/2013  17:40:00     -182.667      -92.502      -17.799       99.693       74.137       35.145     9938.689     5496.248     1235.157        2.945        0.834      204.753       29.125        0.020      348.207       27.731      861.948
08/19/2013  17:41:00     -113.714      -52.805        8.431       98.967       60.649       48.077     9794.455     3678.270     2311.399        1.578        0.789      125.377       41.277        0.108      348.207       27.731      861.938
08/19/2013  17:42:00     -119.399      -65.772       11.808       79.362       56.536       40.343     6298.280     3196.310     1627.547        1.492        0.556      136.316       42.118        0.095      348.209       27.734      861.931
08/19/2013  17:43:00     -197.738     -142.947       -9.602      107.834       95.877       56.009    11628.147     9192.427     3137.060        4.179        1.198      243.996       62.495        0.066      348.205       27.728      861.917
08/19/2013  17:44:00     -120.770      -86.014        9.530      116.621       86.480       53.848    13600.341     7478.841     2899.659        2.302        1.199      148.269       66.739        0.203      348.180       27.684      861.907
08/19/2013  17:45:00     -189.161      -81.134       -1.135       97.866       57.546       35.811     9577.801     3311.554     1282.418        2.827        0.709      205.827       36.528        0.031      348.176       27.678      861.906
08/19/2013  17:46:00     -143.097     -121.549       -3.780       94.508       98.629       49.621     8931.829     9727.636     2462.262        2.819        1.056      187.752       51.802        0.076      348.177       27.681      861.905
08/19/2013  17:47:00     -156.305      -93.732       -2.186      103.722       65.083       47.137    10758.244     4235.830     2221.880        2.522        0.861      182.255       55.558        0.093      348.160       27.651      861.910
08/19/2013  17:48:00     -147.061      -34.792       -0.433       79.780       63.811       38.919     6364.902     4071.850     1514.698        1.739        0.598      151.121       32.309        0.046      348.177       27.680      861.910
08/19/2013  17:49:00     -190.938      -50.929      -11.848       77.999       52.180       39.342     6083.824     2722.704     1547.830        2.477        0.518      197.614       35.301        0.032      348.170       27.669      861.921
08/19/2013  17:50:00     -138.629     -128.831        2.919       92.755       83.120       46.086     8603.498     6908.946     2123.891        2.673        0.882      189.250       51.831        0.075      348.161       27.652      861.922
08/19/2013  17:51:00     -138.470      -65.298        1.389       87.516       62.908       38.581     7659.103     3957.357     1488.462        1.827        0.655      153.095       40.875        0.071      348.166       27.663      861.923
08/19/2013  17:52:00     -123.447      -33.958       -1.079       89.800       74.302       42.651     8064.032     5520.799     1819.118        1.590        0.770      128.032       45.296        0.125      348.144       27.624      861.929
08/19/2013  17:53:00     -109.627      -46.179       -6.061       62.134       40.687       32.980     3860.678     1655.459     1087.681        1.039        0.330      118.956       21.319        0.032      348.147       27.633      861.934
08/19/2013  17:54:00     -144.137     -101.932       -0.856       67.258       51.766       34.996     4523.578     2679.733     1224.725        1.980        0.421      176.538       37.718        0.046      348.165       27.661      861.944
08/19/2013  17:55:00     -184.337      -91.535      -11.091       91.356       70.756       37.517     8345.871     5006.380     1407.506        2.862        0.738      205.813       46.452        0.051      348.172       27.672      861.951
08/19/2013  17:56:00     -117.947      -35.777       10.850       72.103       68.549       35.122     5198.773     4698.930     1233.589        1.322        0.557      123.253       33.160        0.072      348.128       27.598      861.954
08/19/2013  17:57:00     -179.641      -84.800       -2.168       75.660       62.720       37.170     5724.484     3933.812     1381.579        2.525        0.552      198.650       37.094        0.035      348.165       27.659      861.958
08/19/2013  17:58:00     -204.823     -101.728      -17.385       49.579       64.096       39.947     2458.089     4108.302     1595.743        3.038        0.408      228.694       28.693        0.016      348.158       27.645      861.955
08/19/2013  17:59:00     -200.265     -118.387      -13.016       69.436       73.226       43.901     4821.328     5362.050     1927.290        3.320        0.606      232.641       39.041        0.028      348.180       27.683      861.948
08/19/2013  18:00:00     -172.535      -55.641        7.029       70.000       89.965       42.836     4899.992     8093.756     1834.955        2.387        0.741      181.285       42.409        0.055      348.150       27.634      861.948
08/19/2013  18:01:00     -170.832     -100.940      -18.138       70.004       73.227       37.371     4900.539     5362.133     1396.564        2.568        0.583      198.425       36.871        0.035      348.161       27.652      861.951
08/19/2013  18:02:00     -209.835      -82.718      -13.130      110.262       63.512       49.415    12157.601     4033.787     2441.798        3.484        0.932      225.550       53.330        0.056      348.165       27.659      861.944
08/19/2013  18:03:00     -186.444      -31.771      -12.281       73.035       54.366       37.723     5334.051     2955.713     1423.000        2.282        0.486      189.131       30.014        0.025      348.158       27.649      861.946
08/19/2013  18:04:00     -172.585      -79.864       -2.567       59.102       59.667       30.924     3493.055     3560.159      956.271        2.209        0.400      190.168       27.363        0.021      348.163       27.657      861.941
08/19/2013  18:05:00     -165.299      -90.317        0.512       59.200       52.603       30.911     3504.597     2767.086      955.496        2.135        0.361      188.363       31.391        0.028      348.153       27.641      861.933
08/19/2013  18:06:00     -112.452      -43.922        7.153       84.633       53.213       37.605     7162.799     2831.629     1414.127        1.302        0.570      120.725       45.354        0.141      348.156       27.645      861.928
08/19/2013  18:07:00      -80.977      -33.269        0.393       70.301       39.141       33.680     4942.253     1532.023     1134.360        0.764        0.380       87.544       31.494        0.129      348.169       27.669      861.925
08/19/2013  18:08:00     -180.692      -77.225       -8.165       61.369       64.578       35.659     3766.145     4170.362     1271.562        2.394        0.460      196.503       23.387        0.014      348.187       27.695      861.931
08/19/2013  18:09:00     -112.087      -18.915        2.141       70.578       56.773       31.964     4981.292     3223.135     1021.674        1.107        0.461      113.672       36.587        0.104      348.136       27.612      861.935
08/19/2013  18:10:00     -156.528      -62.172       -3.496       79.138       60.459       37.169     6262.890     3655.312     1381.521        1.984        0.565      168.423       43.763        0.068      348.163       27.656      861.936
08/19/2013  18:11:00     -131.430      -55.413       -3.280       70.869       58.984       34.914     5022.444     3479.094     1218.984        1.504        0.486      142.634       31.765        0.050      348.157       27.647      861.938
08/19/2013  18:12:00     -168.483      -45.751      -17.242       36.362       39.118       27.712     1322.161     1530.245      767.970        1.720        0.181      174.584       17.808        0.010      348.134       27.610      861.933
08/19/2013  18:13:00     -165.694      -37.745       -5.036       67.680       55.868       32.768     4580.586     3121.254     1073.728        1.884        0.439      169.939       30.808        0.033      348.124       27.590      861.940
08/19/2013  18:14:00     -140.833      -67.354       -2.470       59.662       47.969       32.088     3559.521     2300.995     1029.626        1.563        0.345      156.110       30.204        0.037      348.115       27.575      861.936
08/19/2013  18:15:00     -144.096      -32.064       -5.006       70.418       56.545       34.317     4958.732     3197.385     1177.650        1.557        0.467      147.621       34.652        0.055      348.133       27.605      861.930
08/19/2013  18:16:00     -147.474      -55.134       -4.507       58.559       73.139       33.449     3429.139     5349.338     1118.822        1.735        0.495      157.443       38.158        0.059      348.131       27.603      861.921
08/19/2013  18:17:00     -192.808      -50.742       -8.790       72.169       67.075       36.027     5208.396     4499.098     1297.972        2.541        0.550      199.373       35.866        0.032      348.131       27.599      861.912
08/19/2013  18:18:00     -147.856      -82.087       -1.498       72.663       65.792       44.175     5279.959     4328.535     1951.452        2.008        0.578      169.115       47.540        0.079      348.129       27.596      861.904
08/19/2013  18:19:00     -168.818     -108.428      -24.738       45.938       60.660       32.740     2110.265     3679.578     1071.910        2.386        0.343      200.639       17.991        0.008      348.149       27.632      861.883
08/19/2013  18:20:00     -121.225      -79.193        3.630      102.802       65.886       51.077    10568.192     4340.925     2608.845        1.925        0.876      144.800       54.580        0.142      348.123       27.587      861.871
08/19/2013  18:21:00     -201.691      -90.927      -23.068       96.369       44.707       29.387     9287.020     1998.704      863.614        3.081        0.607      221.240       25.120        0.013      348.139       27.613      861.865
08/19/2013  18:22:00     -161.821     -103.585      -14.027       82.896       56.047       44.290     6871.782     3141.256     1961.620        2.454        0.599      192.135       37.410        0.038      348.090       27.529      861.858
08/19/2013  18:23:00     -128.551      -50.737       -4.581       65.287       58.723       36.887     4262.389     3448.359     1360.666        1.409        0.454      138.202       29.979        0.047      348.079       27.513      861.846
08/19/2013  18:24:00     -220.039     -100.706       -6.815       83.897       68.080       37.462     7038.770     4634.886     1403.383        3.584        0.654      241.989       33.493        0.019      348.112       27.568      861.837
08/19/2013  18:25:00      -94.511      -57.059        4.105       77.309       78.366       44.166     5976.663     6141.307     1950.618        1.313        0.703      110.400       39.123        0.126      348.055       27.471      861.828
08/19/2013  18:26:00      -97.750      -79.971       11.807       94.410       88.004       49.779     8913.252     7744.638     2477.991        1.761        0.957      126.295       57.355        0.206      348.061       27.479      861.827
08/19/2013  18:27:00     -123.001      -95.896        7.494      114.069       71.611       61.103    13011.629     5128.113     3733.539        2.312        1.094      155.965       64.563        0.171      348.041       27.444      861.820
08/19/2013  18:28:00     -188.043      -69.277        0.977       90.084       64.383       38.189     8115.135     4145.120     1458.414        2.694        0.686      200.398       41.376        0.043      348.060       27.478      861.828
08/19/2013  18:29:00     -162.431     -105.496        7.929       66.266       72.525       42.431     4391.125     5259.820     1800.428        2.451        0.573      193.683       33.471        0.030      348.061       27.479      861.837
08/19/2013  18:30:00     -198.971      -88.034        1.898       98.711       71.814       39.373     9743.955     5157.249     1550.214        3.189        0.823      217.577       46.508        0.046      348.057       27.471      861.840
08/19/2013  18:31:00     -118.605      -58.800        6.066      117.282       83.704       57.105    13754.994     7006.420     3261.028        2.079        1.201      132.380       59.373        0.201      348.039       27.442      861.840
08/19/2013  18:32:00     -159.525      -84.593       -3.614       43.933       57.771       34.938     1930.140     3337.475     1220.661        1.955        0.324      180.567       24.641        0.019      348.072       27.499      861.849
08/19/2013  18:33:00     -138.479      -65.873       14.605      107.850       76.688       43.730    11631.531     5880.983     1912.342        2.157        0.971      153.348       48.822        0.101      348.036       27.436      861.852
08/19/2013  18:34:00     -184.906      -95.365        0.464       88.948       68.734       40.562     7911.721     4724.360     1645.297        2.878        0.714      208.050       41.253        0.039      348.056       27.471      861.851
08/19/2013  18:35:00     -111.070      -51.267        7.690      111.228       84.425       49.127    12371.629     7127.632     2413.439        1.846        1.096      122.331       52.838        0.187      347.967       27.320      861.843
08/19/2013  18:36:00     -214.719      -78.118      -12.399       80.911       60.508       44.111     6546.647     3661.186     1945.777        3.225        0.608      228.487       41.205        0.033      348.024       27.416      861.834
08/19/2013  18:37:00     -204.161      -41.223       -7.195       89.885       53.689       41.790     8079.347     2882.487     1746.438        2.807        0.635      208.281       38.053        0.033      347.995       27.365      861.831
08/19/2013  18:38:00     -101.529      -53.365        9.760       79.629       72.955       51.281     6340.831     5322.418     2629.791        1.377        0.715      114.700       47.161        0.169      347.983       27.345      861.831
08/19/2013  18:39:00     -140.223      -60.767        6.490      113.394       77.192       49.114    12858.096     5958.618     2412.162        2.231        1.061      152.824       56.277        0.136      347.964       27.312      861.832
08/19/2013  18:40:00     -273.354      -42.667       -7.681       91.829       62.910       45.736     8432.559     3957.687     2091.816        4.554        0.724      276.664       46.702        0.028      348.010       27.391      861.831
08/19/2013  18:41:00     -220.051     -112.352      -11.557       72.165       68.943       49.143     5207.793     4753.199     2415.055        3.678        0.619      247.074       43.188        0.031      347.983       27.342      861.825
08/19/2013  18:42:00     -174.216      -17.044       -8.886       70.056       55.154       37.163     4907.837     3042.018     1381.098        2.002        0.467      175.047       36.368        0.043      347.952       27.292      861.817
08/19/2013  18:43:00     -191.047      -49.457       -9.877       80.130       74.265       47.741     6420.757     5515.328     2279.244        2.663        0.711      197.345       39.477        0.040      347.953       27.293      861.821
08/19/2013  18:44:00     -157.522      -48.877        4.742       77.360       78.682       43.130     5984.639     6190.851     1860.226        2.063        0.702      164.931       45.809        0.077      347.916       27.229      861.823
08/19/2013  18:45:00     -222.982     -100.183       -8.467       77.039       71.515       38.561     5934.964     5114.402     1486.973        3.618        0.627      244.453       42.877        0.031      347.940       27.271      861.838
08/19/2013  18:46:00     -236.358      -59.329      -17.666       65.004       65.385       39.413     4225.532     4275.220     1553.409        3.487        0.503      243.690       29.724        0.015      347.938       27.266      861.837
08/19/2013  18:47:00     -236.046      -38.992       -8.254       98.242       69.681       47.373     9651.426     4855.429     2244.235        3.703        0.838      239.244       47.545        0.039      347.944       27.276      861.846
08/19/2013  18:48:00     -150.759      -42.058        3.740       90.142       75.176       38.831     8125.550     5651.387     1507.856        1.990        0.764      156.515       43.662        0.078      347.871       27.152      861.844
08/19/2013  18:49:00     -199.328      -68.602      -10.689       84.917       78.267       34.758     7210.975     6125.656     1208.143        2.955        0.727      210.803       38.263        0.033      347.875       27.157      861.849
08/19/2013  18:50:00     -208.682      -42.217       -3.314      137.335       88.591       43.911    18860.952     7848.380     1928.195        3.698        1.432      212.909       60.794        0.082      347.873       27.157      861.862
08/19/2013  18:51:00     -256.642      -74.462       -1.112       99.132       84.409       44.312     9827.111     7124.806     1963.554        4.516        0.946      267.226       39.579        0.022      347.923       27.241      861.857
08/19/2013  18:52:00     -190.077      -51.691      -12.371       96.822       77.183       35.231     9374.426     5957.156     1241.238        2.776        0.829      196.980       38.291        0.038      347.912       27.221      861.841
08/19/2013  18:53:00     -167.307       -9.544        4.971       87.886       60.573       45.612     7723.979     3669.118     2080.443        2.079        0.674      167.579       50.839        0.092      347.830       27.082      861.833
08/19/2013  18:54:00     -147.799      -65.778       -0.953      107.186       75.839       44.540    11488.906     5751.506     1983.848        2.270        0.961      161.776       59.318        0.134      347.814       27.053      861.822
08/19/2013  18:55:00     -171.719      -42.152       -0.700       91.012       54.777       36.535     8283.272     3000.469     1334.814        2.194        0.631      176.817       38.020        0.046      347.839       27.095      861.822
08/19/2013  18:56:00     -178.248      -36.261       -1.338       84.933       65.417       50.954     7213.586     4279.381     2596.327        2.359        0.704      181.899       49.587        0.074      347.841       27.099      861.818
08/19/2013  18:57:00     -250.256      -74.262      -12.352       71.465       72.626       41.127     5107.296     5274.577     1691.418        4.018        0.604      261.042       36.238        0.019      347.876       27.158      861.802
08/19/2013  18:58:00     -236.991      -44.571       -2.424       84.031       73.768       48.324     7061.209     5441.734     2335.230        3.650        0.742      241.146       39.266        0.027      347.856       27.126      861.788
08/19/2013  18:59:00     -234.346      -44.706       -9.266      107.591       61.094       54.769    11575.780     3732.512     2999.661        3.765        0.915      238.573       64.120        0.072      347.855       27.123      861.794
08/19/2013  19:00:00     -194.044      -33.602       -0.404       96.804       74.599       43.033     9371.039     5564.948     1851.842        2.778        0.839      196.932       52.491        0.071      347.792       27.015      861.789
08/19/2013  19:01:00     -255.691      -82.878        2.371      116.924       97.844       52.122    13671.282     9573.432     2716.740        4.910        1.298      268.788       51.566        0.037      347.839       27.095      861.774
08/19/2013  19:02:00     -178.119      -33.181       -4.277       89.032       69.345       42.408     7926.778     4808.731     1798.443        2.369        0.727      181.183       40.292        0.049      347.778       26.992      861.765
08/19/2013  19:03:00     -242.173      -49.692      -12.621       66.547       72.776       33.284     4428.510     5296.344     1107.841        3.605        0.542      247.219       25.020        0.010      347.811       27.046      861.765
08/19/2013  19:04:00     -198.612      -39.729       -4.299       91.421       66.578       41.903     8357.826     4432.595     1755.825        2.779        0.727      202.546       44.936        0.049      347.772       26.981      861.766
08/19/2013  19:05:00     -203.907      -30.621       -5.850       70.521       82.417       45.839     4973.153     6792.527     2101.200        2.821        0.693      206.193       43.010        0.044      347.800       27.029      861.768
08/19/2013  19:06:00     -207.289      -24.858       -0.957      114.660       76.740       52.143    13146.986     5888.967     2718.909        3.267        1.088      208.774       58.877        0.080      347.757       26.955      861.773
08/19/2013  19:07:00     -307.199      -56.894      -23.565       97.156       74.141       42.002     9439.356     5496.922     1764.203        5.743        0.835      312.423       33.816        0.012      347.818       27.061      861.781
08/19/2013  19:08:00     -230.799      -37.898       -9.005       92.003       51.799       42.268     8464.473     2683.095     1786.608        3.386        0.647      233.890       43.877        0.035      347.787       27.007      861.779
08/19/2013  19:09:00     -193.514      -24.192       -2.777       83.551       67.932       40.849     6980.713     4614.689     1668.601        2.565        0.663      195.020       23.432        0.014      347.772       26.981      861.784
08/19/2013  19:10:00     -233.602      -43.712        0.453       74.208       73.290       46.140     5506.840     5371.460     2128.905        3.474        0.650      237.656       43.846        0.034      347.752       26.944      861.785
08/19/2013  19:11:00     -295.560      -56.693      -18.788       95.470       82.756       48.251     9114.599     6848.564     2328.119        5.460        0.915      300.948       46.391        0.024      347.784       27.000      861.787
08/19/2013  19:12:00     -201.051      -95.763        1.369       89.662       86.430       45.125     8039.223     7470.166     2036.266        3.357        0.877      222.693       40.598        0.033      347.737       26.921      861.802
08/19/2013  19:13:00     -177.683      -24.767        5.116      109.385       63.180       46.983    11965.079     3991.690     2207.432        2.518        0.908      179.400       60.345        0.113      347.728       26.906      861.804
08/19/2013  19:14:00     -231.016      -42.087       -9.850       93.531       67.698       46.284     8748.078     4583.013     2142.174        3.535        0.774      234.818       50.106        0.046      347.744       26.930      861.805
08/19/2013  19:15:00     -135.823      -43.287        1.156       97.885       87.192       53.755     9581.398     7602.505     2889.569        2.019        1.004      142.554       55.938        0.154      347.673       26.810      861.805
08/19/2013  19:16:00     -283.288      -46.255       -6.002       79.358       60.614       44.814     6297.724     3674.099     2008.255        4.720        0.599      287.040       37.154        0.017      347.779       26.990      861.808
08/19/2013  19:17:00     -159.397      -14.617       -1.896       90.281       52.468       38.961     8150.677     2752.873     1517.969        1.902        0.621      160.065       38.466        0.058      347.701       26.859      861.822
08/19/2013  19:18:00     -212.991      -30.677      -14.847       73.917       75.049       45.298     5463.670     5632.336     2051.953        2.984        0.657      215.189       37.545        0.030      347.737       26.920      861.823
08/19/2013  19:19:00     -161.000      -41.871       -4.255       88.816       83.893       36.694     7888.219     7037.985     1346.481        2.198        0.814      166.355       36.433        0.048      347.687       26.834      861.821
08/19/2013  19:20:00     -189.309      -64.641       -6.464       67.467       70.757       39.484     4551.747     5006.598     1559.016        2.559        0.556      200.041       32.423        0.026      347.718       26.887      861.825
08/19/2013  19:21:00     -207.782      -42.502      -12.972       99.925       66.823       41.265     9984.984     4465.247     1702.802        3.065        0.808      212.085       46.721        0.049      347.754       26.950      861.822
08/19/2013  19:22:00     -120.139      -65.147        7.987       70.292       71.652       37.191     4940.948     5134.024     1383.185        1.510        0.573      136.665       37.970        0.077      347.671       26.808      861.800
08/19/2013  19:23:00     -156.235      -35.594        1.772       60.425       76.705       39.710     3651.121     5883.608     1576.879        1.839        0.556      160.238       40.791        0.065      347.723       26.898      861.794
08/19/2013  19:24:00     -146.784      -32.513       -8.245       65.355       64.539       30.898     4271.284     4165.220      954.672        1.603        0.470      150.342       31.319        0.043      347.695       26.850      861.795
08/19/2013  19:25:00     -120.839      -32.967       -6.266       80.569       54.850       33.782     6491.308     3008.513     1141.231        1.318        0.532      125.255       30.392        0.059      347.671       26.809      861.778
08/19/2013  19:26:00     -223.001      -21.503      -16.745       80.717       53.328       45.393     6515.217     2843.898     2060.528        3.094        0.571      224.035       46.552        0.043      347.728       26.904      861.783
08/19/2013  19:27:00     -181.757      -55.181       -6.468      110.659       54.079       35.018    12245.448     2924.495     1226.246        2.626        0.820      189.949       42.128        0.049      347.718       26.889      861.789
08/19/2013  19:28:00     -171.033      -37.187       -1.108       77.382       63.645       28.687     5988.047     4050.675      822.922        2.075        0.543      175.029       28.818        0.027      347.697       26.852      861.798
08/19/2013  19:29:00     -271.877      -93.897      -11.550       79.869       82.279       47.992     6379.018     6769.909     2303.262        4.916        0.773      287.635       46.675        0.026      347.775       26.984      861.802
08/19/2013  19:30:00     -148.314      -37.964       12.401       88.641       65.660       42.687     7857.144     4311.195     1822.178        1.879        0.700      153.096       51.741        0.114      347.713       26.881      861.822
08/19/2013  19:31:00     -209.114     -109.608       -2.840       86.789       69.868       42.103     7532.300     4881.494     1772.693        3.497        0.709      236.098       28.294        0.014      347.751       26.943      861.851
08/19/2013  19:32:00     -190.416      -79.321      -21.870       72.756       42.827       31.467     5293.402     1834.178      990.170        2.557        0.406      206.276       32.707        0.025      347.732       26.912      861.861
08/19/2013  19:33:00     -203.464       -6.726       -4.953       99.374       60.186       42.038     9875.289     3622.386     1767.168        2.836        0.763      203.575       30.907        0.023      347.755       26.951      861.871
08/19/2013  19:34:00     -209.015      -40.328       -2.921       61.859       54.230       37.582     3826.574     2940.887     1412.432        2.675        0.409      212.870       27.742        0.017      347.772       26.981      861.895
08/19/2013  19:35:00     -202.231      -85.512      -11.293       65.726       65.584       32.769     4319.936     4301.255     1073.784        2.901        0.485      219.567       33.649        0.023      347.733       26.914      861.910
08/19/2013  19:36:00     -158.807      -54.650       -3.359       81.300       64.365       43.144     6609.622     4142.865     1861.372        2.041        0.631      167.947       41.849        0.062      347.682       26.826      861.908
08/19/2013  19:37:00     -112.662      -56.549       -3.976       82.125       57.835       39.374     6744.496     3344.879     1550.331        1.377        0.582      126.057       43.661        0.120      347.662       26.793      861.902
08/19/2013  19:38:00     -187.071     -107.517       -3.186       80.418       78.778       46.479     6467.041     6205.910     2160.332        3.070        0.742      215.767       39.614        0.034      347.763       26.966      861.917
08/19/2013  19:39:00     -161.931      -29.220       -4.687       79.207       48.993       35.422     6273.736     2400.343     1254.710        1.851        0.496      164.547       29.089        0.031      347.738       26.923      861.923
08/19/2013  19:40:00     -133.822      -59.460        0.923       79.298       45.980       29.696     6288.101     2114.192      881.879        1.536        0.464      146.437       35.182        0.058      347.711       26.877      861.923
08/19/2013  19:41:00     -157.552      -76.691       -2.224       83.753       57.405       46.282     7014.591     3295.359     2142.012        2.158        0.623      175.226       48.800        0.078      347.738       26.923      861.925
08/19/2013  19:42:00     -129.965      -37.475       -0.362       83.739       62.988       44.922     7012.137     3967.456     2018.022        1.564        0.650      135.260       38.830        0.082      347.730       26.911      861.934
08/19/2013  19:43:00      -68.606      -17.468       16.645       70.384       55.080       31.423     4953.848     3033.807      987.430        0.713        0.449       70.795       32.364        0.209      347.671       26.810      861.942
08/19/2013  19:44:00     -183.639     -116.449       -3.949       64.161       60.419       42.634     4116.584     3650.448     1817.687        2.844        0.479      217.448       38.803        0.032      347.734       26.914      861.944
08/19/2013  19:45:00     -165.472      -81.344       -8.955       62.035       40.624       33.824     3848.371     1650.281     1144.072        2.036        0.332      184.385       28.692        0.024      347.718       26.889      861.948
08/19/2013  19:46:00     -115.351      -59.346        2.476      103.484       58.419       44.803    10708.993     3412.759     2007.323        1.648        0.806      129.722       47.177        0.132      347.667       26.802      861.958
08/19/2013  19:47:00     -247.747     -130.670      -14.697       83.600       57.995       38.582     6988.892     3363.446     1488.601        4.525        0.592      280.095       29.264        0.011      347.797       27.022      861.964
08/19/2013  19:48:00     -171.447     -105.484        1.106       99.744       66.503       46.259     9948.948     4422.585     2139.913        2.851        0.826      201.298       50.613        0.063      347.738       26.924      861.959
08/19/2013  19:49:00     -195.125     -106.307       -4.497       53.637       71.950       37.351     2876.912     5176.781     1395.077        2.942        0.472      222.205       20.605        0.009      347.749       26.940      861.960
08/19/2013  19:50:00     -163.830      -97.640        0.961       77.558       57.517       32.204     6015.259     3308.198     1037.120        2.337        0.518      190.719       34.147        0.032      347.729       26.907      861.971
08/19/2013  19:51:00     -117.866      -97.592       -4.127       95.920       80.822       52.782     9200.637     6532.218     2785.900        2.097        0.926      153.025       54.503        0.127      347.691       26.842      861.968
08/19/2013  19:52:00     -121.857      -31.627        8.248       88.558       70.821       48.053     7842.454     5015.636     2309.114        1.554        0.758      125.895       47.977        0.145      347.665       26.797      861.967
08/19/2013  19:53:00     -166.810      -94.140       -4.313       73.063       63.394       43.069     5338.238     4018.759     1854.915        2.396        0.561      191.541       36.995        0.037      347.687       26.834      861.971
08/19/2013  19:54:00     -160.703      -45.334        6.265       90.624       74.441       44.175     8212.622     5541.457     1951.473        2.181        0.785      166.975       50.193        0.090      347.663       26.792      861.985
08/19/2013  19:55:00     -194.389      -76.124      -18.256      119.408       73.651       57.026    14258.323     5424.508     3252.017        3.342        1.147      208.763       57.500        0.076      347.671       26.806      861.993
08/19/2013  19:56:00     -189.906      -97.816       -6.721       83.324       89.393       42.949     6942.895     7991.065     1844.624        3.123        0.839      213.618       40.824        0.037      347.665       26.795      861.992
08/19/2013  19:57:00     -207.392      -33.260       -1.058      158.024       73.701       48.577    24971.649     5431.804     2359.749        3.844        1.638      210.042       64.310        0.094      347.672       26.808      861.994
08/19/2013  19:58:00     -272.898      -48.261       -8.577      115.631      115.640       56.484    13370.523    13372.663     3190.466        5.340        1.497      277.132       59.679        0.046      347.714       26.879      862.004
08/19/2013  19:59:00     -191.006     -118.204      -14.860      102.134      100.552       53.176    10431.398    10110.750     2827.690        3.702        1.168      224.623       50.907        0.051      347.678       26.820      862.014
08/19/2013  20:00:00     -146.497      -86.048       20.753      126.734       87.506       54.111    16061.620     7657.243     2927.999        2.797        1.332      169.899       72.319        0.181      347.635       26.745      862.015
08/19/2013  20:01:00     -158.611     -121.597       -0.282       87.484       89.882       49.657     7653.406     8078.685     2465.856        2.907        0.910      199.858       46.400        0.054      347.644       26.761      862.015
08/19/2013  20:02:00     -183.612     -123.720       -3.958       96.936       95.859       45.394     9396.637     9189.014     2060.579        3.484        1.032      221.404       45.775        0.043      347.661       26.789      862.014
08/19/2013  20:03:00     -225.519     -134.949       -9.694      117.039       68.075       45.819    13698.225     4634.150     2099.373        4.479        1.022      262.812       33.006        0.016      347.707       26.868      862.011
08/19/2013  20:04:00     -163.861      -85.758       -4.539       95.126       98.045       46.136     9048.924     9612.881     2128.525        2.750        1.040      184.945       50.671        0.075      347.632       26.739      862.019
08/19/2013  20:05:00     -263.739     -125.484       -7.681      112.978       85.358       53.575    12763.958     7285.977     2870.304        5.414        1.146      292.069       55.259        0.036      347.680       26.821      862.031
08/19/2013  20:06:00     -222.126      -98.924       -0.514      108.848       86.328       56.936    11847.980     7452.560     3241.685        4.083        1.127      243.158       51.287        0.044      347.716       26.884      862.035
08/19/2013  20:07:00     -165.161      -54.494       11.878      133.755       94.501       50.608    17890.331     8930.456     2561.214        2.988        1.469      173.919       58.745        0.114      347.637       26.749      862.032
08/19/2013  20:08:00     -215.052      -79.254       -3.114      115.116       89.789       46.713    13251.723     8062.041     2182.072        3.801        1.175      229.191       59.234        0.067      347.700       26.856      862.047
08/19/2013  20:09:00     -175.152      -56.536        0.748       89.407       77.702       39.424     7993.526     6037.615     1554.285        2.473        0.779      184.051       30.073        0.027      347.644       26.762      862.058
08/19/2013  20:10:00     -151.698      -76.257       -4.973       81.341       96.686       48.350     6616.373     9348.240     2337.706        2.357        0.915      169.786       44.108        0.067      347.658       26.784      862.065
08/19/2013  20:11:00     -262.803     -113.959       -9.060       87.167       86.147       49.399     7598.149     7421.223     2440.261        4.979        0.873      286.448       39.892        0.019      347.697       26.849      862.082
08/19/2013  20:12:00     -180.551      -22.797       -7.724       66.724       60.258       37.451     4452.085     3630.982     1402.543        2.133        0.474      181.985       31.408        0.030      347.681       26.824      862.095
08/19/2013  20:13:00     -197.058      -69.962        2.828       75.447       64.906       36.753     5692.281     4212.762     1350.779        2.749        0.563      209.109       43.514        0.043      347.701       26.857      862.106
08/19/2013  20:14:00     -232.235     -108.204      -11.166       82.139       66.901       40.889     6746.748     4475.722     1671.880        3.933        0.645      256.206       38.285        0.022      347.693       26.843      862.127
08/19/2013  20:15:00     -213.512       14.160       -4.015       86.799       77.512       46.047     7534.119     6008.148     2120.290        3.073        0.783      213.981       43.482        0.041      347.650       26.769      862.138
08/19/2013  20:16:00     -191.687      -58.712        1.154       64.016       64.376       39.534     4098.049     4144.322     1562.916        2.500        0.490      200.477       33.694        0.028      347.650       26.771      862.153
08/19/2013  20:17:00     -153.694       -5.277       -8.773       35.661       42.143       27.178     1271.725     1776.035      738.661        1.376        0.189      153.784       16.152        0.011      347.614       26.712      862.155
08/19/2013  20:18:00     -215.694        1.426      -22.159       70.150       49.759       30.563     4921.053     2475.991      934.124        2.767        0.417      215.699       31.048        0.021      347.663       26.792      862.164
08/19/2013  20:19:00     -223.623      -43.161       -9.045       91.824       67.826       43.349     8431.642     4600.427     1879.149        3.343        0.746      227.750       50.320        0.049      347.681       26.822      862.165
08/19/2013  20:20:00     -201.770      -27.752      -11.501      100.661       43.298       33.463    10132.550     1874.730     1119.801        2.737        0.656      203.670       46.413        0.052      347.651       26.770      862.181
08/19/2013  20:21:00     -173.574       -5.854      -13.711       58.023       37.828       27.787     3366.683     1430.981      772.094        1.796        0.278      173.673       25.417        0.021      347.694       26.849      862.191
08/19/2013  20:22:00     -225.760      -60.415      -22.153       59.023       78.881       34.341     3483.669     6222.189     1179.336        3.299        0.544      233.704       25.926        0.012      347.697       26.851      862.193
08/19/2013  20:23:00     -144.456      -21.713       -6.755       50.149       60.202       26.651     2514.899     3624.235      710.261        1.412        0.342      146.079       19.481        0.018      347.655       26.781      862.200
08/19/2013  20:24:00     -198.736       -3.023      -10.174       69.482       51.131       31.211     4827.794     2614.345      974.138        2.401        0.421      198.759       33.023        0.028      347.699       26.856      862.205
08/19/2013  20:25:00     -156.799      -16.176       -6.476       90.544       62.645       45.054     8198.232     3924.367     2029.855        1.952        0.708      157.631       48.982        0.097      347.670       26.805      862.212
08/19/2013  20:26:00     -172.281      -27.770       -5.326       65.705       48.520       36.388     4317.125     2354.218     1324.062        1.924        0.400      174.505       35.337        0.041      347.688       26.835      862.220
08/19/2013  20:27:00     -150.722        0.565      -11.854       45.120       35.229       23.769     2035.848     1241.107      564.982        1.335        0.192      150.723       22.792        0.023      347.665       26.799      862.217
08/19/2013  20:28:00      -80.554      -37.891      -11.474       40.208       28.252       20.834     1616.722      798.161      434.060        0.545        0.142       89.021       19.072        0.046      347.609       26.705      862.218
08/19/2013  20:29:00     -120.650      -30.431      -16.726       51.736       34.402       22.967     2676.592     1183.471      527.473        1.007        0.219      124.428       23.331        0.035      347.619       26.722      862.218
08/19/2013  20:30:00      -82.053      -58.247       -6.285       61.501       45.436       32.197     3782.357     2064.389     1036.673        0.852        0.344      100.625       28.810        0.082      347.607       26.700      862.218
08/19/2013  20:31:00     -128.157        0.321      -11.256       34.773       27.417       22.032     1209.189      751.670      485.413        0.950        0.122      128.157       12.695        0.010      347.663       26.796      862.226
08/19/2013  20:32:00      -78.279      -17.441        3.694       49.356       34.128       25.446     2435.998     1164.706      647.477        0.535        0.212       80.199       23.166        0.083      347.612       26.707      862.225
08/19/2013  20:33:00     -109.806      -55.064        2.037       43.117       47.043       27.000     1859.068     2213.079      729.026        0.995        0.240      122.839       24.581        0.040      347.596       26.680      862.228
08/19/2013  20:34:00      -71.448      -13.114       -1.914       40.538       36.812       25.321     1643.311     1355.134      641.169        0.446        0.182       72.641       27.039        0.139      347.596       26.680      862.245
08/19/2013  20:35:00     -129.280      -53.626      -10.888       23.767       25.321       17.922      564.877      641.140      321.204        1.062        0.076      139.961       11.391        0.007      347.641       26.759      862.256
08/19/2013  20:36:00     -115.909      -11.514      -18.801       35.889       34.957       19.393     1288.041     1222.010      376.092        0.840        0.144      116.479       22.139        0.036      347.663       26.794      862.271
08/19/2013  20:37:00      -55.155      -23.713        2.536       51.018       38.770       26.876     2602.857     1503.130      722.328        0.422        0.241       60.037       25.506        0.180      347.653       26.777      862.281
08/19/2013  20:38:00      -45.899        2.410        0.958       29.704       23.669       12.931      882.343      560.218      167.201        0.186        0.080       45.963       11.104        0.058      347.557       26.612      862.300
08/19/2013  20:39:00      -54.949      -14.449        0.211       33.332       21.442       14.779     1111.054      459.744      218.408        0.251        0.089       56.817       16.142        0.081      347.600       26.689      862.302
08/19/2013  20:40:00      -47.239       -4.791       -6.212       39.207       14.606       15.087     1537.160      213.344      227.623        0.214        0.099       47.481       19.711        0.172      347.583       26.662      862.303
08/19/2013  20:41:00      -23.557       32.960        6.242       27.236       15.509       13.693      741.810      240.535      187.505        0.142        0.058       40.513       16.742        0.171      347.424       26.383      862.304
08/19/2013  20:42:00      -38.017       26.176        0.812       23.680       16.736       12.988      560.765      280.084      168.695        0.157        0.050       46.157       13.016        0.080      347.538       26.581      862.293
08/19/2013  20:43:00      -24.818       25.526        3.153       16.923       13.814       12.478      286.402      190.833      155.707        0.096        0.032       35.602       12.003        0.114      347.488       26.494      862.288
08/19/2013  20:44:00      -29.391        0.037        0.540       18.794       22.533        6.900      353.224      507.729       47.614        0.089        0.045       29.391        7.431        0.064      347.554       26.609      862.276
08/19/2013  20:45:00      -71.938      -53.661        0.870       35.008       29.367       23.678     1225.594      862.440      560.627        0.535        0.132       89.747       22.384        0.062      347.614       26.712      862.262
08/19/2013  20:46:00      -54.777      -51.853       -1.322       42.207       38.762       18.131     1781.455     1502.458      328.739        0.465        0.181       75.427       15.504        0.042      347.630       26.739      862.258
08/19/2013  20:47:00       -9.319      -36.528       22.237       44.891       30.252       27.068     2015.212      915.159      732.702        0.279        0.183       37.699       28.607        0.576      347.651       26.776      862.257
08/19/2013  20:48:00       -1.732      -23.540       14.899       30.100       22.867       22.242      906.005      522.905      494.699        0.135        0.096       23.603       22.113        0.878      347.614       26.710      862.264
08/19/2013  20:49:00       -5.773        3.362       14.234        9.065       11.466        9.242       82.176      131.470       85.408        0.027        0.015        6.681        5.313        0.632      347.470       26.462      862.264
08/19/2013  20:50:00      -24.460        2.234        0.489       23.462       14.683       12.688      550.463      215.596      160.997        0.077        0.046       24.561       11.958        0.237      347.476       26.474      862.279
08/19/2013  20:51:00        3.745       25.378        9.988       13.497       18.072       10.891      182.181      326.610      118.606        0.069        0.031       25.653        6.589        0.066      347.202       25.998      862.297
08/19/2013  20:52:00       11.479       57.912       -0.350       12.958       11.701        8.983      167.901      136.910       80.694        0.194        0.019       59.038        5.869        0.010      347.285       26.143      862.327
08/19/2013  20:53:00       -0.077       48.149       -7.081        6.465        8.775        4.840       41.801       76.997       23.425        0.126        0.007       48.149        1.982        0.002      347.475       26.471      862.344
08/19/2013  20:54:00        5.409       53.914       -3.465       20.915       26.461       12.197      437.447      700.204      148.777        0.212        0.064       54.185       14.347        0.070      347.407       26.356      862.357
08/19/2013  20:55:00       19.563        3.025       14.182       16.560       12.284       18.205      274.236      150.895      331.429        0.067        0.038       19.796       10.095        0.260      346.753       25.227      862.354
08/19/2013  20:56:00        8.038       11.392        0.898       23.165       17.193       16.299      536.606      295.606      265.643        0.065        0.055       13.942       18.432        1.748      347.385       26.314      862.346
08/19/2013  20:57:00      -38.012       13.138       -0.640       15.997        8.145        3.796      255.911       66.334       14.407        0.098        0.017       40.218        2.933        0.005      347.575       26.644      862.344
08/19/2013  20:58:00       12.119      -13.634        0.623       31.091       19.578       16.172      966.652      383.308      261.548        0.097        0.081       18.242       12.446        0.465      347.108       25.838      862.337
08/19/2013  20:59:00      -30.046       -5.789        1.901       17.790        8.249        7.662      316.488       68.045       58.702        0.069        0.022       30.599        9.360        0.094      347.038       25.719      862.340
08/19/2013  21:00:00      -33.092      -11.640       -6.890        8.574        6.623        4.652       73.506       43.868       21.637        0.071        0.007       35.080        4.183        0.014      347.319       26.204      862.336
08/19/2013  21:01:00      -25.701       -1.468       -2.124        7.562       10.860        3.988       57.181      117.939       15.900        0.043        0.010       25.743        3.760        0.021      347.051       25.743      862.321
08/19/2013  21:02:00      -17.373       -5.301       -3.258       16.952        8.084        6.883      287.359       65.345       47.382        0.037        0.020       18.164        7.934        0.191      347.249       26.081      862.302
08/19/2013  21:03:00      -28.776       -8.152       -6.014       27.799       23.385       12.759      772.768      546.851      162.803        0.121        0.074       29.908       17.806        0.354      347.232       26.054      862.280
08/19/2013  21:04:00      -25.428      -27.810       -1.092       20.940       16.272       17.067      438.469      264.766      291.289        0.121        0.050       37.683       15.764        0.175      347.903       27.211      862.278
08/19/2013  21:05:00      -24.356      -34.499       -5.352       21.426       13.609       12.444      459.054      185.197      154.848        0.131        0.040       42.231       10.143        0.058      347.562       26.621      862.287
08/19/2013  21:06:00      -44.052      -35.232        0.320       14.353       18.014       14.458      206.001      324.510      209.041        0.196        0.037       56.408        8.772        0.024      347.324       26.210      862.288
08/19/2013  21:07:00      -34.841      -24.484       -2.300       28.631       14.265       10.881      819.724      203.491      118.396        0.148        0.057       42.584       13.644        0.103      347.135       25.885      862.286
08/19/2013  21:08:00      -53.761      -31.554        1.660       44.130       22.200       19.366     1947.468      492.859      375.024        0.335        0.141       62.337       17.812        0.082      347.097       25.819      862.281
08/19/2013  21:09:00      -73.691      -99.023        4.170       38.015       59.273       26.361     1445.149     3513.294      694.898        1.045        0.283      123.434       25.991        0.044      347.214       26.020      862.279
08/19/2013  21:10:00      -57.676     -138.438       -3.330       18.220       29.794       13.648      331.960      887.674      186.259        1.195        0.070      149.972        6.301        0.002      347.537       26.578      862.286
08/19/2013  21:11:00      -66.652     -108.455       -3.298       17.590       23.895       14.981      309.415      570.950      224.431        0.866        0.055      127.299        7.252        0.003      347.387       26.319      862.289
08/19/2013  21:12:00      -38.766      -66.580       12.799       33.012       43.808       17.553     1089.760     1919.144      308.124        0.471        0.166       77.044       17.027        0.049      347.406       26.351      862.292
08/19/2013  21:13:00      -42.708     -101.648        1.042       27.359       30.096       18.882      748.490      905.791      356.547        0.708        0.101      110.256        9.267        0.007      347.603       26.692      862.293
08/19/2013  21:14:00      -20.295      -96.382        4.012       26.556       48.136       15.487      705.228     2317.100      239.841        0.649        0.163       98.495       13.686        0.019      347.500       26.513      862.297
08/19/2013  21:15:00      -44.399     -157.231       -4.102       32.694       30.641       19.621     1068.906      938.881      384.970        1.455        0.120      163.380        9.034        0.003      347.429       26.394      862.291
08/19/2013  21:16:00      -57.139      -96.292        1.138       47.016       33.884       27.367     2210.473     1148.097      748.979        0.832        0.205      111.969       25.714        0.053      347.376       26.301      862.304
08/19/2013  21:17:00      -84.974      -76.508       -4.940       32.036       28.727       20.059     1026.275      825.225      402.346        0.768        0.113      114.342       10.631        0.009      347.294       26.160      862.319
08/19/2013  21:18:00      -68.361      -49.204        2.821       25.376       31.654       15.211      643.954     1002.007      231.361        0.449        0.094       84.227        6.019        0.005      347.163       25.934      862.333
08/19/2013  21:19:00      -88.237      -93.597       -2.404       32.173       26.648       17.910     1035.073      710.134      320.767        0.931        0.103      128.631        8.753        0.005      347.292       26.157      862.338
08/19/2013  21:20:00      -62.415     -166.582       -0.659       23.322       39.214       14.426      543.921     1537.768      208.108        1.697        0.114      177.891       15.285        0.007      347.352       26.257      862.344
08/19/2013  21:21:00      -91.936     -201.359       -7.587       41.624       44.226       25.109     1732.538     1955.947      630.453        2.669        0.216      221.355       18.315        0.007      347.379       26.303      862.354
08/19/2013  21:22:00     -100.032     -161.102      -10.621       40.800       41.274       29.526     1664.672     1703.582      871.792        2.016        0.212      189.632       21.887        0.013      347.270       26.117      862.354
08/19/2013  21:23:00      -99.845      -98.775       -2.131       58.080       37.782       27.366     3373.306     1427.446      748.925        1.264        0.277      140.448       28.146        0.040      347.190       25.979      862.365
08/19/2013  21:24:00     -103.243      -54.928        8.511       56.764       45.036       29.740     3222.149     2028.286      884.459        0.994        0.307      116.945       28.254        0.058      347.154       25.917      862.380
08/19/2013  21:25:00     -122.694      -90.490       -7.848       30.821       37.006       20.993      949.942     1369.415      440.705        1.303        0.138      152.454       18.805        0.015      347.152       25.915      862.399
08/19/2013  21:26:00     -126.108      -59.062       -0.400       37.404       30.126       21.781     1399.037      907.571      474.394        1.109        0.139      139.253       16.378        0.014      347.068       25.769      862.414
08/19/2013  21:27:00      -79.338      -44.789       -2.135       39.074       26.261       17.508     1526.812      689.639      306.517        0.541        0.126       91.107       18.536        0.041      347.094       25.814      862.423
08/19/2013  21:28:00      -86.030      -98.611        3.005       43.410       36.792       29.349     1884.391     1353.628      861.377        1.062        0.205      130.864       30.604        0.055      347.083       25.797      862.420
08/19/2013  21:29:00      -90.148      -77.205        4.711       67.759       47.856       29.689     4591.233     2290.152      881.434        1.093        0.388      118.690       37.257        0.099      346.991       25.636      862.419
08/19/2013  21:30:00     -120.257      -83.928        6.029       47.060       38.902       30.080     2214.641     1513.375      904.829        1.309        0.232      146.648       27.897        0.036      347.044       25.727      862.430
08/19/2013  21:31:00     -113.253      -38.051        2.877       40.081       40.319       23.211     1606.489     1625.652      538.736        0.903        0.189      119.474       23.014        0.037      346.979       25.615      862.436
08/19/2013  21:32:00     -101.502      -11.883       10.981       59.264       39.116       28.962     3512.253     1530.073      838.774        0.822        0.294      102.195       31.372        0.094      346.838       25.374      862.436
08/19/2013  21:33:00      -92.041      -73.032        1.878       40.993       41.007       24.946     1680.429     1681.615      622.286        0.890        0.199      117.496       21.654        0.034      346.907       25.493      862.439
08/19/2013  21:34:00     -121.420      -26.207       -7.373       69.555       59.153       27.759     4837.853     3499.058      770.559        1.229        0.455      124.216       26.284        0.045      346.955       25.575      862.436
08/19/2013  21:35:00     -132.891      -37.182       -2.686       84.444       52.821       33.409     7130.850     2790.048     1116.183        1.504        0.552      137.995       33.610        0.059      346.868       25.425      862.449
08/19/2013  21:36:00     -141.585      -29.960       -7.715       56.139       31.104       28.102     3151.532      967.459      789.730        1.296        0.245      144.720       30.117        0.043      346.766       25.250      862.441
08/19/2013  21:37:00     -134.991      -46.695       -9.188       42.729       40.119       19.077     1825.728     1609.531      363.927        1.214        0.190      142.839       16.211        0.013      346.757       25.233      862.439
08/19/2013  21:38:00     -183.412      -58.903       -8.897       53.176       36.328       22.033     2827.711     1319.698      485.473        2.091        0.232      192.638       21.250        0.012      346.844       25.382      862.417
08/19/2013  21:39:00     -147.924      -36.776       -0.195       74.985       36.191       33.901     5622.691     1309.818     1149.307        1.566        0.404      152.427       36.361        0.057      346.834       25.366      862.402
08/19/2013  21:40:00     -163.738      -50.561       -4.594       60.724       47.303       29.468     3687.451     2237.543      868.348        1.809        0.340      171.366       20.833        0.015      346.820       25.342      862.383
08/19/2013  21:41:00     -174.453      -72.049       -0.176       92.933       67.474       43.419     8636.460     4552.693     1885.187        2.535        0.754      188.745       50.990        0.073      346.857       25.404      862.368
08/19/2013  21:42:00     -182.003      -50.731        6.124       86.727       73.639       49.280     7521.630     5422.731     2428.538        2.555        0.769      188.941       47.598        0.063      346.873       25.432      862.372
08/19/2013  21:43:00     -218.045      -48.618      -12.665       62.069       68.581       41.696     3852.564     4703.370     1738.592        3.018        0.515      223.400       35.184        0.025      346.941       25.547      862.387
08/19/2013  21:44:00     -178.923        1.870       -7.956       51.972       54.331       29.124     2701.135     2951.850      848.232        1.929        0.325      178.932       28.888        0.026      346.835       25.369      862.397
08/19/2013  21:45:00     -141.761      -29.423      -13.655       52.995       31.153       23.683     2808.454      970.539      560.869        1.274        0.217      144.782       21.154        0.021      346.811       25.327      862.409
08/19/2013  21:46:00      -90.997      -31.603       -3.466       44.399       35.407       24.149     1971.263     1253.660      583.190        0.655        0.190       96.328       21.491        0.050      346.737       25.200      862.414
08/19/2013  21:47:00     -176.125      -27.852      -20.312       44.924       36.300       25.339     2018.151     1317.654      642.052        1.809        0.199      178.313       23.802        0.018      346.744       25.211      862.426
08/19/2013  21:48:00     -150.812      -14.974       -7.190       49.468       60.607       31.547     2447.065     3673.178      995.229        1.507        0.356      151.554       27.890        0.034      346.788       25.287      862.446
08/19/2013  21:49:00     -183.217      -17.927      -13.139       36.084       43.997       21.775     1302.032     1935.709      474.162        1.889        0.186      184.092       19.178        0.011      346.742       25.207      862.459
08/19/2013  21:50:00     -127.181      -21.365       -7.733       46.794       40.649       21.907     2189.666     1652.380      479.911        1.051        0.216      128.963       25.184        0.038      346.634       25.022      862.474
08/19/2013  21:51:00     -111.114       -6.635       -7.989       37.562       44.619       21.497     1410.883     1990.868      462.109        0.816        0.193      111.312       17.053        0.023      346.659       25.064      862.474
08/19/2013  21:52:00     -112.593      -44.690       -8.269       32.707       30.260       18.354     1069.739      915.645      336.885        0.853        0.116      121.138       13.634        0.013      346.639       25.031      862.473
08/19/2013  21:53:00     -146.515      -41.542       -3.099       54.404       43.533       26.975     2959.831     1895.133      727.654        1.439        0.279      152.290       28.287        0.035      346.708       25.150      862.468
08/19/2013  21:54:00     -118.382      -35.730        2.029       53.795       43.708       34.215     2893.890     1910.382     1170.650        1.063        0.299      123.657       31.730        0.066      346.765       25.248      862.465
08/19/2013  21:55:00     -145.632      -59.992       -1.446       69.040       33.581       34.624     4766.479     1127.689     1198.792        1.595        0.355      157.505       41.331        0.069      346.753       25.227      862.466
08/19/2013  21:56:00     -132.848      -30.330       -5.578       73.961       48.169       26.460     5470.290     2320.261      700.138        1.354        0.425      136.267       27.482        0.041      346.790       25.289      862.461
08/19/2013  21:57:00     -119.211      -23.987        3.791       72.953       41.018       28.493     5322.128     1682.488      811.842        1.131        0.391      121.600       30.412        0.063      346.756       25.234      862.457
08/19/2013  21:58:00     -153.529       -2.441        7.403       63.295       43.628       34.292     4006.228     1903.384     1175.963        1.536        0.354      153.548       27.325        0.032      346.898       25.475      862.477
08/19/2013  21:59:00      -83.371       22.280        2.890       46.023       30.142       20.358     2118.085      908.564      414.462        0.545        0.172       86.296       21.089        0.060      346.698       25.133      862.485
08/19/2013  22:00:00      -63.369       41.739        0.984       23.977       28.030       18.182      574.884      785.675      330.585        0.372        0.085       75.880       13.841        0.033      346.584       24.934      862.485
08/19/2013  22:01:00     -112.425       36.594       -3.917       39.838       50.672       22.848     1587.057     2567.671      522.048        0.933        0.234      118.231       21.427        0.033      346.644       25.040      862.487
08/19/2013  22:02:00      -53.363       17.633       -1.137       35.239       25.563       18.229     1241.778      653.463      332.279        0.269        0.111       56.201       18.842        0.112      346.600       24.964      862.496
08/19/2013  22:03:00      -77.272       13.947       -8.980       51.977       17.706       18.722     2701.593      313.504      350.523        0.481        0.168       78.521       22.031        0.079      346.628       25.012      862.491
08/19/2013  22:04:00      -90.300      -33.239      -12.226       28.356       33.561       21.061      804.088     1126.371      443.556        0.589        0.119       96.224       14.974        0.024      346.560       24.895      862.499
08/19/2013  22:05:00      -93.472        6.346       -7.602       26.989       23.739       18.474      728.414      563.539      341.294        0.523        0.082       93.687       10.400        0.012      346.480       24.760      862.521
08/19/2013  22:06:00     -104.752      -32.338       -1.822       45.186       51.941       22.329     2041.813     2697.913      498.594        0.863        0.262      109.630       22.887        0.044      346.476       24.750      862.535
08/19/2013  22:07:00     -117.168      -44.073       -8.586       47.822       38.753       22.344     2286.987     1501.781      499.256        1.002        0.214      125.183       14.792        0.014      346.424       24.662      862.524
08/19/2013  22:08:00      -56.925      -45.029        8.974       37.769       35.804       22.971     1426.532     1281.913      527.670        0.429        0.162       72.581       18.443        0.065      346.380       24.586      862.514
08/19/2013  22:09:00      -82.065      -55.248        8.095       62.830       43.884       27.450     3947.564     1925.818      753.520        0.824        0.331       98.930       31.528        0.102      346.511       24.810      862.499
08/19/2013  22:10:00      -93.431      -95.370        1.411       65.192       61.885       35.629     4249.988     3829.813     1269.452        1.359        0.467      133.510       37.766        0.080      346.642       25.036      862.487
08/19/2013  22:11:00     -118.621      -92.095        1.578       83.489       68.294       42.689     6970.352     4664.052     1822.337        1.800        0.673      150.175       49.802        0.110      346.812       25.326      862.481
08/19/2013  22:12:00     -139.157      -87.506        1.020       80.315       57.680       37.117     6450.514     3327.032     1377.703        1.909        0.558      164.383       41.845        0.065      346.875       25.435      862.495
08/19/2013  22:13:00     -101.166      -50.908        1.771       53.297       38.169       26.559     2840.530     1456.863      705.366        0.892        0.250      113.252       27.924        0.061      346.814       25.332      862.513
08/19/2013  22:14:00      -37.190        2.722        7.363       34.806       37.880       16.626     1211.448     1434.897      276.415        0.218        0.146       37.290       12.694        0.116      346.594       24.952      862.533
08/19/2013  22:15:00       19.418       45.264        4.866       10.559        9.849       10.553      111.494       96.995      111.371        0.138        0.016       49.253        7.332        0.022      346.304       24.453      862.533
08/19/2013  22:16:00       14.829       31.995        4.016        7.552        8.571        5.404       57.037       73.465       29.206        0.071        0.008       35.265        3.415        0.009      346.283       24.417      862.547
08/19/2013  22:17:00       10.099       16.651       10.177        8.091        8.853        6.800       65.471       78.368       46.243        0.034        0.010       19.474        3.593        0.034      345.883       23.732      862.564
08/19/2013  22:18:00       15.931        5.428        9.206       15.911        7.884       11.282      253.175       62.160      127.288        0.041        0.022       16.830        9.793        0.339      345.942       23.834      862.566
08/19/2013  22:19:00        7.489       -6.391       11.279       16.922       14.161       10.496      286.351      200.537      110.160        0.041        0.030        9.845        7.418        0.568      345.969       23.879      862.560
08/19/2013  22:20:00        0.082      -43.177        8.932        9.646       18.502        7.928       93.052      342.336       62.847        0.122        0.025       43.177        4.179        0.009      346.613       24.986      862.578
08/19/2013  22:21:00       -3.813      -13.855       20.780       10.482       25.752        8.970      109.866      663.179       80.464        0.075        0.043       14.370        7.704        0.287      346.165       24.218      862.601
08/19/2013  22:22:00       21.850       -0.025        9.336       17.800       11.608        9.916      316.843      134.747       98.320        0.056        0.027       21.850        3.107        0.020      345.770       23.538      862.619
08/19/2013  22:23:00       25.407       12.118       -2.034       21.274       15.054        9.174      452.579      226.612       84.171        0.078        0.038       28.149        6.788        0.058      346.068       24.049      862.633
08/19/2013  22:24:00       47.607       32.255       18.934       20.483       33.244       18.344      419.535     1105.182      336.495        0.276        0.093       57.505       17.473        0.092      345.891       23.747      862.639
08/19/2013  22:25:00        9.626       49.623        1.150       26.260       16.074       15.475      689.568      258.377      239.466        0.187        0.059       50.548       16.620        0.108      346.488       24.771      862.649
08/19/2013  22:26:00       -7.466       41.660       -6.926       19.826       26.763       10.383      393.079      716.235      107.798        0.153        0.061       42.324        8.433        0.040      346.305       24.457      862.664
08/19/2013  22:27:00       59.884       62.402        9.933       30.045       17.701       18.312      902.727      313.319      335.344        0.456        0.078       86.488       14.424        0.028      346.307       24.460      862.662
08/19/2013  22:28:00       -4.549       62.247       -7.322       13.854       20.345       11.322      191.923      413.919      128.196        0.234        0.037       62.413        8.372        0.018      346.453       24.711      862.681
08/19/2013  22:29:00      -40.480       60.442       -0.663       30.113       46.419       24.397      906.769     2154.746      595.227        0.447        0.183       72.745       13.186        0.033      346.349       24.531      862.691
08/19/2013  22:30:00      -50.702        6.217       -4.220       45.227       41.812       22.901     2045.477     1748.281      524.452        0.347        0.216       51.082       24.095        0.223      346.452       24.711      862.694
08/19/2013  22:31:00      -31.062       26.746        3.450       23.731       17.854       13.442      563.151      318.760      180.692        0.138        0.053       40.990       13.934        0.116      346.102       24.109      862.697
08/19/2013  22:32:00       -0.364       23.915       11.397       24.789       19.124       14.432      614.477      365.728      208.280        0.095        0.059       23.918        6.918        0.084      345.500       23.075      862.686
08/19/2013  22:33:00      -60.626       12.704       -5.778       29.267       21.277        9.905      856.530      452.716       98.117        0.264        0.070       61.943        4.096        0.004      346.524       24.833      862.687
08/19/2013  22:34:00       -5.248       10.068       13.557       12.451       17.533       14.176      155.036      307.412      200.969        0.049        0.033       11.354       13.128        1.337      345.586       23.221      862.696
08/19/2013  22:35:00       -3.475      -20.321        6.005       23.208       29.909       20.873      538.614      894.562      435.685        0.116        0.093       20.616       10.088        0.239      346.089       24.088      862.681
08/19/2013  22:36:00      -66.398        0.036       -3.373       17.911       23.371       17.001      320.795      546.212      289.044        0.279        0.058       66.398        8.502        0.016      346.411       24.639      862.661
08/19/2013  22:37:00      -50.187       22.684       -2.014       20.352       18.550        9.725      414.199      344.109       94.578        0.194        0.043       55.075       12.064        0.048      346.404       24.628      862.656
08/19/2013  22:38:00        5.762        4.411       12.925       18.572        9.645        9.214      344.925       93.030       84.903        0.037        0.026        7.257       11.008        2.301      346.188       24.255      862.664
08/19/2013  22:39:00       43.293        1.166       12.088       25.807       17.456       18.642      665.994      304.710      347.541        0.167        0.066       43.309        9.532        0.048      345.279       22.696      862.656
08/19/2013  22:40:00       44.890       -3.915       17.304       33.641       21.616       24.068     1131.716      467.265      579.252        0.225        0.109       45.061        7.434        0.027      345.235       22.620      862.651
08/19/2013  22:41:00       37.658       -9.415       22.877       31.313       24.557       19.898      980.521      603.033      395.917        0.200        0.099       38.817       16.988        0.192      345.264       22.671      862.663
08/19/2013  22:42:00       13.012        2.120        1.050       11.609       10.673       12.904      134.758      113.911      166.514        0.029        0.021       13.183        6.333        0.231      345.662       23.351      862.680
08/19/2013  22:43:00       29.624      -18.928       12.798       13.710       14.826       14.887      187.975      219.796      221.614        0.101        0.031       35.155       10.262        0.085      345.648       23.331      862.686
08/19/2013  22:44:00       41.732      -25.159       13.020       30.234       25.059       17.748      914.112      627.956      314.994        0.220        0.093       48.729       13.347        0.075      345.574       23.200      862.683
08/19/2013  22:45:00       48.670      -34.188       -3.277       27.997       21.022       13.750      783.813      441.933      189.049        0.248        0.071       59.478        8.767        0.022      345.664       23.358      862.692
08/19/2013  22:46:00       26.016      -29.597        3.139       22.562       17.359       14.059      509.065      301.342      197.656        0.129        0.050       39.406        8.562        0.047      345.917       23.790      862.689
08/19/2013  22:47:00       19.385        2.289       24.193       23.135       24.716       22.629      535.242      610.859      512.057        0.131        0.083       19.519       19.033        0.951      345.428       22.952      862.681
08/19/2013  22:48:00       19.634       -1.726       24.006       32.588       38.768       26.634     1061.954     1502.921      709.362        0.212        0.164       19.709       27.560        1.955      345.306       22.744      862.674
08/19/2013  22:49:00       27.156      -33.969       13.874       29.887       34.787       21.500      893.221     1210.138      462.237        0.232        0.128       43.490       21.659        0.248      345.394       22.892      862.681
08/19/2013  22:50:00        3.311      -42.672       21.363       16.112       24.080       14.610      259.606      579.835      213.447        0.167        0.053       42.801       11.041        0.067      346.168       24.221      862.683
08/19/2013  22:51:00       12.245      -26.594        8.538       24.290       32.581       21.814      590.028     1061.499      475.842        0.153        0.106       29.277       21.118        0.520      345.583       23.217      862.677
08/19/2013  22:52:00       27.959       -5.431       17.913       29.958       18.495       17.052      897.456      342.084      290.779        0.133        0.077       28.481        7.306        0.066      345.338       22.796      862.678
08/19/2013  22:53:00       43.067      -36.369       18.426       27.802       26.147       24.402      772.961      683.676      595.434        0.278        0.103       56.369       15.929        0.080      345.633       23.304      862.677
08/19/2013  22:54:00        9.641      -40.050       15.180       16.895       20.418       13.698      285.441      416.909      187.641        0.141        0.044       41.194        9.678        0.055      346.231       24.328      862.671
08/19/2013  22:55:00       -6.868      -49.658       12.964       19.946       24.344       19.357      397.850      592.651      374.676        0.202        0.068       50.130       16.294        0.106      346.298       24.444      862.673
08/19/2013  22:56:00      -49.854      -50.863       -1.332       27.410       32.481       13.968      751.284     1055.036      195.107        0.354        0.100       71.222       14.102        0.039      346.193       24.264      862.659
08/19/2013  22:57:00      -56.469      -39.675       -4.932       27.421       16.862       15.395      751.903      284.311      237.013        0.303        0.064       69.014        6.685        0.009      346.108       24.118      862.657
08/19/2013  22:58:00      -44.143      -37.328       -0.760       31.996       19.016       15.319     1023.723      361.624      234.686        0.248        0.081       57.810       14.779        0.065      345.972       23.883      862.653
08/19/2013  22:59:00      -45.184      -45.816       -0.950       22.467       22.965       17.071      504.787      527.369      291.427        0.273        0.066       64.348       13.282        0.043      345.942       23.833      862.653
08/19/2013  23:00:00      -71.622      -78.072        4.600       39.959       42.999       20.005     1596.745     1848.898      400.215        0.755        0.192      105.948       14.982        0.020      346.194       24.266      862.649
08/19/2013  23:01:00      -93.508      -76.683       -1.965       42.493       37.063       30.835     1805.663     1373.633      950.779        0.938        0.207      120.930       25.447        0.044      346.305       24.457      862.635
08/19/2013  23:02:00      -51.212      -55.034        5.171       46.911       37.200       25.758     2200.662     1383.823      663.451        0.496        0.212       75.176       25.542        0.115      346.167       24.221      862.633
08/19/2013  23:03:00      -41.911      -52.652        8.016       50.548       44.475       23.081     2555.101     1978.012      532.719        0.483        0.253       67.296       29.484        0.192      346.107       24.117      862.641
08/19/2013  23:04:00      -93.408      -64.914       -2.046       43.274       25.993       17.581     1872.612      675.629      309.085        0.790        0.143      113.749       17.819        0.025      346.257       24.376      862.634
08/19/2013  23:05:00      -68.786      -47.879       -2.993       29.582       22.203       18.130      875.108      492.952      328.710        0.436        0.085       83.809       16.312        0.038      346.174       24.232      862.629
08/19/2013  23:06:00      -85.521      -44.900        0.933       20.188       16.947       11.868      407.539      287.203      140.860        0.508        0.042       96.591       10.025        0.011      346.186       24.254      862.617
08/19/2013  23:07:00      -70.829      -46.023        1.726       29.563       15.352       13.292      873.964      235.697      176.679        0.421        0.064       84.468       13.701        0.026      346.157       24.203      862.604
08/19/2013  23:08:00      -78.883      -58.311        1.967       27.617       23.408       17.041      762.684      547.950      290.390        0.561        0.080       98.095       15.678        0.026      346.197       24.273      862.598
08/19/2013  23:09:00      -86.265      -63.947       -0.766       31.937       30.911       16.661     1019.980      955.514      277.601        0.689        0.113      107.382       12.011        0.013      346.216       24.303      862.599
08/19/2013  23:10:00     -104.430      -72.998       -1.835       29.876       24.136       18.123      892.585      582.541      328.455        0.902        0.090      127.414       13.729        0.012      346.276       24.406      862.592
08/19/2013  23:11:00      -69.233      -66.707       -0.540       42.327       35.011       21.790     1791.566     1225.803      474.814        0.637        0.175       96.141       22.253        0.054      346.136       24.166      862.589
08/19/2013  23:12:00      -81.010      -63.684        0.595       44.834       34.208       21.033     2010.060     1170.195      442.391        0.712        0.181      103.045       21.559        0.044      346.177       24.238      862.577
08/19/2013  23:13:00     -101.165      -68.197       -1.210       43.597       19.503       16.344     1900.685      380.362      267.115        0.872        0.127      122.005       19.673        0.026      346.155       24.199      862.569
08/19/2013  23:14:00      -96.229      -62.447        1.789       36.286       32.869       24.692     1316.707     1080.396      609.698        0.808        0.150      114.716       21.002        0.034      346.146       24.183      862.556
08/19/2013  23:15:00      -83.445      -58.810        0.303       45.813       31.062       22.926     2098.794      964.849      525.606        0.700        0.179      102.086       25.556        0.063      346.041       24.004      862.546
08/19/2013  23:16:00     -102.172      -65.302        0.422       35.918       28.875       24.270     1290.133      833.747      589.030        0.871        0.136      121.258       17.019        0.020      346.122       24.142      862.552
08/19/2013  23:17:00      -54.762      -47.063        1.373       35.118       33.651       21.099     1233.278     1132.378      445.165        0.401        0.141       72.206       18.607        0.066      346.029       23.983      862.549
08/19/2013  23:18:00      -40.429      -51.037        8.305       44.126       27.096       16.963     1947.065      734.210      287.760        0.364        0.148       65.110       22.459        0.119      346.060       24.035      862.541
08/19/2013  23:19:00      -23.085      -32.327       -2.188       34.410       17.801       13.899     1184.069      316.879      193.193        0.164        0.085       39.723        9.236        0.054      346.003       23.937      862.535
08/19/2013  23:20:00      -15.292      -59.545        0.263       27.615       24.877       13.517      762.564      618.878      182.722        0.267        0.078       61.478        9.149        0.022      346.044       24.008      862.532
08/19/2013  23:21:00      -17.716      -46.674        0.408       19.777       29.062       14.703      391.142      844.581      216.167        0.197        0.073       49.923        6.291        0.016      346.093       24.092      862.534
08/19/2013  23:22:00      -36.134      -80.953       -5.442       34.082       27.586       16.773     1161.613      760.970      281.320        0.505        0.110       88.651       15.935        0.032      346.059       24.034      862.536
08/19/2013  23:23:00      -56.247     -115.560       -6.050       20.999       19.569       12.086      440.977      382.938      146.074        0.876        0.048      128.522       10.612        0.007      346.229       24.328      862.536
08/19/2013  23:24:00      -54.208     -106.449        3.521       24.937       37.999       22.430      621.874     1443.948      503.127        0.843        0.128      119.457       20.011        0.028      346.180       24.242      862.541
08/19/2013  23:25:00      -55.148     -102.500        3.252       28.143       29.977       19.410      792.049      898.600      376.749        0.781        0.103      116.394       17.308        0.022      346.107       24.117      862.525
08/19/2013  23:26:00      -64.263     -125.885        5.993       34.855       36.794       24.922     1214.854     1353.777      621.104        1.160        0.159      141.339       20.392        0.021      346.111       24.123      862.522
08/19/2013  23:27:00      -64.750     -121.112        2.262       40.260       40.126       26.858     1620.887     1610.071      721.336        1.141        0.198      137.334       23.376        0.029      346.179       24.240      862.509
08/19/2013  23:28:00      -77.940     -116.971        5.352       45.197       43.941       28.493     2042.807     1930.792      811.873        1.228        0.239      140.559       29.103        0.043      346.120       24.139      862.499
08/19/2013  23:29:00      -86.364      -82.276        5.965       57.099       50.486       32.719     3260.280     2548.843     1070.553        1.057        0.344      119.282       31.253        0.069      346.049       24.018      862.481
08/19/2013  23:30:00     -147.355     -103.119       -6.596       48.530       50.665       23.503     2355.175     2566.926      552.399        1.893        0.274      179.852       19.551        0.012      346.197       24.271      862.465
08/19/2013  23:31:00     -136.827      -90.740       -4.450       49.078       48.519       26.543     2408.626     2354.110      704.546        1.622        0.273      164.181       23.463        0.020      346.104       24.110      862.456
08/19/2013  23:32:00     -144.397      -90.573        5.158       71.581       57.372       35.565     5123.774     3291.523     1264.863        1.938        0.484      170.452       44.644        0.069      346.008       23.944      862.452
08/19/2013  23:33:00     -100.439      -79.595        6.397       70.741       44.576       31.209     5004.303     1986.985      973.975        1.221        0.398      128.154       32.311        0.064      345.943       23.835      862.447
08/19/2013  23:34:00      -98.495      -62.613        2.401       54.330       42.760       27.145     2951.720     1828.389      736.824        0.957        0.276      116.712       25.388        0.047      345.942       23.833      862.431
08/19/2013  23:35:00      -73.128      -60.362       10.053       64.416       48.802       33.062     4149.402     2381.663     1093.123        0.836        0.381       94.822       32.888        0.120      345.882       23.730      862.428
08/19/2013  23:36:00      -98.689      -75.526        3.491       54.035       37.314       26.377     2919.803     1392.330      695.752        1.023        0.250      124.273       22.310        0.032      345.881       23.730      862.426
08/19/2013  23:37:00      -61.925      -42.970       11.293       48.320       35.427       27.018     2334.826     1255.044      729.956        0.506        0.216       75.374       28.032        0.138      345.819       23.622      862.419
08/19/2013  23:38:00      -49.027      -50.073        4.224       42.044       25.215       17.913     1767.706      635.786      320.866        0.383        0.136       70.078       17.253        0.061      345.763       23.525      862.416
08/19/2013  23:39:00      -35.788      -62.620        0.323       45.875       41.170       22.081     2104.543     1695.010      487.580        0.474        0.214       72.125       23.618        0.107      345.711       23.436      862.401
08/19/2013  23:40:00      -77.242      -62.463       12.183       41.319       38.135       23.675     1707.270     1454.248      560.522        0.687        0.186       99.338       25.658        0.067      345.748       23.499      862.396
08/19/2013  23:41:00      -59.725     -120.360        0.846       61.458       80.036       31.514     3777.069     6405.737      993.154        1.461        0.559      134.364       32.871        0.060      345.798       23.586      862.389
08/19/2013  23:42:00      -57.057     -150.678       -1.693       57.830       60.030       29.107     3344.259     3603.644      847.200        1.688        0.390      161.119       14.610        0.008      345.770       23.539      862.381
08/19/2013  23:43:00      -64.755     -109.403        4.445       55.106       54.972       33.193     3036.698     3021.902     1101.795        1.167        0.358      127.131       21.155        0.028      345.692       23.403      862.381
08/19/2013  23:44:00      -56.191     -172.014       -1.501       45.861       72.927       31.607     2103.264     5318.283      998.986        2.058        0.421      180.959       28.279        0.024      345.716       23.441      862.380
08/19/2013  23:45:00      -71.804     -102.790       17.565       74.738       78.526       39.967     5585.780     6166.328     1597.366        1.469        0.667      125.386       42.170        0.113      345.682       23.385      862.391
08/19/2013  23:46:00      -58.406     -143.678       -4.627       51.242       63.863       29.808     2625.786     4078.467      888.533        1.583        0.380      155.095       20.098        0.017      345.657       23.344      862.395
08/19/2013  23:47:00      -72.991     -127.164       -2.117       47.183       64.872       32.463     2226.244     4208.331     1053.875        1.449        0.374      146.623        7.487        0.003      345.621       23.281      862.397
08/19/2013  23:48:00      -31.051      -85.884       12.457       42.979       56.249       34.222     1847.216     3163.905     1171.132        0.734        0.309       91.324       24.236        0.070      345.607       23.258      862.390
08/19/2013  23:49:00      -56.205      -95.560        2.842       40.361       66.422       28.249     1628.991     4411.932      798.020        0.957        0.342      110.864       28.651        0.067      345.586       23.221      862.379
08/19/2013  23:50:00      -57.276      -68.755        2.041       55.701       41.601       27.455     3102.610     1730.655      753.763        0.680        0.279       89.486       22.979        0.066      345.554       23.168      862.374
08/19/2013  23:51:00      -62.159      -66.152        7.609       68.265       32.330       30.661     4660.071     1045.218      940.123        0.747        0.332       90.774       30.357        0.112      345.542       23.146      862.376
08/19/2013  23:52:00      -97.071      -87.295       -3.718       67.820       55.324       33.648     4599.527     3060.789     1132.162        1.292        0.440      130.550       34.212        0.069      345.567       23.188      862.375
08/19/2013  23:53:00      -76.546     -105.056       -6.026       52.923       52.200       31.501     2800.828     2724.872      992.341        1.172        0.326      129.985       32.375        0.062      345.547       23.156      862.379
08/19/2013  23:54:00     -100.413     -109.470       -1.120       70.856       64.928       35.161     5020.535     4215.600     1236.305        1.627        0.524      148.547       34.134        0.053      345.508       23.087      862.377
08/19/2013  23:55:00     -135.606     -106.947        0.969       46.967       55.482       37.891     2205.901     3078.302     1435.704        1.827        0.336      172.704       29.661        0.029      345.451       22.991      862.386
08/19/2013  23:56:00      -98.001     -132.438        3.082       69.486       64.204       32.695     4828.304     4122.115     1068.994        1.858        0.501      164.755       28.954        0.031      345.428       22.949      862.394
08/19/2013  23:57:00      -94.162      -82.545        8.106       72.124       55.194       33.060     5201.824     3046.419     1092.983        1.254        0.467      125.221       26.564        0.045      345.368       22.846      862.406
08/19/2013  23:58:00      -75.287      -92.944        7.496       78.071       47.640       43.887     6095.060     2269.609     1926.055        1.233        0.515      119.611       42.455        0.126      345.339       22.797      862.426
08/19/2013  23:59:00      -64.527     -127.235        1.110       61.294       79.440       27.587     3756.895     6310.648      761.060        1.559        0.541      142.662       25.518        0.032      345.378       22.864      862.431
